[[{"header":{"parameterUnit":"m.s-1","parameterCategory":1,"la1":31.0,"la2":29.5877,"lo1":-88.7671,"lo2":-86.6584,"dy":0.0162,"dx":0.0185,"nx":115,"ny":88,"refTime":"2023-07-11T00:00:00:Z","depth":0,"parameterNumber":2,"parameterNumberName":"U-component_of_WINDS"},"data":[0.0,0.0,0.0,0.0,0.0,0.0,0.0,0.0,0.0,0.0,0.0,0.0,0.0,0.0,0.0,0.0,0.0,0.0,0.0,0.0,0.0,0.0,0.0,0.0,0.0,0.0,0.0,0.0,0.0,0.0,0.0,0.0,0.0,0.0,0.0,0.0,0.0,0.0,0.0,0.0,0.0,0.0,0.0,0.0,0.0,0.0,0.0,0.0,0.0,0.0,0.0,0.0,0.0,0.0,0.0,0.0,0.0,0.0,0.0,0.0,0.0,0.0,0.0,0.0,0.0,0.0,0.0,0.0,0.0,0.0,0.0,0.0,0.0,0.0,0.0,0.0,0.0,0.0,0.0,0.0,0.0,0.0,0.0,0.0,0.0,0.0,0.0,0.0,0.0,0.0,0.0,0.0,0.0,0.0,0.0,0.0,0.0,0.0,0.0,0.0,0.0,0.0,0.0,0.0,0.0,0.0,0.0,0.0,0.0,0.0,0.0,0.0,0.0,0.0,0.0,0.0,0.0,0.0,0.0,0.0,0.0,0.0,0.0,0.0,0.0,0.0,0.0,0.0,0.0,0.0,0.0,0.0,0.0,0.0,0.0,0.0,0.0,0.0,0.0,0.0,0.0,0.0,0.0,0.0,0.0,0.0,0.0,0.0,0.0,0.0,0.0,0.0,0.0,0.0,0.0,0.0,0.0,0.0,0.0,0.0,0.0,0.0,0.0,0.0,0.0,0.0,0.0,0.0,0.0,0.0,0.0,0.0,0.0,0.0,0.0,0.0,0.0,0.0,0.0,0.0,0.0,0.0,0.0,0.0,0.0,0.0,0.0,0.0,0.0,0.0,0.0,0.0,0.0,0.0,0.0,0.0,0.0,0.0,0.0,0.0,0.0,0.0,0.0,0.0,0.0,0.0,0.0,0.0,0.0,0.0,0.0,0.0,0.0,0.0,0.0,0.0,0.0,0.0,0.0,0.0,0.0,0.0,0.0,0.0,0.0,0.0,0.0,0.0,0.0,0.0,0.0,0.0,0.0,0.0,0.0,0.0,0.0,0.0,0.0,0.0,0.0,0.0,0.0,0.0,0.0,0.0,0.0,0.0,0.0,0.0,0.0,0.0,0.0,0.0,0.0,0.0,0.0,0.0,0.0,0.0,0.0,0.0,0.0,0.0,0.0,0.0,0.0,0.0,0.0,0.0,0.0,0.0,0.0,0.0,0.0,0.0,0.0,0.0,0.0,0.0,0.0,0.0,0.0,0.0,0.0,0.0,0.0,0.0,0.0,0.0,0.0,0.0,0.0,0.0,0.0,0.0,0.0,0.0,0.0,0.0,0.0,0.0,0.0,0.0,0.0,0.0,0.0,0.0,0.0,0.0,0.0,0.0,0.0,0.0,0.0,0.0,0.0,0.0,0.0,0.0,0.0,0.0,0.0,0.0,0.0,0.0,0.0,0.0,0.0,0.0,0.0,0.0,0.0,0.0,0.0,0.0,0.0,0.0,0.0,0.0,0.0,0.0,0.0,0.0,0.0,0.0,0.0,0.0,0.0,0.0,0.0,0.0,0.0,0.0,0.0,0.0,0.0,0.0,0.0,0.0,0.0,0.0,0.0,0.0,0.0,0.0,0.0,0.0,0.0,0.0,0.0,0.0,0.0,0.0,0.0,0.0,0.0,0.0,0.0,0.0,0.0,0.0,0.0,0.0,0.0,0.0,0.0,0.0,0.0,0.0,0.0,0.0,0.0,0.0,0.0,0.0,0.0,0.0,0.0,0.0,0.0,0.0,0.0,0.0,0.0,0.0,0.0,0.0,0.0,0.0,0.0,0.0,0.0,0.0,0.0,0.0,0.0,0.0,0.0,0.0,0.0,0.0,0.0,0.0,0.0,0.0,0.0,0.0,0.0,0.0,0.0,0.0,0.0,0.0,0.0,0.0,0.0,0.0,0.0,0.0,0.0,0.0,0.0,0.0,0.0,0.0,0.0,0.0,0.0,0.0,0.0,0.0,0.0,0.0,0.0,0.0,0.0,0.0,0.0,0.0,0.0,0.0,0.0,0.0,0.0,0.0,0.0,0.0,0.0,0.0,0.0,0.0,0.0,0.0,0.0,0.0,0.0,0.0,0.0,0.0,0.0,0.0,0.0,0.0,0.0,0.0,0.0,0.0,0.0,0.0,0.0,0.0,0.0,0.0,0.0,0.0,0.0,0.0,0.0,0.0,0.0,0.0,0.0,0.0,0.0,0.0,0.0,0.0,0.0,0.0,0.0,0.0,0.0,0.0,0.0,0.0,0.0,0.0,0.0,0.0,0.0,0.0,0.0,0.0,0.0,0.0,0.0,0.0,0.0,0.0,0.0,0.0,0.0,0.0,0.0,0.0,0.0,0.0,0.0,0.0,0.0,0.0,0.0,0.0,0.0,0.0,0.0,0.0,0.0,0.0,0.0,0.0,0.0,0.0,0.0,0.0,0.0,0.0,0.0,0.0,0.0,0.0,0.0,0.0,0.0,0.0,0.0,0.0,0.0,0.0,0.0,0.0,0.0,0.0,0.0,0.0,0.0,0.0,0.0,0.0,0.0,0.0,0.0,0.0,0.0,0.0,0.0,0.0,0.0,0.0,0.0,0.0,0.0,0.0,0.0,0.0,0.0,0.0,0.0,0.0,0.0,0.0,0.0,0.0,0.0,0.0,0.0,0.0,0.0,0.0,0.0,0.0,0.0,0.0,0.0,0.0,0.0,0.0,0.0,0.0,0.0,0.0,0.0,0.0,0.0,0.0,0.0,0.0,0.0,0.0,0.0,0.0,0.0,0.0,0.0,0.0,0.0,0.0,0.0,0.0,0.0,0.0,0.0,0.0,0.0,0.0,0.0,0.0,0.0,0.0,0.0,0.0,0.0,0.0,0.0,0.0,0.0,0.0,0.0,0.0,0.0,0.0,0.0,0.0,0.0,0.0,0.0,0.0,0.0,0.0,0.0,0.0,0.0,0.0,0.0,0.0,0.0,0.0,0.0,0.0,0.0,0.0,0.0,0.0,0.0,0.0,0.0,0.0,0.0,0.0,0.0,0.0,0.0,0.0,0.0,0.0,0.0,0.0,0.0,0.0,0.0,0.0,0.0,0.0,0.0,0.0,0.0,0.0,0.0,0.0,0.0,0.0,0.0,0.0,0.0,0.0,0.0,0.0,0.0,0.0,0.0,0.0,0.0,0.0,0.0,0.0,0.0,0.0,0.0,0.0,0.0,0.0,0.0,0.0,0.0,0.0,0.0,0.0,0.0,0.0,0.0,0.0,0.0,0.0,0.0,0.0,0.0,0.0,0.0,0.0,0.0,0.0,0.0,0.0,0.0,0.0,0.0,0.0,0.0,0.0,0.0,0.0,0.0,0.0,0.0,0.0,0.0,0.0,0.0,0.0,0.0,0.0,0.0,0.0,0.0,0.0,0.0,0.0,0.0,0.0,0.0,0.0,0.0,0.0,0.0,0.0,0.0,0.0,0.0,0.0,0.0,0.0,0.0,0.0,0.0,0.0,0.0,0.0,0.0,0.0,0.0,0.0,0.0,0.0,0.0,0.0,0.0,0.0,0.0,0.0,0.0,0.0,0.0,0.0,0.0,0.0,0.0,0.0,0.0,0.0,0.0,0.0,0.0,0.0,0.0,0.0,0.0,0.0,0.0,0.0,0.0,0.0,0.0,0.0,0.0,0.0,0.0,0.0,0.0,0.0,0.0,0.0,0.0,0.0,0.0,0.0,0.0,0.0,0.0,0.0,0.0,0.0,0.0,0.0,0.0,0.0,0.0,0.0,0.0,0.0,0.0,0.0,0.0,0.0,0.0,0.0,0.0,0.0,0.0,0.0,0.0,0.0,0.0,0.0,0.0,0.0,0.0,0.0,0.0,0.0,0.0,0.0,0.0,0.0,0.0,0.0,0.0,0.0,0.0,0.0,0.0,0.0,0.0,0.0,0.0,0.0,0.0,0.0,0.0,0.0,0.0,0.0,0.0,0.0,0.0,0.0,0.0,0.0,0.0,0.0,0.0,0.0,0.0,0.0,0.0,0.0,0.0,0.0,0.0,0.0,0.0,0.0,0.0,0.0,0.0,0.0,0.0,0.0,0.0,0.0,0.0,0.0,0.0,0.0,0.0,0.0,0.0,0.0,0.0,0.0,0.0,0.0,0.0,0.0,0.0,0.0,0.0,0.0,0.0,0.0,0.0,0.0,0.0,0.0,0.0,0.0,0.0,0.0,0.0,0.0,0.0,0.0,0.0,0.0,0.0,0.0,-0.9941,0.0,0.0,0.0,0.0,0.0,0.0,0.0,0.0,0.0,0.0,0.0,0.0,0.0,0.0,0.0,0.0,0.0,0.0,0.0,0.0,0.0,0.0,0.0,0.0,0.0,0.0,0.0,0.0,0.0,0.0,0.0,0.0,0.0,0.0,0.0,0.0,0.0,0.0,0.0,0.0,0.0,0.0,0.0,0.0,0.0,0.0,0.0,0.0,0.0,0.0,0.0,0.0,0.0,0.0,0.0,0.0,0.0,0.0,0.0,0.0,0.0,0.0,0.0,0.0,0.0,0.0,0.0,0.0,0.0,0.0,0.0,0.0,0.0,0.0,0.0,0.0,0.0,0.0,0.0,0.0,0.0,0.0,0.0,0.0,0.0,0.0,0.0,0.0,0.0,0.0,0.0,0.0,0.0,0.0,0.0,0.0,0.0,0.0,0.0,0.0,0.0,0.0,0.0,0.0,0.0,0.0,0.0,0.0,0.0,0.0,-1.1046,-1.047,-1.0911,-1.0872,-1.0348,0.0,0.0,0.0,0.0,0.0,0.0,0.0,0.0,0.0,0.0,0.0,0.0,0.0,0.0,0.0,0.0,0.0,0.0,0.0,0.0,0.0,0.0,0.0,0.0,0.0,0.0,0.0,0.0,0.0,0.0,0.0,0.0,0.0,0.0,0.0,0.0,0.0,0.0,0.0,0.0,0.0,0.0,0.0,0.0,0.0,0.0,0.0,0.0,0.0,0.0,0.0,0.0,0.0,0.0,0.0,0.0,0.0,0.0,0.0,0.0,0.0,0.0,0.0,0.0,0.0,0.0,0.0,0.0,0.0,0.0,0.0,0.0,0.0,0.0,0.0,0.0,0.0,0.0,0.0,0.0,0.0,0.0,0.0,0.0,0.0,0.0,0.0,0.0,0.0,0.0,0.0,0.0,0.0,0.0,0.0,0.0,0.0,0.0,0.0,0.0,0.0,0.0,0.0,0.0,0.0,0.0,0.0,0.0,0.0,0.0,0.0,0.0,-1.1074,-1.102,-1.0779,0.0,0.0,0.0,0.0,0.0,0.0,0.0,0.0,0.0,0.0,0.0,0.0,0.0,0.0,0.0,0.0,0.0,0.0,0.0,0.0,0.0,0.0,0.0,0.0,0.0,0.0,0.0,0.0,0.0,0.0,0.0,0.0,0.0,0.0,0.0,0.0,0.0,0.0,0.0,0.0,0.0,0.0,0.0,0.0,0.0,0.0,0.0,0.0,0.0,0.0,0.0,0.0,0.0,0.0,0.0,0.0,0.0,0.0,0.0,0.0,0.0,0.0,0.0,0.0,0.0,0.0,0.0,0.0,0.0,0.0,0.0,0.0,0.0,0.0,0.0,0.0,0.0,0.0,0.0,0.0,0.0,0.0,0.0,0.0,0.0,0.0,0.0,0.0,0.0,0.0,0.0,0.0,0.0,0.0,0.0,0.0,0.0,0.0,0.0,0.0,0.0,0.0,0.0,0.0,0.0,0.0,0.0,0.0,0.0,0.0,-1.1196,-1.1164,-1.147,0.0,-1.0786,0.0,0.0,0.0,0.0,0.0,0.0,0.0,0.0,0.0,0.0,0.0,0.0,0.0,0.0,0.0,0.0,0.0,0.0,0.0,0.0,0.0,0.0,0.0,0.0,0.0,0.0,0.0,0.0,0.0,0.0,0.0,0.0,0.0,0.0,0.0,0.0,0.0,0.0,0.0,0.0,0.0,0.0,0.0,0.0,0.0,0.0,0.0,0.0,0.0,0.0,0.0,0.0,0.0,0.0,0.0,0.0,0.0,0.0,0.0,0.0,0.0,0.0,0.0,0.0,0.0,0.0,0.0,0.0,0.0,0.0,0.0,0.0,0.0,0.0,0.0,0.0,0.0,0.0,0.0,0.0,0.0,0.0,0.0,0.0,0.0,0.0,0.0,0.0,0.0,0.0,0.0,0.0,0.0,0.0,0.0,0.0,0.0,0.0,0.0,0.0,0.0,0.0,0.0,0.0,0.0,0.0,0.0,0.0,0.0,0.0,-1.1253,-1.1424,-1.151,-1.1266,0.0,0.0,0.0,0.0,0.0,0.0,0.0,0.0,0.0,0.0,0.0,0.0,0.0,0.0,0.0,0.0,0.0,0.0,0.0,0.0,0.0,0.0,0.0,0.0,0.0,0.0,0.0,0.0,0.0,0.0,0.0,0.0,0.0,0.0,0.0,0.0,0.0,0.0,0.0,0.0,0.0,0.0,0.0,0.0,0.0,0.0,0.0,0.0,0.0,0.0,0.0,0.0,0.0,0.0,0.0,0.0,0.0,0.0,0.0,0.0,0.0,0.0,0.0,0.0,0.0,0.0,0.0,0.0,0.0,0.0,0.0,0.0,0.0,0.0,0.0,0.0,0.0,0.0,0.0,0.0,0.0,0.0,0.0,0.0,0.0,0.0,0.0,0.0,0.0,0.0,0.0,0.0,0.0,0.0,0.0,0.0,0.0,0.0,0.0,0.0,0.0,0.0,0.0,0.0,0.0,0.0,0.0,0.0,0.0,0.0,-1.1379,-1.1506,-1.18,-1.1534,-1.1245,-1.0976,0.0,0.0,0.0,0.0,0.0,0.0,0.0,0.0,0.0,0.0,0.0,0.0,0.0,0.0,0.0,0.0,0.0,0.0,0.0,0.0,0.0,0.0,0.0,0.0,0.0,0.0,0.0,0.0,0.0,0.0,0.0,0.0,0.0,0.0,0.0,0.0,0.0,0.0,0.0,0.0,0.0,0.0,0.0,0.0,0.0,0.0,0.0,0.0,0.0,0.0,0.0,0.0,0.0,0.0,0.0,0.0,0.0,0.0,0.0,0.0,0.0,0.0,0.0,0.0,0.0,0.0,0.0,0.0,0.0,0.0,0.0,0.0,0.0,0.0,0.0,0.0,0.0,0.0,0.0,0.0,0.0,0.0,0.0,0.0,0.0,0.0,0.0,0.0,0.0,0.0,0.0,0.0,0.0,0.0,0.0,0.0,0.0,0.0,0.0,0.0,0.0,0.0,0.0,0.0,0.0,0.0,0.0,0.0,-1.2442,-1.2147,-1.2102,-1.2321,-1.167,-1.1413,0.0,0.0,0.0,0.0,0.0,0.0,0.0,0.0,0.0,0.0,0.0,0.0,0.0,0.0,0.0,0.0,0.0,0.0,0.0,0.0,0.0,0.0,0.0,0.0,0.0,0.0,0.0,0.0,0.0,0.0,0.0,0.0,0.0,0.0,0.0,0.0,0.0,0.0,0.0,0.0,0.0,0.0,0.0,0.0,0.0,0.0,0.0,0.0,0.0,0.0,0.0,0.0,0.0,0.0,0.0,0.0,0.0,0.0,0.0,0.0,0.0,0.0,0.0,0.0,0.0,0.0,0.0,0.0,0.0,0.0,0.0,0.0,0.0,0.0,0.0,0.0,0.0,0.0,0.0,0.0,0.0,0.0,0.0,0.0,0.0,0.0,0.0,0.0,0.0,0.0,0.0,0.0,0.0,0.0,0.0,0.0,0.0,0.0,0.0,0.0,0.0,0.0,0.0,0.0,0.0,0.0,0.0,0.0,0.0,-1.2129,-1.2192,-1.2325,-1.244,-1.1983,-1.1756,0.0,0.0,0.0,0.0,0.0,0.0,0.0,0.0,0.0,0.0,0.0,0.0,0.0,0.0,0.0,0.0,0.0,0.0,0.0,0.0,0.0,0.0,0.0,0.0,0.0,0.0,0.0,0.0,0.0,0.0,0.0,0.0,0.0,0.0,0.0,0.0,0.0,0.0,0.0,0.0,0.0,0.0,0.0,0.0,0.0,0.0,0.0,0.0,0.0,0.0,0.0,0.0,0.0,0.0,0.0,0.0,0.0,0.0,0.0,0.0,0.0,0.0,0.0,0.0,0.0,0.0,0.0,0.0,0.0,0.0,0.0,0.0,0.0,0.0,0.0,0.0,0.0,0.0,0.0,0.0,0.0,0.0,0.0,0.0,0.0,0.0,0.0,0.0,0.0,0.0,0.0,0.0,0.0,0.0,0.0,0.0,0.0,0.0,0.0,0.0,0.0,0.0,0.0,0.0,0.0,0.0,0.0,0.0,0.0,-1.2256,0.0,-1.2797,-1.2653,-1.2272,-1.1992,0.0,0.0,0.0,0.0,0.0,0.0,0.0,0.0,0.0,0.0,0.0,0.0,0.0,0.0,0.0,0.0,0.0,0.0,0.0,0.0,0.0,0.0,0.0,0.0,0.0,0.0,0.0,0.0,0.0,0.0,0.0,0.0,0.0,0.0,0.0,0.0,0.0,0.0,0.0,0.0,0.0,0.0,0.0,0.0,0.0,0.0,0.0,0.0,0.0,0.0,0.0,0.0,0.0,0.0,0.0,0.0,0.0,0.0,0.0,0.0,0.0,0.0,0.0,0.0,0.0,0.0,0.0,0.0,0.0,0.0,0.0,0.0,0.0,0.0,0.0,0.0,0.0,0.0,0.0,0.0,0.0,0.0,0.0,0.0,0.0,0.0,0.0,0.0,0.0,0.0,0.0,0.0,0.0,0.0,0.0,0.0,0.0,0.0,0.0,0.0,0.0,0.0,0.0,0.0,0.0,0.0,0.0,0.0,-1.2153,-1.2932,-1.3514,-1.357,-1.2995,-1.252,-1.2103,0.0,0.0,0.0,0.0,0.0,0.0,0.0,0.0,0.0,0.0,0.0,0.0,0.0,0.0,0.0,0.0,0.0,0.0,0.0,0.0,0.0,0.0,0.0,0.0,0.0,0.0,0.0,0.0,0.0,0.0,0.0,0.0,0.0,0.0,0.0,0.0,0.0,0.0,0.0,0.0,0.0,0.0,0.0,0.0,0.0,0.0,0.0,0.0,0.0,0.0,0.0,0.0,0.0,0.0,0.0,0.0,0.0,0.0,0.0,0.0,0.0,0.0,0.0,0.0,0.0,0.0,0.0,0.0,0.0,0.0,0.0,0.0,0.0,0.0,0.0,0.0,0.0,0.0,0.0,0.0,0.0,0.0,0.0,0.0,0.0,0.0,0.0,0.0,0.0,0.0,0.0,0.0,0.0,0.0,0.0,0.0,0.0,0.0,0.0,0.0,0.0,0.0,0.0,0.0,0.0,0.0,0.0,0.0,0.0,-1.2419,-1.3131,-1.336,-1.2986,-1.2529,-1.229,0.0,0.0,0.0,0.0,0.0,0.0,0.0,0.0,0.0,0.0,0.0,0.0,0.0,0.0,0.0,0.0,0.0,0.0,0.0,0.0,0.0,0.0,0.0,0.0,0.0,0.0,0.0,0.0,0.0,0.0,0.0,0.0,0.0,0.0,0.0,0.0,0.0,0.0,0.0,0.0,0.0,0.0,0.0,0.0,0.0,0.0,0.0,0.0,0.0,0.0,0.0,0.0,0.0,0.0,0.0,0.0,0.0,0.0,0.0,0.0,0.0,0.0,0.0,0.0,0.0,0.0,0.0,0.0,0.0,0.0,0.0,0.0,0.0,0.0,0.0,0.0,0.0,0.0,0.0,0.0,0.0,0.0,0.0,0.0,0.0,0.0,0.0,0.0,0.0,0.0,0.0,0.0,0.0,0.0,0.0,0.0,0.0,0.0,0.0,0.0,0.0,0.0,0.0,0.0,0.0,0.0,0.0,0.0,0.0,-1.259,-1.3332,-1.3606,-1.334,-1.2797,-1.2484,-1.2447,0.0,0.0,0.0,0.0,0.0,0.0,0.0,0.0,0.0,0.0,0.0,0.0,0.0,0.0,0.0,0.0,0.0,0.0,0.0,0.0,0.0,0.0,0.0,0.0,0.0,0.0,0.0,0.0,0.0,0.0,0.0,0.0,0.0,0.0,0.0,0.0,0.0,0.0,0.0,0.0,0.0,0.0,0.0,0.0,0.0,0.0,0.0,0.0,0.0,0.0,0.0,0.0,0.0,0.0,0.0,0.0,0.0,0.0,0.0,0.0,0.0,0.0,0.0,0.0,0.0,0.0,0.0,0.0,0.0,0.0,0.0,0.0,0.0,0.0,0.0,0.0,0.0,0.0,0.0,0.0,0.0,0.0,0.0,0.0,0.0,0.0,0.0,0.0,0.0,0.0,0.0,0.0,0.0,0.0,0.0,0.0,0.0,0.0,0.0,0.0,0.0,0.0,0.0,0.0,0.0,0.0,0.0,0.0,-1.3332,-1.4102,-1.4304,-1.3882,-1.3211,-1.2743,0.0,0.0,0.0,0.0,0.0,0.0,0.0,0.0,0.0,0.0,0.0,0.0,0.0,0.0,0.0,0.0,0.0,0.0,0.0,0.0,0.0,0.0,0.0,0.0,0.0,0.0,0.0,0.0,0.0,0.0,0.0,0.0,0.0,0.0,0.0,0.0,0.0,0.0,0.0,0.0,0.0,0.0,0.0,0.0,0.0,0.0,0.0,0.0,0.0,0.0,0.0,0.0,0.0,0.0,0.0,0.0,0.0,0.0,0.0,0.0,0.0,0.0,0.0,0.0,0.0,0.0,0.0,0.0,0.0,0.0,0.0,0.0,0.0,0.0,0.0,0.0,0.0,0.0,0.0,0.0,0.0,0.0,0.0,0.0,0.0,0.0,0.0,0.0,0.0,0.0,0.0,0.0,0.0,0.0,0.0,0.0,0.0,0.0,0.0,0.0,0.0,0.0,0.0,0.0,0.0,0.0,0.0,0.0,0.0,-1.3736,-1.4249,-1.4245,-1.3702,-1.3164,-1.2804,0.0,0.0,0.0,0.0,0.0,0.0,0.0,0.0,0.0,0.0,0.0,0.0,0.0,0.0,0.0,0.0,0.0,0.0,0.0,0.0,0.0,0.0,0.0,0.0,0.0,0.0,0.0,0.0,0.0,0.0,0.0,0.0,0.0,0.0,0.0,0.0,0.0,0.0,0.0,0.0,0.0,0.0,0.0,0.0,0.0,0.0,0.0,0.0,0.0,0.0,0.0,0.0,0.0,0.0,0.0,0.0,0.0,0.0,0.0,0.0,0.0,0.0,0.0,0.0,0.0,0.0,0.0,0.0,0.0,0.0,0.0,0.0,0.0,0.0,0.0,0.0,0.0,0.0,0.0,0.0,0.0,0.0,0.0,0.0,0.0,0.0,0.0,0.0,0.0,0.0,0.0,0.0,0.0,0.0,0.0,0.0,0.0,0.0,0.0,0.0,0.0,0.0,0.0,0.0,0.0,0.0,0.0,0.0,-1.3919,-1.4139,-1.4387,-1.4328,-1.3898,-1.3405,-1.2943,0.0,0.0,0.0,0.0,0.0,0.0,0.0,0.0,0.0,0.0,0.0,0.0,0.0,0.0,0.0,0.0,0.0,0.0,0.0,0.0,0.0,0.0,0.0,0.0,0.0,0.0,0.0,0.0,0.0,0.0,0.0,0.0,0.0,0.0,0.0,0.0,0.0,0.0,0.0,0.0,0.0,0.0,0.0,0.0,0.0,0.0,0.0,0.0,0.0,0.0,0.0,0.0,0.0,0.0,0.0,0.0,0.0,0.0,0.0,0.0,0.0,0.0,0.0,0.0,0.0,0.0,0.0,0.0,0.0,0.0,0.0,0.0,0.0,0.0,0.0,0.0,0.0,0.0,0.0,0.0,0.0,0.0,0.0,0.0,0.0,0.0,0.0,0.0,0.0,0.0,0.0,0.0,0.0,0.0,0.0,0.0,0.0,0.0,0.0,0.0,0.0,0.0,0.0,0.0,0.0,0.0,0.0,0.0,-1.4469,-1.4506,-1.4515,-1.4455,-1.4318,-1.37,-1.3129,0.0,0.0,0.0,0.0,0.0,0.0,0.0,0.0,0.0,0.0,0.0,0.0,0.0,0.0,0.0,0.0,0.0,0.0,0.0,0.0,0.0,0.0,0.0,0.0,0.0,0.0,0.0,0.0,0.0,0.0,0.0,0.0,0.0,0.0,0.0,0.0,0.0,0.0,0.0,0.0,0.0,0.0,0.0,0.0,0.0,0.0,0.0,0.0,0.0,0.0,0.0,0.0,0.0,0.0,0.0,0.0,0.0,0.0,0.0,0.0,0.0,0.0,0.0,0.0,0.0,0.0,0.0,0.0,0.0,0.0,0.0,0.0,0.0,0.0,0.0,0.0,0.0,0.0,0.0,0.0,0.0,0.0,0.0,0.0,0.0,0.0,0.0,0.0,0.0,0.0,0.0,0.0,0.0,0.0,0.0,0.0,0.0,0.0,0.0,0.0,0.0,0.0,0.0,0.0,0.0,0.0,0.0,0.0,-1.4176,-1.4506,-1.4515,-1.4455,-1.4267,-1.3459,-1.2808,0.0,0.0,0.0,0.0,0.0,0.0,0.0,0.0,0.0,0.0,0.0,0.0,0.0,0.0,0.0,0.0,0.0,0.0,0.0,0.0,0.0,0.0,0.0,0.0,0.0,0.0,0.0,0.0,0.0,0.0,0.0,0.0,0.0,0.0,0.0,0.0,0.0,0.0,0.0,0.0,0.0,0.0,0.0,0.0,0.0,0.0,0.0,0.0,-0.9433,0.0,0.0,0.0,0.0,0.0,0.0,0.0,0.0,0.0,0.0,0.0,0.0,0.0,0.0,0.0,0.0,0.0,0.0,0.0,0.0,0.0,0.0,0.0,0.0,0.0,0.0,0.0,0.0,0.0,0.0,0.0,0.0,0.0,0.0,0.0,0.0,0.0,0.0,0.0,0.0,0.0,0.0,0.0,0.0,0.0,0.0,0.0,0.0,0.0,0.0,0.0,0.0,0.0,0.0,0.0,0.0,0.0,0.0,0.0,-1.4368,-1.4641,-1.4487,-1.4267,-1.4061,-1.3385,-1.2802,0.0,0.0,0.0,0.0,0.0,0.0,0.0,0.0,0.0,0.0,0.0,0.0,0.0,0.0,0.0,0.0,0.0,0.0,0.0,0.0,0.0,0.0,0.0,0.0,0.0,0.0,0.0,0.0,0.0,0.0,0.0,0.0,0.0,0.0,0.0,0.0,0.0,0.0,0.0,0.0,0.0,0.0,0.0,0.0,0.0,0.0,0.0,0.0,0.0,0.0,0.0,0.0,0.0,0.0,0.0,0.0,0.0,0.0,0.0,0.0,0.0,0.0,0.0,0.0,0.0,0.0,0.0,0.0,0.0,0.0,0.0,0.0,0.0,0.0,0.0,0.0,0.0,0.0,0.0,0.0,0.0,0.0,0.0,0.0,0.0,0.0,0.0,0.0,0.0,0.0,0.0,0.0,0.0,0.0,0.0,0.0,0.0,0.0,0.0,0.0,0.0,0.0,0.0,0.0,0.0,0.0,0.0,-1.4359,-1.4647,-1.4879,-1.4526,-1.4139,-1.3821,-1.3456,-1.2935,-1.2268,0.0,0.0,0.0,0.0,0.0,0.0,0.0,0.0,0.0,0.0,0.0,0.0,0.0,0.0,0.0,0.0,0.0,0.0,0.0,0.0,0.0,0.0,0.0,0.0,0.0,0.0,0.0,0.0,0.0,0.0,0.0,0.0,0.0,0.0,0.0,0.0,0.0,0.0,-0.8317,-0.9236,0.0,0.0,0.0,0.0,0.0,0.0,0.0,0.0,-1.1373,0.0,0.0,0.0,0.0,0.0,0.0,0.0,0.0,0.0,0.0,0.0,0.0,0.0,0.0,0.0,0.0,0.0,0.0,0.0,0.0,0.0,0.0,0.0,0.0,0.0,0.0,0.0,0.0,0.0,0.0,0.0,0.0,0.0,0.0,0.0,0.0,0.0,0.0,0.0,0.0,0.0,0.0,0.0,0.0,0.0,0.0,0.0,0.0,0.0,0.0,0.0,0.0,0.0,0.0,0.0,0.0,-1.4882,-1.4634,-1.4638,-1.4889,-1.4535,-1.4139,-1.383,-1.358,-1.3127,-1.2464,0.0,0.0,0.0,0.0,0.0,0.0,0.0,0.0,0.0,0.0,0.0,0.0,0.0,0.0,0.0,0.0,0.0,0.0,0.0,0.0,0.0,0.0,0.0,0.0,0.0,0.0,0.0,0.0,0.0,0.0,0.0,0.0,0.0,0.0,0.0,0.0,0.0,0.0,0.0,-1.0576,-1.0827,0.0,0.0,0.0,0.0,0.0,0.0,0.0,0.0,-1.1907,0.0,0.0,0.0,0.0,0.0,0.0,0.0,0.0,0.0,0.0,0.0,0.0,0.0,0.0,0.0,0.0,0.0,0.0,0.0,0.0,0.0,0.0,0.0,0.0,0.0,0.0,0.0,0.0,0.0,0.0,0.0,0.0,0.0,0.0,0.0,0.0,0.0,0.0,0.0,0.0,0.0,0.0,0.0,0.0,0.0,0.0,0.0,0.0,0.0,0.0,0.0,0.0,0.0,0.0,0.0,-1.4905,-1.4857,-1.4887,-1.507,-1.4648,-1.425,-1.381,-1.357,-1.3149,0.0,0.0,0.0,0.0,0.0,0.0,0.0,0.0,0.0,0.0,0.0,0.0,0.0,0.0,0.0,0.0,0.0,0.0,0.0,0.0,0.0,0.0,0.0,0.0,0.0,0.0,0.0,0.0,0.0,0.0,0.0,0.0,0.0,0.0,0.0,0.0,0.0,0.0,0.0,0.0,-1.1264,-1.1496,-1.2266,0.0,0.0,0.0,0.0,0.0,0.0,-1.2273,-1.2371,0.0,0.0,0.0,0.0,0.0,0.0,0.0,0.0,0.0,0.0,0.0,0.0,0.0,0.0,0.0,0.0,0.0,0.0,0.0,0.0,0.0,0.0,0.0,0.0,0.0,0.0,0.0,0.0,0.0,0.0,0.0,0.0,0.0,0.0,0.0,0.0,0.0,0.0,0.0,0.0,0.0,0.0,0.0,0.0,0.0,0.0,0.0,0.0,0.0,0.0,0.0,0.0,0.0,0.0,0.0,-1.4808,-1.4834,-1.4899,-1.5071,-1.4727,-1.4264,-1.376,-1.3492,-1.3071,0.0,0.0,0.0,0.0,0.0,0.0,0.0,0.0,0.0,0.0,0.0,0.0,0.0,0.0,0.0,0.0,0.0,0.0,0.0,0.0,0.0,0.0,0.0,0.0,0.0,0.0,0.0,0.0,0.0,0.0,0.0,0.0,0.0,0.0,0.0,0.0,0.0,0.0,0.0,0.0,0.0,-1.22,-1.2528,-1.2623,0.0,0.0,0.0,0.0,-1.257,-1.2822,0.0,0.0,0.0,0.0,0.0,0.0,0.0,0.0,0.0,0.0,0.0,0.0,0.0,0.0,0.0,0.0,0.0,0.0,0.0,0.0,0.0,0.0,0.0,0.0,0.0,0.0,0.0,0.0,0.0,0.0,0.0,0.0,0.0,0.0,0.0,0.0,0.0,0.0,0.0,0.0,0.0,0.0,0.0,0.0,0.0,0.0,0.0,0.0,0.0,0.0,0.0,0.0,0.0,0.0,0.0,0.0,-1.4595,-1.4188,-1.4188,-1.472,-1.4345,-1.3958,-1.3642,-1.3427,-1.3066,0.0,0.0,0.0,0.0,0.0,0.0,0.0,0.0,0.0,0.0,0.0,0.0,0.0,0.0,0.0,0.0,0.0,0.0,0.0,0.0,0.0,0.0,0.0,0.0,0.0,0.0,0.0,0.0,0.0,0.0,0.0,0.0,0.0,0.0,0.0,0.0,0.0,0.0,0.0,0.0,0.0,-1.2869,-1.2599,-1.283,-1.2988,0.0,0.0,-1.3379,-1.3275,-1.3567,0.0,0.0,0.0,0.0,0.0,0.0,0.0,0.0,0.0,0.0,0.0,0.0,0.0,0.0,0.0,0.0,0.0,0.0,0.0,0.0,0.0,0.0,0.0,0.0,0.0,0.0,0.0,0.0,0.0,0.0,0.0,0.0,0.0,0.0,0.0,0.0,0.0,0.0,0.0,0.0,0.0,0.0,0.0,0.0,0.0,0.0,0.0,0.0,0.0,0.0,0.0,0.0,0.0,0.0,0.0,-1.3882,-1.4327,-1.4253,-1.4276,-1.4269,-1.4052,-1.384,-1.3459,-1.3074,-1.2814,0.0,0.0,0.0,0.0,0.0,0.0,0.0,0.0,0.0,0.0,0.0,0.0,0.0,0.0,0.0,0.0,0.0,0.0,0.0,0.0,0.0,0.0,0.0,0.0,0.0,0.0,0.0,0.0,0.0,0.0,0.0,0.0,0.0,0.0,0.0,0.0,0.0,0.0,0.0,0.0,0.0,0.0,-1.3184,-1.3298,0.0,0.0,0.0,-1.3762,-1.3688,0.0,0.0,0.0,0.0,0.0,0.0,0.0,0.0,0.0,0.0,0.0,0.0,0.0,0.0,0.0,0.0,0.0,0.0,0.0,0.0,0.0,0.0,0.0,0.0,0.0,0.0,0.0,0.0,0.0,0.0,0.0,0.0,0.0,0.0,0.0,0.0,0.0,0.0,0.0,0.0,0.0,0.0,0.0,0.0,0.0,0.0,0.0,0.0,0.0,0.0,0.0,0.0,0.0,0.0,0.0,0.0,0.0,-1.3839,-1.4022,-1.4017,-1.3785,-1.3722,-1.3595,-1.3212,-1.2838,0.0,0.0,0.0,0.0,0.0,0.0,0.0,0.0,0.0,0.0,0.0,0.0,0.0,0.0,0.0,0.0,0.0,0.0,0.0,0.0,0.0,0.0,0.0,0.0,0.0,0.0,0.0,-0.9223,0.0,0.0,0.0,0.0,0.0,0.0,0.0,0.0,0.0,0.0,0.0,0.0,0.0,0.0,-1.3785,-1.3603,-1.3735,-1.3826,0.0,0.0,-1.4222,-1.4073,-1.4234,-1.4211,0.0,0.0,0.0,0.0,0.0,0.0,0.0,0.0,0.0,0.0,0.0,0.0,0.0,0.0,0.0,0.0,0.0,0.0,0.0,0.0,0.0,0.0,0.0,0.0,0.0,0.0,0.0,0.0,0.0,0.0,0.0,0.0,0.0,0.0,0.0,0.0,0.0,0.0,0.0,0.0,0.0,0.0,0.0,0.0,0.0,0.0,0.0,0.0,0.0,0.0,0.0,0.0,0.0,0.0,-1.2969,-1.3083,-1.2985,-1.3103,-1.3332,-1.334,-1.3212,-1.2819,-1.2804,-1.2457,0.0,0.0,0.0,0.0,0.0,0.0,0.0,0.0,0.0,0.0,0.0,0.0,0.0,0.0,0.0,0.0,0.0,0.0,0.0,0.0,0.0,0.0,0.0,0.0,0.0,0.0,0.0,0.0,0.0,0.0,0.0,0.0,0.0,0.0,0.0,0.0,0.0,0.0,0.0,0.0,0.0,-1.4362,-1.3669,-1.4173,-1.4562,0.0,-1.4673,-1.479,-1.4396,-1.4521,-1.4492,-1.3923,0.0,0.0,0.0,0.0,0.0,0.0,0.0,0.0,0.0,0.0,0.0,0.0,0.0,0.0,0.0,0.0,0.0,0.0,0.0,0.0,0.0,0.0,0.0,0.0,0.0,0.0,0.0,0.0,0.0,0.0,0.0,0.0,0.0,0.0,0.0,0.0,0.0,0.0,0.0,0.0,0.0,0.0,0.0,0.0,0.0,0.0,0.0,0.0,0.0,0.0,0.0,0.0,0.0,-1.3137,-1.32,-1.294,-1.2822,-1.2804,-1.2617,-1.25,-1.2382,-1.2193,-1.1944,0.0,0.0,0.0,0.0,0.0,0.0,0.0,0.0,0.0,0.0,0.0,0.0,0.0,0.0,0.0,0.0,0.0,0.0,0.0,0.0,0.0,0.0,0.0,0.0,0.0,0.0,0.0,0.0,-1.0744,-1.1059,-1.1685,0.0,0.0,0.0,0.0,0.0,0.0,0.0,0.0,0.0,0.0,-1.4653,-1.4413,-1.4562,0.0,0.0,-1.479,-1.4786,-1.4722,-1.4784,-1.4611,-1.4102,-1.4021,0.0,0.0,0.0,0.0,0.0,0.0,0.0,0.0,0.0,0.0,0.0,0.0,0.0,0.0,0.0,0.0,0.0,0.0,0.0,0.0,0.0,0.0,0.0,0.0,0.0,0.0,0.0,0.0,0.0,0.0,0.0,0.0,0.0,0.0,0.0,0.0,0.0,0.0,0.0,0.0,0.0,0.0,0.0,0.0,0.0,0.0,0.0,0.0,0.0,0.0,0.0,0.0,-1.3084,-1.3148,-1.2891,-1.2618,-1.2489,-1.2226,-1.2058,-1.1941,-1.1747,-1.1498,0.0,0.0,0.0,0.0,0.0,0.0,0.0,0.0,0.0,0.0,0.0,0.0,0.0,0.0,0.0,0.0,0.0,0.0,0.0,0.0,0.0,0.0,0.0,0.0,0.0,0.0,0.0,0.0,-1.1206,-1.1706,-1.221,0.0,0.0,0.0,0.0,0.0,0.0,0.0,0.0,0.0,0.0,-1.4869,-1.4822,-1.4836,-1.4911,-1.4955,-1.4902,-1.4829,-1.4757,-1.4791,-1.4672,-1.4103,0.0,0.0,0.0,0.0,0.0,0.0,0.0,0.0,0.0,0.0,0.0,0.0,0.0,0.0,0.0,0.0,0.0,0.0,0.0,0.0,0.0,0.0,0.0,0.0,0.0,0.0,0.0,-1.3332,0.0,0.0,-1.3901,0.0,0.0,0.0,0.0,0.0,0.0,0.0,0.0,0.0,0.0,0.0,0.0,0.0,0.0,0.0,0.0,0.0,0.0,0.0,0.0,0.0,0.0,-1.2626,-1.2827,-1.2634,-1.2489,-1.2489,-1.2233,-1.1941,-1.1622,-1.1622,-1.1373,-1.08,0.0,0.0,0.0,0.0,0.0,0.0,0.0,0.0,0.0,0.0,0.0,0.0,0.0,0.0,0.0,0.0,0.0,0.0,0.0,0.0,0.0,0.0,0.0,0.0,0.0,0.0,-1.1087,-1.1781,-1.236,0.0,0.0,0.0,0.0,0.0,0.0,0.0,0.0,0.0,-1.4065,-1.4734,-1.5072,-1.4759,-1.4981,-1.5196,-1.5204,-1.5204,-1.5018,-1.4506,-1.4733,-1.4672,0.0,0.0,0.0,0.0,0.0,0.0,0.0,0.0,0.0,0.0,0.0,0.0,0.0,0.0,0.0,0.0,0.0,0.0,0.0,0.0,0.0,0.0,0.0,0.0,0.0,0.0,0.0,-1.4616,-1.4506,0.0,0.0,0.0,0.0,0.0,0.0,0.0,0.0,0.0,0.0,0.0,-1.2838,-1.3204,0.0,0.0,0.0,0.0,0.0,0.0,0.0,0.0,0.0,0.0,0.0,0.0,-1.2798,-1.2874,-1.2545,-1.2342,-1.235,-1.1831,-1.1498,-1.1247,-1.1122,-1.087,-1.0491,0.0,0.0,0.0,0.0,0.0,0.0,0.0,0.0,0.0,0.0,0.0,0.0,0.0,0.0,0.0,0.0,0.0,0.0,0.0,0.0,0.0,0.0,0.0,0.0,0.0,-1.1612,0.0,0.0,0.0,0.0,0.0,0.0,0.0,0.0,0.0,0.0,0.0,-1.407,-1.4078,-1.4479,-1.4896,-1.5161,-1.5211,-1.5299,0.0,0.0,0.0,0.0,0.0,0.0,0.0,0.0,0.0,0.0,0.0,0.0,0.0,0.0,-1.4377,-1.4056,-1.3837,-1.3731,-1.3752,0.0,0.0,0.0,0.0,0.0,0.0,0.0,0.0,0.0,0.0,0.0,0.0,0.0,0.0,-1.5102,0.0,-1.4885,0.0,0.0,0.0,0.0,0.0,0.0,0.0,0.0,-1.3161,-1.3057,-1.2745,-1.3025,-1.2894,0.0,-1.2737,-1.2925,0.0,0.0,0.0,0.0,0.0,0.0,0.0,0.0,-1.2818,-1.287,-1.2439,-1.2181,-1.2151,-1.1575,-1.1185,-1.0996,-1.0807,-1.0608,-1.0316,-1.0187,-1.0189,0.0,0.0,0.0,0.0,0.0,0.0,0.0,0.0,0.0,0.0,0.0,0.0,0.0,0.0,0.0,0.0,0.0,0.0,0.0,0.0,0.0,0.0,0.0,-1.2083,0.0,0.0,0.0,0.0,0.0,0.0,0.0,0.0,0.0,-1.395,-1.4037,-1.4244,-1.4609,-1.4649,-1.4808,-1.5501,0.0,0.0,0.0,0.0,0.0,0.0,0.0,-1.5188,-1.4894,-1.4904,-1.4796,-1.4732,-1.5033,-1.5175,-1.4481,0.0,0.0,-1.4327,-1.3955,-1.366,-1.3947,-1.3784,-1.3637,-1.3768,-1.3585,-1.3429,0.0,0.0,0.0,0.0,0.0,0.0,0.0,0.0,-1.5166,-1.5014,0.0,-1.4502,0.0,0.0,0.0,0.0,0.0,-1.3104,0.0,0.0,-1.3074,-1.3194,-1.3155,-1.2953,-1.2871,-1.2938,-1.3439,-1.3286,-1.2407,-1.2018,0.0,0.0,0.0,0.0,0.0,0.0,-1.2713,-1.2635,-1.2261,-1.1976,-1.1969,-1.1374,-1.0996,-1.08,-1.0681,-1.056,-1.0441,-1.0381,-1.0392,-1.0327,-1.0339,0.0,0.0,0.0,0.0,0.0,0.0,0.0,0.0,0.0,0.0,0.0,0.0,0.0,0.0,0.0,0.0,0.0,0.0,0.0,0.0,-1.2441,0.0,0.0,0.0,0.0,0.0,0.0,0.0,0.0,0.0,0.0,-1.4632,-1.4324,-1.453,-1.5523,0.0,0.0,0.0,0.0,-1.534,-1.5674,-1.5713,-1.5644,-1.5436,-1.5693,-1.5636,-1.4866,0.0,0.0,-1.4223,-1.4992,-1.5278,-1.4043,-1.4285,-1.455,-1.461,-1.3903,-1.3424,-1.3622,-1.3393,-1.3214,-1.3178,-1.3265,-1.3271,-1.6793,0.0,0.0,0.0,0.0,-1.6441,-1.6273,-1.6147,-1.5876,-1.5465,-1.5067,-1.4969,0.0,0.0,0.0,0.0,0.0,0.0,-1.3293,-1.3096,-1.3155,-1.3035,-1.2668,-1.2813,-1.2684,-1.2187,-1.2632,-1.2548,-1.2037,-1.1921,-1.1836,-1.185,0.0,0.0,0.0,0.0,-1.2501,-1.2487,-1.2137,-1.1908,-1.1771,-1.118,-1.0807,-1.0681,-1.0624,-1.0566,-1.058,-1.046,-1.0547,-1.0793,-1.0676,0.0,0.0,0.0,0.0,0.0,0.0,0.0,0.0,0.0,0.0,0.0,0.0,0.0,0.0,0.0,0.0,0.0,0.0,0.0,-1.2819,-1.2858,-1.2767,0.0,0.0,0.0,0.0,0.0,0.0,0.0,0.0,0.0,-1.5258,-1.53,-1.534,0.0,0.0,-1.5547,-1.5991,-1.5827,-1.5819,-1.6132,-1.6113,0.0,-1.5619,-1.5587,-1.5388,-1.5212,-1.5143,-1.5,-1.4571,-1.4788,-1.4844,-1.4324,-1.4379,-1.4441,-1.4386,-1.3843,-1.332,-1.3156,-1.3029,-1.2973,-1.2966,-1.3114,-1.3208,-1.6908,-1.6908,-1.6908,-1.6908,-1.6899,-1.6817,-1.6597,-1.6378,-1.6296,-1.59,-1.5345,-1.512,-1.4955,-1.4629,-1.443,0.0,0.0,0.0,-1.349,-1.3234,-1.3244,-1.3068,-1.2713,-1.2736,-1.2559,-1.222,-1.2379,-1.2372,-1.2199,-1.2193,-1.2199,-1.2193,0.0,0.0,-1.2026,-1.2317,-1.2476,-1.2384,-1.2102,-1.1826,-1.156,-1.105,-1.0735,-1.0722,-1.0664,-1.0725,-1.0908,-1.0722,-1.0791,-1.0997,-1.0949,-1.0948,0.0,0.0,0.0,0.0,0.0,0.0,0.0,0.0,0.0,0.0,0.0,-1.1558,-1.1781,0.0,0.0,0.0,-1.2746,-1.3048,-1.3142,-1.3206,0.0,0.0,0.0,0.0,0.0,0.0,0.0,-1.4817,-1.5008,-1.5245,-1.5545,-1.5754,-1.5866,-1.5866,-1.5505,-1.5419,-1.5905,0.0,-1.5738,-1.6071,-1.6078,-1.6004,-1.5643,-1.5487,-1.5271,-1.513,-1.4999,-1.4824,-1.465,-1.4566,-1.4482,-1.4314,-1.4328,-1.4203,-1.4081,-1.3607,-1.3264,-1.3141,-1.2912,-1.2753,-1.2826,-1.2973,-1.3075,-1.6903,-1.686,-1.6869,-1.6894,-1.6945,-1.7222,-1.6818,-1.604,-1.6312,-1.606,-1.5394,-1.5031,-1.4993,-1.5166,-1.4609,0.0,-1.3658,-1.3785,-1.3645,-1.3253,-1.3245,-1.3208,-1.3162,-1.2781,-1.2633,-1.2633,-1.2661,-1.2647,-1.2599,-1.2613,-1.2627,-1.2592,-1.249,-1.2352,-1.2131,-1.2462,-1.2452,-1.2291,-1.2017,-1.1724,-1.143,-1.0909,-1.0755,-1.1015,-1.0824,-1.0882,-1.1255,-1.1078,-1.1058,-1.1099,-1.1111,-1.1111,-1.1111,0.0,0.0,0.0,0.0,0.0,0.0,0.0,0.0,0.0,0.0,0.0,0.0,0.0,0.0,0.0,-1.2994,0.0,-1.3572,-1.3572,0.0,0.0,0.0,-1.3733,-1.4026,-1.4055,-1.4179,-1.4736,0.0,0.0,-1.5541,-1.5815,-1.6004,-1.6004,-1.5278,-1.4919,-1.553,-1.5377,-1.5263,-1.5622,-1.5815,-1.5831,-1.5394,-1.5296,-1.5123,-1.4734,-1.4643,-1.465,-1.4398,-1.4398,-1.4321,-1.4166,-1.4088,-1.4015,-1.3645,-1.336,-1.3206,-1.3317,-1.2927,-1.2526,-1.2526,-1.2673,-1.2815,-1.6881,-1.6776,-1.6627,-1.6729,-1.6857,-1.6237,-1.5947,-1.5782,-1.5429,-1.5147,-1.479,-1.4709,-1.4697,-1.4801,-1.4521,-1.4328,-1.419,-1.3928,-1.3579,-1.307,-1.3051,-1.301,-1.2866,-1.279,-1.2721,-1.281,-1.2956,-1.2829,-1.2405,-1.2607,-1.26,-1.2399,-1.2608,-1.2567,-1.2278,-1.2345,-1.2378,-1.2305,-1.2017,-1.1724,-1.1368,-1.1154,-1.0986,-1.1044,-1.0915,-1.0868,-1.1066,-1.1006,-1.0985,-1.087,-1.1037,-1.1031,-1.0887,-1.1037,0.0,0.0,0.0,0.0,0.0,0.0,0.0,0.0,0.0,-1.1706,-1.2003,0.0,-1.2231,0.0,-1.3184,-1.3741,-1.4216,-1.4238,0.0,0.0,-1.445,-1.4626,-1.4714,-1.4926,-1.5101,-1.5189,-1.5337,-1.5389,-1.5471,-1.5545,-1.5597,-1.5582,-1.5636,-1.5782,-1.595,-1.5561,-1.536,-1.5427,-1.5177,-1.4992,-1.4901,-1.4901,-1.4817,-1.4482,-1.4482,-1.4405,-1.4159,-1.4166,-1.4166,-1.4088,-1.4088,-1.3886,-1.3477,-1.3078,-1.2597,-1.2362,-1.233,-1.2305,-1.2003,-1.2077,-1.2177,-1.6779,-1.6657,-1.6353,-1.6346,-1.6584,-1.6226,-1.5906,-1.5675,-1.5476,-1.5154,-1.4723,-1.4731,-1.4664,-1.4478,-1.4494,-1.4273,-1.4033,-1.3892,-1.3563,-1.3098,-1.3196,-1.3174,-1.3051,-1.2974,-1.2891,-1.2905,-1.2997,-1.2903,-1.2675,-1.2876,-1.2936,-1.2851,-1.2943,-1.2872,-1.2712,-1.2705,-1.2705,-1.2705,-1.2204,-1.1774,-1.149,-1.1145,-1.1069,-1.1198,-1.0994,-1.0978,-1.1174,-1.1107,-1.1034,-1.0956,-1.1031,-1.1037,-1.0962,-1.0962,-1.1037,0.0,0.0,0.0,0.0,0.0,0.0,0.0,0.0,0.0,0.0,0.0,-1.2552,-1.3058,-1.362,-1.4029,-1.445,-1.4465,-1.4465,-1.4465,-1.4626,-1.4787,-1.4852,-1.4924,-1.5083,-1.5409,-1.5431,-1.5431,-1.5431,-1.5431,-1.5431,-1.5431,-1.5506,-1.5613,-1.5479,-1.5196,-1.5025,-1.4943,-1.4809,-1.465,-1.4566,-1.4489,-1.4412,-1.4328,-1.4153,-1.4068,-1.3906,-1.3659,-1.3476,-1.3476,-1.3313,-1.3052,-1.2851,-1.2453,-1.2012,-1.1854,-1.1794,-1.1676,-1.1484,-1.1558,-1.1577,-1.6691,-1.6494,-1.6041,-1.5971,-1.615,-1.645,-1.6188,-1.5435,-1.5677,-1.5395,-1.4739,-1.4777,-1.4535,-1.4109,-1.4355,-1.4132,-1.3503,-1.3712,-1.3572,-1.3216,-1.3417,-1.3416,-1.321,-1.3126,-1.3063,-1.3036,-1.3027,-1.3027,-1.3042,-1.3192,-1.3319,-1.343,-1.3319,-1.3267,-1.3267,-1.33,-1.3287,-1.3127,-1.2457,-1.1922,-1.1748,-1.1185,-1.1083,-1.1316,-1.1153,-1.1095,-1.1323,-1.1186,-1.1111,-1.1037,-1.1037,-1.1037,-1.1037,-1.0887,-1.0812,0.0,-1.0887,0.0,0.0,0.0,0.0,0.0,0.0,0.0,0.0,-1.2556,-1.3158,-1.3773,-1.4037,-1.4295,-1.4589,-1.4589,-1.4589,-1.4589,-1.4589,-1.4706,-1.4962,-1.4734,-1.4835,-1.5311,-1.5431,-1.5431,-1.5347,-1.5347,-1.5347,-1.5257,-1.5173,-1.4996,-1.4664,-1.4621,-1.4554,-1.4342,-1.4476,-1.4482,-1.4405,-1.425,-1.4088,-1.4088,-1.3822,-1.3646,-1.3652,-1.313,-1.2705,-1.2705,-1.2443,-1.2186,-1.2015,-1.1781,-1.1537,-1.1433,-1.1099,-1.0899,-1.0962,-1.1037,-1.1115,-1.6659,-1.6362,-1.6133,-1.5881,-1.5546,-1.5457,-1.5307,-1.5057,-1.4501,-1.418,-1.3988,-1.4156,-1.4013,-1.3682,-1.3742,-1.3743,-1.3561,-1.3588,-1.3447,-1.3202,-1.3232,-1.3118,-1.2932,-1.355,-1.358,-1.3239,-1.3838,-1.3736,-1.3126,-1.3414,-1.344,-1.3292,-1.3447,-1.3561,-1.3492,0.0,0.0,0.0,-1.2615,-1.2374,-1.2311,-1.1821,-1.1626,-1.1676,-1.1303,0.0,-1.118,-1.1105,-1.1037,-1.0887,-1.0887,0.0,0.0,0.0,0.0,0.0,0.0,0.0,0.0,0.0,0.0,0.0,-1.1803,-1.191,-1.2075,-1.2713,-1.3398,-1.3918,-1.4275,-1.4631,-1.4964,-1.5165,-1.5248,-1.5248,-1.524,-1.527,-1.5335,-1.5245,-1.5274,-1.5416,-1.5431,-1.534,-1.5173,-1.5173,-1.5082,-1.4908,-1.4824,-1.472,-1.4483,-1.4462,-1.4476,-1.4406,-1.4287,-1.425,-1.4166,-1.4166,-1.4088,-1.4088,-1.3743,-1.3483,-1.3398,-1.3045,-1.2705,-1.2619,-1.2619,-1.2363,-1.2003,-1.1526,-1.0945,-1.0632,-1.0099,-0.9846,-1.0443,-1.0588,-1.053,-1.6482,0.0,-1.5997,-1.5741,0.0,-1.5075,-1.4889,-1.4831,-1.4346,-1.4028,-1.3967,-1.4042,-1.3851,-1.3588,-1.3728,-1.3701,-1.344,-1.3499,-1.3487,-1.322,-1.3353,-1.334,-1.3193,-1.3575,-1.3642,-1.3434,-1.3803,-1.379,-1.3454,-1.3721,-1.3714,-1.3427,-1.3486,-1.3492,-1.3272,-1.3248,-1.3095,-1.2896,-1.2651,-1.2346,-1.1991,-1.1618,-1.1474,-1.1468,-1.1184,0.0,0.0,0.0,0.0,0.0,0.0,0.0,0.0,-1.0438,0.0,-1.0812,-1.0663,-1.0936,-1.142,-1.1401,-1.1492,-1.189,-1.2,-1.216,-1.2479,-1.2853,-1.3378,-1.3987,-1.4269,-1.4497,-1.4894,-1.5082,-1.5257,-1.5257,-1.5347,-1.5431,-1.5431,-1.5431,-1.5347,-1.5264,-1.5159,-1.4985,-1.4915,-1.4908,-1.4824,-1.4734,-1.4566,-1.4482,-1.4398,-1.4398,-1.4398,-1.4237,-1.4075,-1.3919,-1.4082,-1.3997,-1.3828,-1.3743,-1.3483,-1.3222,-1.2966,-1.2363,-1.1843,-1.1843,-1.1591,-1.1241,-1.1031,-1.0616,-1.0222,-1.0029,-0.9635,-0.9413,-0.9841,-0.9997,-0.9997,-1.6245,-1.5997,-1.5816,-1.5575,-1.534,-1.4915,-1.4657,-1.4573,0.0,0.0,0.0,-1.4092,-1.3841,-1.3512,-1.3881,-1.3721,-1.324,-1.3433,-1.3487,-1.3227,-1.3454,-1.3567,-1.3486,-1.3614,-1.3641,-1.3647,-1.3694,-1.3721,-1.3652,-1.3884,-1.3878,-1.3658,-1.3639,-1.3356,-1.2972,-1.2643,-1.2612,-1.2808,-1.2597,-1.2205,-1.1563,-1.1313,-1.119,-1.1184,-1.1061,-1.1037,-1.1037,-1.1037,-1.0887,-1.0738,-1.0663,-1.0663,-1.0513,-1.0288,-1.0293,-1.0663,-1.0513,-1.0709,-1.1432,-1.1408,-1.151,-1.1896,-1.2204,-1.2551,-1.2972,-1.2972,-1.3316,-1.3977,-1.3997,-1.4166,-1.4566,-1.4831,-1.4999,-1.4999,-1.5166,-1.5257,-1.5257,-1.5354,-1.5271,-1.5082,-1.4803,-1.4615,-1.4643,-1.465,-1.4657,-1.4573,-1.4405,-1.4314,-1.4314,-1.4321,-1.4321,-1.4173,-1.3997,-1.3906,-1.3913,-1.3828,-1.3561,-1.3392,-1.3052,-1.2705,-1.2277,-1.1505,-1.0987,-1.0987,-1.0472,-1.0279,-1.0053,-0.9922,-0.9663,-0.9538,-0.938,-0.917,-0.917,-0.9322,-0.9397,-1.6147,-1.5733,-1.5733,-1.5492,-1.509,-1.4824,-1.4496,-1.4166,-1.4321,-1.4095,-1.3707,-1.394,-1.3703,-1.3287,-1.3574,-1.3527,-1.3233,-1.3507,-1.3487,-1.322,-1.3253,-1.3267,-1.3287,-1.3756,-1.3797,-1.3661,-1.4047,-1.4176,-1.4028,-1.3886,-1.3886,-1.3937,-1.3594,-1.3387,-1.3368,-1.3277,-1.3079,-1.2763,-1.2283,-1.2073,-1.2131,-1.1703,-1.1473,-1.1384,-1.1011,-1.0812,-1.0818,-1.0663,-1.0594,-1.0519,-1.0368,-1.0368,-1.0513,-1.0143,-1.0143,-1.0513,-1.0368,-1.0557,-1.1194,-1.1006,-1.1153,-1.189,-1.2373,-1.2741,-1.3081,-1.3081,-1.3269,-1.3737,-1.373,-1.3899,-1.4391,-1.4482,-1.4566,-1.4741,-1.4817,-1.4824,-1.4824,-1.5118,-1.5209,-1.4831,-1.4448,-1.4266,-1.4391,-1.4398,-1.4314,-1.4243,-1.4166,-1.4075,-1.3906,-1.3997,-1.4082,-1.4088,-1.4088,-1.3997,-1.3743,-1.3568,-1.3313,-1.3222,-1.2448,-1.1935,-1.1757,-1.1246,-1.0727,-1.0727,-1.0559,-1.0398,-1.0244,-0.9912,-0.9609,-0.9368,-0.9111,-0.8784,-0.8784,-0.878,-0.8937,-1.6072,-1.5733,-1.5582,-1.5313,-1.4996,-1.4743,-1.4413,-1.4103,-1.4413,-1.433,-1.3888,-1.3964,-1.389,-1.3701,-1.3828,-1.3814,-1.3694,-1.3821,-1.3814,-1.3681,-1.352,-1.3447,-1.346,-1.3662,-1.3722,-1.3661,-1.4018,-1.4166,-1.4088,-1.3997,-1.3833,-1.3592,-1.3105,-1.2782,-1.2776,-1.2612,-1.2542,-1.2478,-1.2361,-1.2288,-1.2095,-1.1727,-1.1528,-1.1528,-1.1029,-1.0812,-1.0812,-1.0594,-1.0443,-1.0363,-1.0218,-1.0218,-1.0143,-1.0067,-1.0218,-1.0438,-1.0513,-1.0784,-1.1361,-1.1391,-1.1576,-1.1908,-1.2143,-1.2349,-1.2655,-1.2796,-1.3052,-1.3307,-1.3398,-1.3476,-1.3815,-1.3977,-1.4062,-1.4153,-1.4398,-1.4566,-1.4566,-1.4838,-1.4846,-1.4566,-1.4021,-1.3847,-1.3977,-1.3899,-1.3815,-1.3743,-1.3737,-1.3652,-1.3568,-1.3392,-1.3476,-1.3652,-1.3398,-1.3222,-1.3137,-1.279,-1.2448,-1.2186,-1.1757,-1.1413,-1.1241,-1.0727,-1.0559,-1.0467,-1.0294,-1.0038,-0.9771,-0.9557,-0.9266,-0.8895,-0.87,-0.8498,-0.8403,-0.8403,-0.8479,-1.5831,-1.5567,-1.5423,-1.5194,-1.488,-1.4639,-1.4402,-1.4152,-1.4393,-1.4427,-1.4159,-1.4166,-1.4173,-1.4088,-1.4088,-1.4055,-1.4001,-1.4055,-1.4041,-1.3968,-1.3748,-1.3599,-1.3714,-1.3539,-1.3614,-1.3658,-1.3908,-1.4021,-1.399,-1.3997,-1.3633,-1.3156,-1.2606,-1.2345,-1.2257,-1.2182,-1.2198,-1.2391,-1.2575,-1.2441,-1.2017,-1.1697,-1.1528,-1.1516,-1.1029,-1.0743,-1.0738,-1.0519,-1.0293,-1.0143,-1.0143,-1.0067,-0.9997,-1.0073,-1.0218,-1.0438,-1.0588,-1.0901,-1.1272,-1.1606,-1.1836,-1.1842,-1.195,-1.2101,-1.2306,-1.2554,-1.2796,-1.3058,-1.3058,-1.3137,-1.3398,-1.3476,-1.3568,-1.3652,-1.3984,-1.4146,-1.423,-1.4405,-1.4412,-1.4146,-1.3698,-1.3444,-1.3555,-1.3483,-1.3398,-1.3398,-1.3398,-1.3392,-1.3137,-1.2875,-1.279,-1.2705,-1.2534,-1.2363,-1.2448,-1.2015,-1.1585,-1.1241,-1.1073,-1.0901,-1.0554,-1.0299,-1.0125,-1.0038,-0.9777,-0.952,-0.9262,-0.9108,-0.8905,-0.8529,-0.8429,-0.824,-0.7957,-0.7872,-0.8021,-1.5582,-1.5423,-1.5423,-1.5159,-1.4719,-1.4636,-1.4501,-1.4365,-1.4186,-1.4152,-1.4391,-1.4398,-1.4237,-1.4088,-1.4088,-1.3955,-1.3741,-1.3968,-1.3955,-1.3728,-1.3661,-1.3781,-1.3948,-1.3507,-1.3534,-1.3941,-1.3814,-1.3695,-1.373,-1.3568,-1.3203,-1.2845,-1.2905,-1.2868,-1.2705,-1.262,-1.2632,-1.2662,-1.2668,-1.2542,-1.2264,-1.1793,-1.1528,-1.1528,-1.0883,-1.0513,-1.0519,-1.0143,-0.9916,-0.9916,-0.9916,-0.9992,-1.0143,-0.9997,-1.0143,-1.0443,-1.0368,-1.046,-1.0877,-1.1254,-1.1588,-1.1522,-1.2005,-1.2264,-1.2318,-1.2542,-1.279,-1.2966,-1.2875,-1.296,-1.3307,-1.3228,-1.3222,-1.3398,-1.3476,-1.3476,-1.3568,-1.3854,-1.3959,-1.3483,-1.347,-1.3392,-1.3392,-1.3313,-1.3307,-1.3313,-1.3228,-1.3045,-1.2619,-1.2363,-1.2106,-1.1757,-1.1757,-1.1923,-1.1757,-1.1585,-1.1241,-1.0987,-1.0467,-1.0212,-1.0038,-0.9781,-0.9437,-0.9607,-0.9437,-0.9274,-0.9033,-0.8919,-0.8796,-0.8434,-0.8211,-0.799,-0.7463,-0.7338,-0.7492,-1.5575,-1.5431,-1.5431,-1.495,-1.4289,-1.4308,-1.4163,-1.3871,-1.4282,-1.4372,-1.4384,-1.4237,-1.4166,-1.4088,-1.4088,-1.4015,-1.3915,-1.4028,-1.4028,-1.3888,-1.3728,-1.3714,-1.3781,-1.3594,-1.3526,-1.3655,-1.3618,-1.362,-1.3457,-1.3313,-1.3137,-1.2966,-1.2881,-1.279,-1.2705,-1.2705,-1.2705,-1.2705,-1.2705,-1.265,-1.2524,-1.2186,-1.192,-1.1672,-1.1117,-1.0673,-1.046,-1.0143,-0.9922,-0.9922,-0.9922,-0.9916,-0.9992,-1.0143,-1.0293,-1.0524,-1.0819,-1.1118,-1.1426,-1.1624,-1.1763,-1.1757,-1.1956,-1.2137,-1.2294,-1.2409,-1.253,-1.2766,-1.279,-1.279,-1.296,-1.2875,-1.2881,-1.296,-1.3137,-1.3222,-1.3228,-1.3404,-1.3496,-1.3398,-1.3124,-1.2948,-1.279,-1.2705,-1.2705,-1.2875,-1.279,-1.2448,-1.2192,-1.1671,-1.1241,-1.0982,-1.0895,-1.0895,-1.0982,-1.0727,-1.0554,-1.0381,-1.0033,-0.9777,-0.968,-0.9519,-0.9349,-0.9257,-0.9161,-0.9,-0.8738,-0.8696,-0.861,-0.8273,-0.8037,-0.7811,-0.7584,-0.7332,-0.7273,-1.5499,-1.5416,-1.5253,-1.4696,-1.4043,-1.4194,-1.4036,-1.3767,-1.4427,-1.4566,-1.4398,-1.4159,-1.4088,-1.4088,-1.4088,-1.4088,-1.4088,-1.4088,-1.4088,-1.4062,-1.3854,-1.3678,-1.3589,-1.351,-1.3441,-1.3354,-1.3464,-1.34,-1.3294,-1.3052,-1.2966,-1.2966,-1.2796,-1.2705,-1.2705,-1.2705,-1.2705,-1.2705,-1.2705,-1.2705,-1.2674,-1.2518,-1.2264,-1.1852,-1.1198,-1.0713,-1.0524,-1.0148,-0.9922,-0.9922,-0.9986,-1.0024,-1.0024,-1.0308,-1.0571,-1.0659,-1.1212,-1.1636,-1.1828,-1.1846,-1.1926,-1.1926,-1.198,-1.2107,-1.2276,-1.2373,-1.2499,-1.2662,-1.2705,-1.2705,-1.2705,-1.2705,-1.2705,-1.2705,-1.2875,-1.2966,-1.2966,-1.3045,-1.3039,-1.296,-1.251,-1.2248,-1.21,-1.21,-1.2186,-1.2357,-1.2272,-1.1929,-1.1757,-1.1068,-1.0549,-1.0294,-1.0038,-0.9946,-1.0202,-1.0207,-0.9951,-0.9781,-0.9602,-0.9492,-0.9383,-0.9205,-0.903,-0.8909,-0.8835,-0.8706,-0.8564,-0.8514,-0.8242,-0.7897,-0.7656,-0.7545,-0.7246,-0.7091,-0.6964,-1.5431,-1.5282,-1.4842,-1.45,-1.4251,-1.4486,-1.4332,-1.3973,-1.4511,-1.4566,-1.4398,-1.4166,-1.4088,-1.4088,-1.4088,-1.4088,-1.4088,-1.4088,-1.4088,-1.4082,-1.4055,-1.3886,-1.3698,-1.345,-1.3374,-1.3393,-1.3163,-1.3098,-1.313,-1.2875,-1.2705,-1.2705,-1.2705,-1.2705,-1.2705,-1.2705,-1.2705,-1.2705,-1.2705,-1.2705,-1.2699,-1.2687,-1.2415,-1.187,-1.1047,-1.0576,-1.0443,-1.0143,-0.9922,-0.9927,-1.0137,-1.0266,-1.0288,-1.0471,-1.0654,-1.0917,-1.1335,-1.1594,-1.1629,-1.1808,-1.1888,-1.19,-1.2098,-1.2224,-1.2272,-1.2451,-1.2577,-1.2705,-1.2613,-1.2613,-1.2613,-1.2619,-1.2705,-1.2705,-1.2705,-1.2705,-1.2711,-1.2705,-1.2534,-1.218,-1.1729,-1.1466,-1.1408,-1.1752,-1.1929,-1.2015,-1.2015,-1.1757,-1.1327,-1.0722,-1.0207,-0.9777,-0.9519,-0.9432,-0.9602,-0.9777,-0.9694,-0.9519,-0.9419,-0.9196,-0.8875,-0.8574,-0.8566,-0.8463,-0.8447,-0.8325,-0.8268,-0.8078,-0.7847,-0.7527,-0.7304,-0.7129,-0.7006,-0.6532,-0.6412,-1.4816,-1.4787,-1.4223,-1.4009,-1.3952,-1.4223,-1.4071,-1.3787,-1.4434,-1.4489,-1.4243,-1.4173,-1.4088,-1.4088,-1.4088,-1.4088,-1.4082,-1.3913,-1.3828,-1.3828,-1.3743,-1.3652,-1.3724,-1.3458,-1.3374,-1.3366,-1.3212,-1.2959,-1.2863,-1.2705,-1.2705,-1.2705,-1.2705,-1.2705,-1.2705,-1.2705,-1.2705,-1.2705,-1.2705,-1.2705,-1.2687,-1.2542,-1.2355,-1.2168,-1.1505,-1.1082,-1.0674,-1.0293,-1.0144,-1.0379,-1.0473,-1.0504,-1.0498,-1.067,-1.0947,-1.1325,-1.1512,-1.1669,-1.1819,-1.1937,-1.1937,-1.1943,-1.2012,-1.2143,-1.2167,-1.2237,-1.2289,-1.2203,-1.1929,-1.1843,-1.21,-1.2448,-1.2699,-1.2705,-1.2705,-1.2534,-1.2363,-1.2466,-1.2386,-1.1677,-1.1139,-1.0966,-1.1149,-1.1154,-1.1241,-1.1494,-1.1322,-1.1068,-1.0809,-1.0289,-0.9777,-0.9607,-0.9432,-0.9257,-0.917,-0.9345,-0.9432,-0.9345,-0.9152,-0.8974,-0.8644,-0.8495,-0.8394,-0.8187,-0.8086,-0.7998,-0.7943,-0.7867,-0.7562,-0.7462,-0.7228,-0.6965,-0.6871,-0.6464,-0.6345,-1.4465,-1.4414,-1.3961,-1.3672,-1.3715,-1.4016,-1.3981,-1.3729,-1.4468,-1.458,-1.4243,-1.4159,-1.4166,-1.4082,-1.4088,-1.4088,-1.4082,-1.3906,-1.3822,-1.3822,-1.3659,-1.3646,-1.3652,-1.3561,-1.3392,-1.3307,-1.3052,-1.2881,-1.2705,-1.2705,-1.2705,-1.2705,-1.2705,-1.2705,-1.2705,-1.2705,-1.2705,-1.2705,-1.2705,-1.2705,-1.2668,-1.2451,-1.2188,-1.1998,-1.1697,-1.1365,-1.1071,-1.0764,-1.0606,-1.0779,-1.0863,-1.0853,-1.0837,-1.0947,-1.1178,-1.1495,-1.1607,-1.168,-1.1923,-1.1952,-1.2037,-1.1957,-1.1952,-1.1957,-1.1957,-1.1957,-1.1952,-1.1768,-1.1505,-1.1322,-1.1413,-1.1757,-1.21,-1.2186,-1.2277,-1.21,-1.1843,-1.2037,-1.1774,-1.1058,-1.0631,-1.0549,-1.0809,-1.0717,-1.0809,-1.1068,-1.0809,-1.0636,-1.0463,-0.9946,-0.9432,-0.9345,-0.9174,-0.8999,-0.8882,-0.8935,-0.9048,-0.8969,-0.8867,-0.8704,-0.8442,-0.8307,-0.8146,-0.802,-0.7885,-0.773,-0.7616,-0.7469,-0.745,-0.7369,-0.7092,-0.6787,-0.6642,-0.6464,-0.6274,-1.4435,-1.437,-1.3954,-1.3712,-1.3755,-1.4079,-1.4066,-1.4001,-1.4735,-1.4824,-1.4405,-1.4398,-1.4243,-1.4088,-1.4088,-1.4088,-1.4088,-1.4088,-1.4082,-1.4004,-1.4004,-1.3913,-1.373,-1.3652,-1.3483,-1.3137,-1.2875,-1.2705,-1.2705,-1.2705,-1.2705,-1.2705,-1.2705,-1.2705,-1.2705,-1.2705,-1.2705,-1.2705,-1.2705,-1.2705,-1.2674,-1.2475,-1.2158,-1.1664,-1.1435,-1.1394,-1.1547,-1.1289,-1.1175,-1.1192,-1.1215,-1.1237,-1.1241,-1.1289,-1.1327,-1.1316,-1.151,-1.1688,-1.1693,-1.1871,-1.1952,-1.1952,-1.1957,-1.1957,-1.1871,-1.1957,-1.178,-1.1419,-1.1327,-1.1154,-1.0722,-1.0722,-1.0895,-1.1235,-1.1408,-1.1327,-1.1241,-1.1235,-1.0966,-1.0265,-1.0019,-1.0033,-1.012,-1.0294,-1.0463,-1.0549,-1.0549,-1.0463,-1.0207,-0.9689,-0.9257,-0.8999,-0.8828,-0.8744,-0.8591,-0.8438,-0.8558,-0.8562,-0.8508,-0.8476,-0.8172,-0.8012,-0.7853,-0.7745,-0.7533,-0.7373,-0.7304,-0.716,-0.7003,-0.6902,-0.6673,-0.6599,-0.6355,-0.6116,-0.5879,-1.3799,-1.3792,-1.3615,-1.3572,-1.3644,-1.4154,-1.4223,-1.4123,-1.4817,-1.4824,-1.4482,-1.4398,-1.4328,-1.4166,-1.4088,-1.4088,-1.4088,-1.4088,-1.3997,-1.3822,-1.3737,-1.3659,-1.3652,-1.3561,-1.3307,-1.3137,-1.3052,-1.2881,-1.2705,-1.2705,-1.2705,-1.2705,-1.2705,-1.2705,-1.2705,-1.2705,-1.2705,-1.2705,-1.2705,-1.2705,-1.2705,-1.262,-1.2368,-1.1893,-1.1787,-1.1636,-1.1358,-1.0869,-1.0707,-1.102,-1.1028,-1.1261,-1.1434,-1.144,-1.1267,-1.1348,-1.1348,-1.144,-1.144,-1.1527,-1.1521,-1.1521,-1.1521,-1.1521,-1.1521,-1.1527,-1.1435,-1.1257,-1.0987,-1.0722,-1.0376,-1.012,-1.0207,-1.0804,-1.0804,-1.0636,-1.0463,-1.0289,-0.9941,-0.9666,-0.9593,-0.9689,-0.9777,-0.9951,-1.0038,-1.0207,-1.0207,-1.012,-0.9864,-0.9519,-0.9174,-0.8915,-0.8744,-0.8568,-0.8519,-0.8434,-0.8381,-0.8345,-0.8303,-0.8251,-0.8024,-0.7741,-0.7577,-0.7442,-0.723,-0.7055,-0.698,-0.6798,-0.6662,-0.6563,-0.65,-0.6264,-0.6018,-0.5786,-0.5634,-1.3855,-1.3702,-1.3702,-1.3637,-1.3572,-1.4194,-1.4387,-1.4395,-1.49,-1.4915,-1.4566,-1.4482,-1.4321,-1.4166,-1.4088,-1.4088,-1.4088,-1.4088,-1.3997,-1.3828,-1.3743,-1.3743,-1.3828,-1.3568,-1.3307,-1.3228,-1.3052,-1.2875,-1.2705,-1.2705,-1.2705,-1.2705,-1.2705,-1.2705,-1.2705,-1.2699,-1.2699,-1.2619,-1.2625,-1.254,-1.2413,-1.2265,-1.2005,-1.1671,-1.141,-1.1158,-1.0746,-1.0302,-1.0412,-1.107,-1.126,-1.1394,-1.1505,-1.1354,-1.1267,-1.1267,-1.1267,-1.1267,-1.1267,-1.1354,-1.1267,-1.1267,-1.1267,-1.1267,-1.1267,-1.1267,-1.1262,-1.0997,-1.0814,-1.0463,-1.0207,-0.9777,-0.9689,-1.0033,-1.012,-0.9946,-0.9689,-0.9607,-0.9428,-0.9336,-0.9428,-0.9515,-0.9602,-0.9607,-0.9689,-0.9951,-1.0033,-0.9864,-0.9602,-0.9432,-0.9174,-0.8915,-0.874,-0.8652,-0.8552,-0.8446,-0.8312,-0.8207,-0.8089,-0.8037,-0.7817,-0.7541,-0.7368,-0.7188,-0.6987,-0.6843,-0.6691,-0.6602,-0.649,-0.6412,-0.6335,-0.6022,-0.5786,-0.5631,-0.5398,-1.4425,-1.4122,-1.4129,-1.3912,-1.3726,-1.4271,-1.4543,-1.4646,-1.5063,-1.5082,-1.4741,-1.4657,-1.4412,-1.4173,-1.4088,-1.4088,-1.4088,-1.4088,-1.4088,-1.4082,-1.3997,-1.4004,-1.4004,-1.3652,-1.3398,-1.3307,-1.2966,-1.2705,-1.2705,-1.2705,-1.2705,-1.2705,-1.2705,-1.2705,-1.2619,-1.2705,-1.254,-1.2363,-1.2363,-1.2289,-1.202,-1.1643,-1.1294,-1.1098,-1.074,-1.0346,-1.0127,-1.0051,-1.0539,-1.1464,-1.1567,-1.1472,-1.1354,-1.1267,-1.1267,-1.1267,-1.1267,-1.1262,-1.1267,-1.1181,-1.1176,-1.1176,-1.1267,-1.1267,-1.1262,-1.1267,-1.117,-1.0819,-1.0722,-1.0549,-1.012,-0.9694,-0.9432,-0.9262,-0.9349,-0.9257,-0.9257,-0.9262,-0.9257,-0.9257,-0.9257,-0.9349,-0.9432,-0.9519,-0.9602,-0.9864,-0.9864,-0.9694,-0.9432,-0.917,-0.8999,-0.8828,-0.8564,-0.8564,-0.8468,-0.8422,-0.8292,-0.8042,-0.7974,-0.7789,-0.766,-0.7391,-0.7068,-0.6883,-0.6714,-0.6644,-0.6567,-0.6412,-0.6335,-0.6335,-0.618,-0.5867,-0.5634,-0.5479,-0.5246,-1.4569,-1.4489,-1.4489,-1.4425,-1.4382,-1.4706,-1.4832,-1.4922,-1.5056,-1.4977,-1.4734,-1.4559,-1.4321,-1.4088,-1.4088,-1.4088,-1.4088,-1.4088,-1.4088,-1.4082,-1.3906,-1.3913,-1.4004,-1.3737,-1.3568,-1.3392,-1.3052,-1.2881,-1.2705,-1.2705,-1.2705,-1.2705,-1.2534,-1.2448,-1.2448,-1.2289,-1.2123,-1.2123,-1.2123,-1.2037,-1.202,-1.1827,-1.1573,-1.1216,-1.1067,-1.0743,-1.0261,-1.0363,-1.0503,-1.0882,-1.1218,-1.1348,-1.1348,-1.1267,-1.1267,-1.1267,-1.1181,-1.1094,-1.1094,-1.1003,-1.0911,-1.0906,-1.1003,-1.1094,-1.1089,-1.1176,-1.1176,-1.1084,-1.1084,-1.0906,-1.0467,-1.0038,-0.9519,-0.8915,-0.8828,-0.8828,-0.8819,-0.8907,-0.8995,-0.8819,-0.8907,-0.8995,-0.9082,-0.9087,-0.9257,-0.9437,-0.9519,-0.9432,-0.917,-0.8995,-0.8819,-0.856,-0.8384,-0.8384,-0.8345,-0.8303,-0.8199,-0.7974,-0.7808,-0.7652,-0.7466,-0.7289,-0.6991,-0.6714,-0.6563,-0.6412,-0.6412,-0.6335,-0.6261,-0.6257,-0.5948,-0.5634,-0.5559,-0.5404,-0.5171,-1.4999,-1.4848,-1.4848,-1.4784,-1.4632,-1.493,-1.5157,-1.5219,-1.5212,-1.5119,-1.4956,-1.4566,-1.4321,-1.4088,-1.4088,-1.4088,-1.4088,-1.4088,-1.4088,-1.4088,-1.3822,-1.3737,-1.3743,-1.3568,-1.3392,-1.3307,-1.3052,-1.2875,-1.2705,-1.2705,-1.2705,-1.2705,-1.2534,-1.2357,-1.2363,-1.2123,-1.1957,-1.1871,-1.1871,-1.1871,-1.1699,-1.1582,-1.1472,-1.1138,-1.1062,-1.0762,-1.0492,-1.0659,-1.0746,-1.0767,-1.099,-1.1267,-1.1267,-1.1267,-1.1267,-1.1267,-1.1181,-1.1094,-1.1094,-1.0997,-1.0992,-1.0992,-1.1089,-1.1089,-1.1094,-1.1181,-1.1181,-1.1181,-1.1089,-1.0906,-1.0641,-1.012,-0.9519,-0.8911,-0.8652,-0.8652,-0.8648,-0.8736,-0.8736,-0.8644,-0.864,-0.8732,-0.8819,-0.8819,-0.8995,-0.9174,-0.9349,-0.917,-0.8907,-0.8819,-0.864,-0.8292,-0.8208,-0.8208,-0.8208,-0.8111,-0.8103,-0.7866,-0.7594,-0.7435,-0.7254,-0.7095,-0.6909,-0.6637,-0.6412,-0.6257,-0.6257,-0.618,-0.6099,-0.5944,-0.5712,-0.5479,-0.5404,-0.5251,-0.5096,-1.5647,-1.5275,-1.5275,-1.5062,-1.484,-1.5022,-1.5388,-1.5628,-1.5431,-1.536,-1.526,-1.4734,-1.4412,-1.4088,-1.4088,-1.4088,-1.4088,-1.4088,-1.4004,-1.3913,-1.3737,-1.3568,-1.3483,-1.3307,-1.3137,-1.3058,-1.2796,-1.2705,-1.2705,-1.2705,-1.2705,-1.2619,-1.2534,-1.2363,-1.2283,-1.2118,-1.1871,-1.1699,-1.1613,-1.1527,-1.1413,-1.1283,-1.1191,-1.1136,-1.0848,-1.0751,-1.0729,-1.0848,-1.0885,-1.0681,-1.1027,-1.1241,-1.1267,-1.1267,-1.1267,-1.1267,-1.1267,-1.1181,-1.1267,-1.1176,-1.1176,-1.117,-1.1176,-1.1267,-1.1176,-1.1094,-1.1008,-1.1008,-1.0824,-1.0733,-1.0472,-0.9951,-0.9432,-0.8911,-0.874,-0.8656,-0.8572,-0.8572,-0.8572,-0.8572,-0.838,-0.8468,-0.8648,-0.8732,-0.8727,-0.8911,-0.8999,-0.8815,-0.8556,-0.8464,-0.8292,-0.7944,-0.7856,-0.7944,-0.7944,-0.7933,-0.785,-0.7681,-0.7476,-0.7245,-0.698,-0.6891,-0.6802,-0.6641,-0.6412,-0.6257,-0.618,-0.6099,-0.5941,-0.5786,-0.5556,-0.5401,-0.5323,-0.5171,-0.5018,-1.5991,-1.5921,-1.5726,-1.5718,-1.5769,-1.5673,-1.5814,-1.6174,-1.5803,-1.5551,-1.5343,-1.5082,-1.4671,-1.4173,-1.4166,-1.4088,-1.4173,-1.4088,-1.3913,-1.3568,-1.3476,-1.3483,-1.3398,-1.3222,-1.3137,-1.3052,-1.2875,-1.2705,-1.279,-1.2784,-1.2705,-1.2705,-1.2619,-1.2283,-1.2118,-1.1952,-1.1613,-1.144,-1.1354,-1.1354,-1.1354,-1.1214,-1.1166,-1.123,-1.1025,-1.0923,-1.0918,-1.0961,-1.0955,-1.0993,-1.1171,-1.1267,-1.1267,-1.1267,-1.1267,-1.1267,-1.1181,-1.1094,-1.1094,-1.0997,-1.0819,-1.0906,-1.1003,-1.1094,-1.1094,-1.1008,-1.1008,-1.0921,-1.0824,-1.0554,-1.0212,-0.9864,-0.9432,-0.8999,-0.874,-0.866,-0.8572,-0.8572,-0.8572,-0.8568,-0.8564,-0.8564,-0.8656,-0.8652,-0.8652,-0.874,-0.8648,-0.8464,-0.8288,-0.8204,-0.794,-0.7591,-0.7676,-0.7676,-0.7588,-0.7654,-0.7567,-0.7479,-0.7213,-0.7008,-0.6756,-0.6637,-0.6637,-0.6563,-0.6412,-0.6257,-0.6099,-0.5944,-0.5864,-0.5631,-0.5479,-0.5323,-0.5246,-0.5093,-0.5018,-1.6132,-1.6061,-1.6,-1.5929,-1.5964,-1.5787,-1.6037,-1.6421,-1.602,-1.5919,-1.5913,-1.5575,-1.5166,-1.4741,-1.4657,-1.458,-1.4412,-1.4419,-1.4328,-1.4237,-1.4243,-1.4159,-1.3984,-1.3808,-1.3639,-1.3555,-1.3464,-1.3379,-1.3379,-1.3294,-1.33,-1.3052,-1.296,-1.2711,-1.2289,-1.2118,-1.1866,-1.1527,-1.1354,-1.1267,-1.1267,-1.1267,-1.1267,-1.1257,-1.1225,-1.1155,-1.116,-1.1155,-1.116,-1.1187,-1.1193,-1.1267,-1.1267,-1.1267,-1.1267,-1.1267,-1.1181,-1.1181,-1.1089,-1.1084,-1.0997,-1.0992,-1.1089,-1.1094,-1.1008,-1.0916,-1.0738,-1.0651,-1.0472,-1.0212,-1.0043,-0.9777,-0.9432,-0.9174,-0.8911,-0.8744,-0.8656,-0.8568,-0.8572,-0.8568,-0.8476,-0.8476,-0.8568,-0.8568,-0.8568,-0.8652,-0.8472,-0.8288,-0.8028,-0.794,-0.7588,-0.7411,-0.7411,-0.7411,-0.7411,-0.7271,-0.7256,-0.7144,-0.6913,-0.6711,-0.6485,-0.6507,-0.6486,-0.6412,-0.6412,-0.6177,-0.6022,-0.5864,-0.5709,-0.5476,-0.5323,-0.5246,-0.5171,-0.5018,-0.5018,-1.6272,-1.6202,-1.6132,-1.6,-1.5876,-1.5814,-1.6118,-1.6614,-1.6269,-1.6291,-1.649,-1.6026,-1.5733,-1.5484,-1.5311,-1.5144,-1.4901,-1.4817,-1.4824,-1.4922,-1.4922,-1.4831,-1.4734,-1.4566,-1.4566,-1.4391,-1.4048,-1.4048,-1.3971,-1.4062,-1.3808,-1.3561,-1.3652,-1.3307,-1.279,-1.254,-1.2375,-1.2037,-1.178,-1.1521,-1.1435,-1.1435,-1.1435,-1.1262,-1.1246,-1.123,-1.1225,-1.1235,-1.1251,-1.1267,-1.1267,-1.1267,-1.1267,-1.1267,-1.1267,-1.1267,-1.1267,-1.1267,-1.1267,-1.1267,-1.1267,-1.1267,-1.1267,-1.1267,-1.1089,-1.0916,-1.0733,-1.0472,-1.0212,-1.0038,-0.9951,-0.9864,-0.9602,-0.9432,-0.9174,-0.8911,-0.874,-0.874,-0.8656,-0.8568,-0.848,-0.848,-0.848,-0.8476,-0.848,-0.8476,-0.8292,-0.8116,-0.7944,-0.768,-0.7411,-0.7234,-0.7319,-0.7319,-0.7231,-0.7142,-0.7042,-0.6894,-0.6678,-0.6585,-0.6318,-0.6278,-0.6254,-0.6412,-0.6335,-0.6177,-0.5944,-0.5789,-0.5556,-0.5321,-0.5168,-0.5093,-0.5096,-0.5018,-0.5018,-1.6542,-1.6473,-1.6202,-1.614,-1.614,-1.5938,-1.6045,-1.6439,-1.664,-1.6619,-1.6549,-1.6522,-1.6229,-1.5816,-1.5477,-1.5311,-1.5318,-1.5311,-1.5242,-1.5257,-1.5257,-1.5242,-1.5311,-1.5318,-1.5401,-1.5325,-1.4817,-1.4307,-1.423,-1.4075,-1.4153,-1.4062,-1.4062,-1.3808,-1.347,-1.3307,-1.3052,-1.2625,-1.2454,-1.2198,-1.1935,-1.1849,-1.1602,-1.1348,-1.1267,-1.1267,-1.1267,-1.1267,-1.1267,-1.1267,-1.1267,-1.1267,-1.1267,-1.1267,-1.1267,-1.1267,-1.1267,-1.1267,-1.1267,-1.1267,-1.1267,-1.1267,-1.1267,-1.1267,-1.1181,-1.1094,-1.0824,-1.0554,-1.0299,-1.0038,-1.0038,-1.0038,-0.9951,-0.9777,-0.9602,-0.9432,-0.9345,-0.9087,-0.8828,-0.874,-0.8652,-0.8568,-0.848,-0.8568,-0.8568,-0.848,-0.8296,-0.8116,-0.7944,-0.7588,-0.7231,-0.7143,-0.7139,-0.7139,-0.7139,-0.7017,-0.6898,-0.6732,-0.6593,-0.6471,-0.6325,-0.6041,-0.6096,-0.6254,-0.6257,-0.6025,-0.5792,-0.5637,-0.5404,-0.5168,-0.5093,-0.5018,-0.5018,-0.5018,-0.5018,-1.6682,-1.6612,-1.6333,-1.6202,-1.6132,-1.5938,-1.6002,-1.637,-1.6747,-1.6902,-1.6951,-1.6968,-1.6812,-1.6476,-1.6147,-1.6064,-1.6064,-1.5816,-1.5824,-1.5831,-1.5914,-1.5989,-1.5974,-1.5974,-1.6064,-1.5989,-1.5484,-1.5068,-1.5151,-1.4992,-1.4831,-1.4657,-1.4741,-1.4405,-1.3899,-1.3724,-1.347,-1.3137,-1.2881,-1.2619,-1.2357,-1.2186,-1.1763,-1.1435,-1.1267,-1.1267,-1.1267,-1.1267,-1.1267,-1.1267,-1.1267,-1.1267,-1.1267,-1.1267,-1.1267,-1.1267,-1.1267,-1.1267,-1.1267,-1.1267,-1.1267,-1.1267,-1.1267,-1.1267,-1.1181,-1.1008,-1.0916,-1.0733,-1.0554,-1.0386,-1.0381,-1.0386,-1.0212,-1.0038,-0.9864,-0.9689,-0.9428,-0.9165,-0.9082,-0.8999,-0.8828,-0.8656,-0.8568,-0.8568,-0.8572,-0.848,-0.8296,-0.812,-0.7944,-0.7588,-0.7231,-0.7132,-0.7122,-0.7082,-0.7054,-0.6939,-0.6814,-0.6654,-0.6522,-0.64,-0.6247,-0.6035,-0.6018,-0.6018,-0.5944,-0.5792,-0.5637,-0.5401,-0.5249,-0.5093,-0.5018,-0.5018,-0.5018,-0.5018,-0.5018,-1.683,-1.6673,-1.6403,-1.6342,-1.6202,-1.6008,-1.6093,-1.6358,-1.6796,-1.6996,-1.7172,-1.7266,-1.731,-1.7139,-1.6976,-1.682,-1.673,-1.6402,-1.6402,-1.6484,-1.6574,-1.6648,-1.6648,-1.6558,-1.6476,-1.6402,-1.6245,-1.617,-1.5914,-1.5748,-1.5582,-1.5416,-1.5423,-1.509,-1.4321,-1.423,-1.3808,-1.347,-1.3137,-1.296,-1.279,-1.2357,-1.1929,-1.1516,-1.1429,-1.1435,-1.1262,-1.1267,-1.1267,-1.1267,-1.1267,-1.1267,-1.1267,-1.1267,-1.1267,-1.1267,-1.1267,-1.1267,-1.1267,-1.1267,-1.1267,-1.1267,-1.1267,-1.1181,-1.1094,-1.1008,-1.0921,-1.0824,-1.0733,-1.0646,-1.0641,-1.0733,-1.0472,-1.0299,-1.0125,-0.9951,-0.9602,-0.9428,-0.9428,-0.9257,-0.9003,-0.8832,-0.8744,-0.8476,-0.8476,-0.8388,-0.8204,-0.8204,-0.8028,-0.768,-0.7323,-0.7129,-0.7099,-0.7027,-0.6953,-0.6834,-0.6705,-0.6559,-0.6451,-0.6346,-0.622,-0.6099,-0.6018,-0.5941,-0.5712,-0.5559,-0.5401,-0.5323,-0.5168,-0.5093,-0.5018,-0.5018,-0.5018,-0.5018,-0.5018,-1.6908,-1.6839,-1.6612,-1.6542,-1.6473,-1.6351,-1.6158,-1.6236,-1.6907,-1.707,-1.7013,-1.7238,-1.7465,-1.7456,-1.7392,-1.7229,-1.7049,-1.6968,-1.6804,-1.673,-1.673,-1.673,-1.673,-1.6648,-1.6648,-1.6648,-1.6574,-1.6417,-1.6252,-1.6087,-1.6004,-1.5922,-1.5748,-1.5401,-1.4985,-1.4734,-1.4482,-1.423,-1.399,-1.3652,-1.3307,-1.2875,-1.2363,-1.202,-1.1849,-1.1682,-1.1348,-1.1267,-1.1267,-1.1267,-1.1267,-1.1267,-1.1267,-1.1267,-1.1267,-1.1267,-1.1267,-1.1267,-1.1267,-1.1267,-1.1267,-1.1267,-1.1267,-1.1267,-1.1181,-1.1094,-1.1008,-1.1008,-1.0824,-1.0733,-1.0733,-1.0733,-1.0646,-1.0559,-1.0381,-1.0294,-1.0033,-0.9689,-0.9689,-0.9791,-0.9625,-0.927,-0.9003,-0.856,-0.8292,-0.8204,-0.8204,-0.8201,-0.8025,-0.7588,-0.7415,-0.7221,-0.7048,-0.6973,-0.6854,-0.6736,-0.66,-0.6461,-0.6386,-0.6305,-0.6203,-0.6099,-0.5867,-0.5712,-0.5556,-0.5401,-0.5401,-0.5323,-0.5168,-0.5093,-0.5018,-0.5018,-0.5018,-0.5018,-0.5018,-1.7116,-1.6899,-1.6682,-1.6603,-1.6603,-1.6403,-1.6202,-1.6289,-1.7019,-1.722,-1.7064,-1.738,-1.7538,-1.7375,-1.7392,-1.731,-1.7131,-1.7131,-1.6968,-1.673,-1.673,-1.673,-1.673,-1.673,-1.673,-1.673,-1.6648,-1.6656,-1.6409,-1.6327,-1.6237,-1.6237,-1.6072,-1.5741,-1.5394,-1.5075,-1.4741,-1.4405,-1.4159,-1.3828,-1.3483,-1.3137,-1.2705,-1.21,-1.2015,-1.1768,-1.1435,-1.1267,-1.1267,-1.1267,-1.1267,-1.1267,-1.1267,-1.1267,-1.1267,-1.1267,-1.1267,-1.1267,-1.1267,-1.1267,-1.1267,-1.1267,-1.1267,-1.1267,-1.1262,-1.1094,-1.1094,-1.1181,-1.1089,-1.0997,-1.0916,-1.1003,-1.0733,-1.0641,-1.0467,-1.0299,-1.0207,-1.0038,-0.9868,-1.0144,-1.0246,-0.98,-0.9354,-0.8819,-0.838,-0.8116,-0.8028,-0.794,-0.7764,-0.7411,-0.7231,-0.7139,-0.7027,-0.6905,-0.677,-0.6637,-0.6498,-0.638,-0.6339,-0.6278,-0.6268,-0.6103,-0.5944,-0.5789,-0.5634,-0.5556,-0.5479,-0.5326,-0.5171,-0.5093,-0.5018,-0.5018,-0.5018,-0.5018,-0.5018,-1.7254,-1.6968,-1.6821,-1.6751,-1.6682,-1.6482,-1.6342,-1.6298,-1.7184,-1.7296,-1.7192,-1.7514,-1.7538,-1.7375,-1.7473,-1.7473,-1.7302,-1.7221,-1.7057,-1.6894,-1.6812,-1.6738,-1.673,-1.673,-1.673,-1.673,-1.673,-1.6648,-1.6648,-1.6566,-1.6484,-1.6476,-1.6162,-1.5914,-1.5492,-1.5075,-1.4748,-1.4328,-1.4166,-1.3913,-1.3659,-1.3652,-1.3045,-1.2443,-1.21,-1.1935,-1.1348,-1.1267,-1.1267,-1.1267,-1.1267,-1.1267,-1.1267,-1.1267,-1.1267,-1.1267,-1.1267,-1.1267,-1.1267,-1.1267,-1.1267,-1.1267,-1.1267,-1.1267,-1.1267,-1.1181,-1.1094,-1.1267,-1.1181,-1.1094,-1.1003,-1.1003,-1.0819,-1.0554,-1.0463,-1.0294,-1.0125,-1.0033,-1.0125,-1.04,-1.0502,-1.0425,-0.98,-0.9082,-0.8552,-0.8032,-0.7856,-0.7856,-0.7591,-0.7323,-0.7231,-0.7221,-0.7039,-0.6919,-0.6732,-0.658,-0.6503,-0.6397,-0.6281,-0.6257,-0.6257,-0.6177,-0.6022,-0.5867,-0.5789,-0.5634,-0.5559,-0.5326,-0.5093,-0.5093,-0.5093,-0.5018,-0.5018,-0.5018,-0.5018,-1.7392,-1.7166,-1.7166,-1.7038,-1.683,-1.6908,-1.663,-1.6413,-1.7387,-1.7464,-1.72,-1.7584,-1.787,-1.7708,-1.7789,-1.7789,-1.7619,-1.77,-1.7375,-1.7139,-1.7057,-1.6894,-1.6812,-1.673,-1.673,-1.673,-1.673,-1.673,-1.6648,-1.6648,-1.6648,-1.6648,-1.6327,-1.5989,-1.5575,-1.5075,-1.4664,-1.4243,-1.4166,-1.4088,-1.4004,-1.3913,-1.3476,-1.279,-1.2534,-1.2283,-1.1354,-1.1267,-1.1267,-1.1267,-1.1267,-1.1267,-1.1267,-1.1267,-1.1267,-1.1267,-1.1267,-1.1267,-1.1267,-1.1267,-1.1267,-1.1267,-1.1267,-1.1267,-1.1267,-1.1267,-1.1267,-1.1267,-1.1089,-1.1008,-1.0829,-1.0651,-1.0646,-1.0467,-1.0381,-1.0381,-1.0207,-1.0115,-1.0207,-1.0651,-1.0666,-1.0594,-1.0236,-0.9515,-0.8899,-0.8464,-0.8201,-0.8201,-0.7768,-0.7499,-0.7319,-0.7264,-0.7052,-0.6927,-0.6788,-0.6647,-0.6486,-0.641,-0.6298,-0.6274,-0.6257,-0.618,-0.6099,-0.6018,-0.5864,-0.5789,-0.5637,-0.5401,-0.5246,-0.5243,-0.5168,-0.5093,-0.5018,-0.5018,-0.5018,-1.7666,-1.7392,-1.7392,-1.7185,-1.6908,-1.6908,-1.676,-1.6686,-1.7542,-1.7966,-1.783,-1.7983,-1.787,-1.7781,-1.787,-1.787,-1.77,-1.77,-1.7456,-1.7212,-1.7049,-1.6894,-1.6812,-1.673,-1.673,-1.673,-1.673,-1.673,-1.673,-1.673,-1.673,-1.6648,-1.6484,-1.6245,-1.5831,-1.5159,-1.4573,-1.4321,-1.4159,-1.4088,-1.4088,-1.4082,-1.3652,-1.279,-1.2705,-1.2198,-1.1435,-1.1354,-1.1267,-1.1267,-1.1267,-1.1267,-1.1267,-1.1267,-1.1267,-1.1267,-1.1267,-1.1267,-1.1267,-1.1267,-1.1267,-1.1267,-1.1181,-1.1094,-1.1181,-1.1094,-1.1003,-1.0997,-1.0916,-1.0916,-1.0559,-1.0559,-1.0559,-1.0386,-1.0299,-1.0294,-1.0294,-1.0207,-1.0294,-1.0743,-1.0758,-1.0599,-1.0231,-0.9864,-0.9331,-0.8894,-0.8719,-0.8456,-0.8025,-0.7768,-0.7672,-0.746,-0.735,-0.7084,-0.6954,-0.6685,-0.6558,-0.6434,-0.64,-0.6291,-0.6274,-0.6257,-0.618,-0.6099,-0.5941,-0.5867,-0.5634,-0.5476,-0.5321,-0.5243,-0.5168,-0.5018,-0.5018,-0.5018,-0.5018,-1.7803,-1.7598,-1.7539,-1.7263,-1.6908,-1.6908,-1.6751,-1.6799,-1.7551,-1.8082,-1.8259,-1.8043,-1.7959,-1.787,-1.7951,-1.7951,-1.7861,-1.7781,-1.7538,-1.7294,-1.7131,-1.6976,-1.6812,-1.673,-1.673,-1.673,-1.673,-1.673,-1.673,-1.673,-1.6648,-1.6648,-1.6566,-1.6327,-1.5997,-1.5333,-1.465,-1.4398,-1.4321,-1.4166,-1.4088,-1.3913,-1.3568,-1.279,-1.2534,-1.2112,-1.1521,-1.1267,-1.1267,-1.1267,-1.1267,-1.1267,-1.1267,-1.1267,-1.1267,-1.1267,-1.1267,-1.1267,-1.1267,-1.1267,-1.1267,-1.1267,-1.1181,-1.1094,-1.1094,-1.1008,-1.1003,-1.0824,-1.0829,-1.0651,-1.0294,-1.0386,-1.0381,-1.0207,-1.0294,-1.0294,-1.0391,-1.0396,-1.0569,-1.0835,-1.0758,-1.0676,-1.0579,-1.0212,-0.9772,-0.9244,-0.8894,-0.8719,-0.8456,-0.8197,-0.8113,-0.788,-0.7688,-0.7372,-0.7073,-0.6957,-0.6771,-0.6503,-0.6383,-0.6397,-0.6291,-0.6274,-0.618,-0.6018,-0.5941,-0.5864,-0.5709,-0.5476,-0.5401,-0.5323,-0.5171,-0.5018,-0.5018,-0.5018,-0.5018,-1.7862,-1.7706,-1.752,-1.7263,-1.6978,-1.6908,-1.676,-1.6745,-1.727,-1.7748,-1.8091,-1.802,-1.8031,-1.7951,-1.8031,-1.7951,-1.7951,-1.7951,-1.7716,-1.7392,-1.7302,-1.7066,-1.682,-1.673,-1.673,-1.673,-1.673,-1.673,-1.673,-1.6648,-1.6566,-1.6484,-1.6402,-1.6237,-1.6004,-1.5423,-1.4831,-1.4482,-1.4398,-1.4243,-1.4082,-1.3743,-1.3222,-1.279,-1.2363,-1.1854,-1.1435,-1.1267,-1.1267,-1.1267,-1.1267,-1.1267,-1.1267,-1.1267,-1.1267,-1.1267,-1.1267,-1.1267,-1.1267,-1.1267,-1.1267,-1.1267,-1.1181,-1.1181,-1.1176,-1.1094,-1.0921,-1.0738,-1.0651,-1.0381,-1.0207,-1.0125,-1.012,-1.0207,-1.0207,-1.0294,-1.0391,-1.04,-1.0569,-1.0656,-1.0748,-1.0753,-1.0748,-1.0651,-1.0125,-0.9598,-0.9157,-0.8894,-0.8807,-0.8719,-0.8548,-0.8348,-0.8095,-0.7891,-0.7651,-0.7231,-0.6987,-0.6704,-0.652,-0.6523,-0.6379,-0.6264,-0.6096,-0.5941,-0.5786,-0.5712,-0.5556,-0.5401,-0.5323,-0.5168,-0.5093,-0.5018,-0.5018,-0.5018,-0.5018,-1.7852,-1.7716,-1.7647,-1.752,-1.7263,-1.6968,-1.6839,-1.6888,-1.7316,-1.776,-1.802,-1.8028,-1.8031,-1.8031,-1.8031,-1.8031,-1.8031,-1.7959,-1.7797,-1.7392,-1.7392,-1.7066,-1.682,-1.673,-1.673,-1.673,-1.673,-1.673,-1.673,-1.6648,-1.6476,-1.6394,-1.6154,-1.5899,-1.5748,-1.5333,-1.4915,-1.465,-1.4482,-1.4321,-1.4088,-1.3652,-1.3137,-1.2705,-1.2186,-1.1768,-1.1348,-1.1267,-1.1267,-1.1267,-1.1267,-1.1267,-1.1267,-1.1267,-1.1267,-1.1267,-1.1267,-1.1267,-1.1181,-1.1094,-1.1094,-1.1094,-1.1094,-1.1094,-1.0911,-1.1003,-1.0829,-1.0651,-1.0386,-1.0207,-1.0125,-1.0038,-1.0033,-1.0033,-1.012,-1.0207,-1.0299,-1.0217,-1.0309,-1.0477,-1.0564,-1.0391,-1.0391,-1.0463,-1.0111,-0.999,-0.9543,-0.9323,-0.9244,-0.9161,-0.9078,-0.8903,-0.8686,-0.8487,-0.8143,-0.7766,-0.7533,-0.7322,-0.7046,-0.695,-0.6727,-0.6342,-0.6099,-0.5941,-0.5712,-0.5559,-0.5404,-0.5246,-0.5171,-0.5093,-0.5096,-0.5018,-0.5018,-0.5018,-0.5018,-1.7988,-1.7591,-1.7648,-1.7657,-1.7461,-1.7185,-1.6978,-1.6958,-1.7179,-1.753,-1.7835,-1.7821,-1.7929,-1.7989,-1.8031,-1.8031,-1.8031,-1.7959,-1.7797,-1.7473,-1.7392,-1.7147,-1.682,-1.673,-1.673,-1.673,-1.673,-1.673,-1.673,-1.6566,-1.6402,-1.6237,-1.5831,-1.5658,-1.5499,-1.5333,-1.4999,-1.4734,-1.4475,-1.4153,-1.3737,-1.3222,-1.2711,-1.2357,-1.202,-1.1596,-1.1348,-1.1267,-1.1267,-1.1267,-1.1267,-1.1267,-1.1267,-1.1267,-1.1267,-1.1267,-1.1267,-1.1181,-1.1094,-1.0916,-1.0911,-1.0738,-1.0916,-1.0916,-1.0733,-1.0824,-1.0646,-1.0472,-1.0299,-1.0125,-1.0038,-1.0038,-1.0038,-1.0038,-1.0033,-1.012,-1.012,-1.013,-1.013,-1.0299,-1.0299,-1.0125,-1.0033,-1.0101,-1.0091,-1.0048,-1.0005,-0.9784,-0.9552,-0.9438,-0.9329,-0.9229,-0.9004,-0.8658,-0.8437,-0.8102,-0.7962,-0.7939,-0.7652,-0.7371,-0.6872,-0.656,-0.6251,-0.5867,-0.5634,-0.5401,-0.5246,-0.509,-0.5093,-0.5171,-0.5251,-0.5174,-0.5018,-0.5018,-0.5096,-1.8078,-1.7471,-1.761,-1.7657,-1.7461,-1.7245,-1.7107,-1.6945,-1.6902,-1.7149,-1.7455,-1.7553,-1.7672,-1.7954,-1.8014,-1.8031,-1.8031,-1.8031,-1.7716,-1.7473,-1.7392,-1.7066,-1.6812,-1.673,-1.673,-1.673,-1.673,-1.673,-1.6648,-1.6566,-1.6319,-1.6079,-1.5673,-1.5506,-1.5423,-1.534,-1.509,-1.4824,-1.4482,-1.4068,-1.3646,-1.279,-1.2363,-1.202,-1.1682,-1.1435,-1.1267,-1.1267,-1.1267,-1.1267,-1.1267,-1.1267,-1.1267,-1.1267,-1.1267,-1.1267,-1.1267,-1.1181,-1.1003,-1.0824,-1.0559,-1.0472,-1.0738,-1.0738,-1.0733,-1.0646,-1.0467,-1.0294,-1.0212,-1.0125,-1.0038,-1.0038,-1.0038,-1.0038,-1.0038,-1.0033,-1.0033,-1.0038,-1.0125,-1.0125,-1.0125,-1.0033,-1.0028,-1.0009,-0.9919,-0.9843,-0.9785,-0.9762,-0.9606,-0.9578,-0.947,-0.9363,-0.9122,-0.8748,-0.8548,-0.8491,-0.841,-0.8354,-0.7969,-0.7616,-0.7188,-0.6865,-0.6637,-0.6254,-0.5631,-0.5321,-0.5168,-0.5093,-0.5171,-0.5251,-0.5251,-0.5329,-0.5174,-0.5171,-0.5171,-1.8137,-1.775,-1.8081,-1.7988,-1.7647,-1.7304,-1.7107,-1.6894,-1.7045,-1.7161,-1.7058,-1.7585,-1.7657,-1.7638,-1.7912,-1.7997,-1.8031,-1.7951,-1.7708,-1.7554,-1.7392,-1.7066,-1.682,-1.673,-1.673,-1.673,-1.673,-1.6648,-1.6648,-1.6484,-1.6154,-1.5824,-1.559,-1.5431,-1.5431,-1.5431,-1.5173,-1.4908,-1.4566,-1.4062,-1.3476,-1.2705,-1.2277,-1.194,-1.1516,-1.1348,-1.1267,-1.1267,-1.1267,-1.1267,-1.1267,-1.1267,-1.1267,-1.1267,-1.1267,-1.1267,-1.1267,-1.1176,-1.0824,-1.0727,-1.0467,-1.0212,-1.0386,-1.0472,-1.0381,-1.0381,-1.0381,-1.0207,-1.0125,-1.0038,-1.0038,-1.0038,-1.0038,-1.0038,-1.0038,-1.0038,-1.0038,-1.0038,-1.0125,-1.0038,-1.0038,-1.0033,-1.0024,-0.9814,-0.9715,-0.963,-0.9554,-0.9502,-0.9557,-0.9436,-0.9431,-0.9325,-0.9159,-0.8877,-0.8941,-0.8901,-0.8797,-0.8688,-0.8374,-0.7981,-0.7712,-0.733,-0.7103,-0.6641,-0.6096,-0.5556,-0.5096,-0.5174,-0.5326,-0.5171,-0.5171,-0.5249,-0.5329,-0.5326,-0.5323,-1.807,-1.7802,-1.8097,-1.7976,-1.7579,-1.7245,-1.6968,-1.6954,-1.6953,-1.6893,-1.6971,-1.7191,-1.7423,-1.7501,-1.7706,-1.7869,-1.8031,-1.7959,-1.7797,-1.7473,-1.7392,-1.7066,-1.682,-1.673,-1.673,-1.673,-1.673,-1.673,-1.6648,-1.6409,-1.6072,-1.5906,-1.5673,-1.5506,-1.5431,-1.5347,-1.5173,-1.4831,-1.4405,-1.3977,-1.3385,-1.2625,-1.2026,-1.1768,-1.1435,-1.1348,-1.1267,-1.1267,-1.1267,-1.1267,-1.1267,-1.1267,-1.1267,-1.1267,-1.1267,-1.1267,-1.1267,-1.1176,-1.0911,-1.0733,-1.0467,-1.0212,-1.0125,-1.0125,-1.0207,-1.0294,-1.0207,-1.0125,-1.0038,-1.0038,-1.0038,-1.0038,-1.0038,-1.0038,-1.0038,-1.0038,-1.0038,-1.0038,-1.0038,-1.0038,-1.0038,-1.0038,-0.9875,-0.9734,-0.9587,-0.9474,-0.9318,-0.9176,-0.9167,-0.9171,-0.9195,-0.9204,-0.911,-0.8932,-0.9096,-0.9054,-0.8867,-0.8691,-0.864,-0.8331,-0.8111,-0.7714,-0.733,-0.6945,-0.6483,-0.5941,-0.5479,-0.5556,-0.5631,-0.5479,-0.5404,-0.5715,-0.5715,-0.5559,-0.5556,-1.8006,-1.7761,-1.7789,-1.7742,-1.7501,-1.7116,-1.6908,-1.6908,-1.6718,-1.6731,-1.6821,-1.6709,-1.698,-1.7243,-1.7372,-1.7638,-1.78,-1.7894,-1.7721,-1.7383,-1.7473,-1.7229,-1.6894,-1.673,-1.673,-1.673,-1.673,-1.673,-1.6648,-1.6484,-1.6237,-1.6087,-1.5824,-1.5575,-1.5257,-1.5264,-1.4999,-1.4566,-1.3893,-1.33,-1.2875,-1.2112,-1.1348,-1.1354,-1.1267,-1.1267,-1.1267,-1.1267,-1.1267,-1.1267,-1.1267,-1.1267,-1.1267,-1.1267,-1.1267,-1.1267,-1.1267,-1.1181,-1.1003,-1.0824,-1.0641,-1.0381,-1.0125,-1.0212,-1.0294,-1.0207,-1.012,-1.0125,-1.0038,-1.0038,-1.0038,-1.0038,-1.0038,-1.0038,-1.0038,-1.0038,-1.0038,-1.0038,-1.0038,-1.0038,-1.0038,-1.0028,-0.9889,-0.9748,-0.9502,-0.9346,-0.9129,-0.8935,-0.8838,-0.8862,-0.8894,-0.8932,-0.894,-0.8859,-0.8841,-0.8787,-0.8649,-0.8584,-0.8588,-0.843,-0.803,-0.7791,-0.7561,-0.7099,-0.6714,-0.6402,-0.6093,-0.5938,-0.5864,-0.5944,-0.5944,-0.6257,-0.618,-0.5948,-0.5789,-1.8023,-1.805,-1.7991,-1.792,-1.7803,-1.7185,-1.6908,-1.6908,-1.683,-1.6745,-1.6731,-1.6776,-1.6797,-1.6911,-1.7046,-1.7261,-1.7569,-1.7697,-1.7632,-1.7624,-1.7627,-1.7302,-1.7049,-1.6886,-1.6894,-1.673,-1.673,-1.6648,-1.6648,-1.6484,-1.6319,-1.6079,-1.5824,-1.5492,-1.4992,-1.4915,-1.4657,-1.4223,-1.3464,-1.296,-1.2705,-1.2277,-1.1682,-1.1435,-1.1267,-1.1267,-1.1267,-1.1267,-1.1267,-1.1267,-1.1267,-1.1267,-1.1267,-1.1267,-1.1267,-1.1267,-1.1267,-1.1181,-1.1094,-1.0916,-1.0824,-1.0646,-1.0559,-1.0554,-1.0467,-1.0207,-1.012,-1.0033,-1.0038,-1.0038,-1.0038,-1.0038,-1.0038,-1.0038,-1.0038,-1.0038,-1.0038,-1.0038,-1.0038,-1.0038,-1.0038,-1.0005,-0.9875,-0.971,-0.9455,-0.9204,-0.894,-0.877,-0.8702,-0.8644,-0.8658,-0.8676,-0.8721,-0.8737,-0.8627,-0.8551,-0.8403,-0.8331,-0.8345,-0.8183,-0.8021,-0.7944,-0.7714,-0.733,-0.6945,-0.671,-0.6402,-0.5864,-0.5867,-0.6099,-0.6177,-0.6257,-0.6335,-0.6183,-0.6022,-1.7958,-1.8358,-1.8375,-1.8212,-1.7872,-1.7314,-1.6968,-1.6908,-1.6908,-1.6839,-1.67,-1.6634,-1.6606,-1.6529,-1.6659,-1.6987,-1.7355,-1.7466,-1.7564,-1.7616,-1.756,-1.7383,-1.7131,-1.7017,-1.6812,-1.6738,-1.673,-1.6648,-1.6648,-1.6566,-1.6409,-1.6079,-1.5824,-1.5401,-1.4734,-1.4566,-1.4314,-1.3808,-1.313,-1.279,-1.2534,-1.2026,-1.1602,-1.1348,-1.1267,-1.1267,-1.1267,-1.1267,-1.1267,-1.1267,-1.1267,-1.1267,-1.1267,-1.1267,-1.1267,-1.1267,-1.1267,-1.1267,-1.1181,-1.1008,-1.0921,-1.0824,-1.0733,-1.0646,-1.0641,-1.0467,-1.0467,-1.0381,-1.0207,-1.0207,-1.012,-1.012,-1.0033,-1.0038,-1.0038,-1.0038,-1.0038,-1.0038,-1.0038,-1.0038,-1.0038,-1.0028,-0.9875,-0.9748,-0.9424,-0.9136,-0.8844,-0.8553,-0.8525,-0.8435,-0.8421,-0.8399,-0.8399,-0.8479,-0.8331,-0.8255,-0.8178,-0.8178,-0.8106,-0.803,-0.7953,-0.8025,-0.7949,-0.7488,-0.718,-0.7099,-0.6714,-0.6254,-0.6096,-0.6328,-0.6331,-0.618,-0.6257,-0.6338,-0.6257,-1.8079,-1.875,-1.8705,-1.8489,-1.8066,-1.7451,-1.7107,-1.6968,-1.6968,-1.6899,-1.683,-1.65,-1.6493,-1.6462,-1.6448,-1.6865,-1.7081,-1.709,-1.7293,-1.7468,-1.7393,-1.715,-1.6951,-1.6823,-1.6724,-1.6706,-1.673,-1.673,-1.6648,-1.6656,-1.6492,-1.6087,-1.5741,-1.5318,-1.4734,-1.4314,-1.3977,-1.347,-1.296,-1.2705,-1.2283,-1.1774,-1.1607,-1.1435,-1.1348,-1.1348,-1.1354,-1.1354,-1.1354,-1.1267,-1.1267,-1.1267,-1.1267,-1.1267,-1.1267,-1.1267,-1.1267,-1.1267,-1.1267,-1.1181,-1.1094,-1.1003,-1.0824,-1.0733,-1.0733,-1.0733,-1.0727,-1.0641,-1.0467,-1.0381,-1.0294,-1.0207,-1.012,-1.0038,-1.0038,-1.0038,-1.0038,-1.0033,-1.0028,-1.0028,-1.0028,-1.0028,-0.9866,-0.9743,-0.9489,-0.9128,-0.8864,-0.8514,-0.8298,-0.8358,-0.8344,-0.8137,-0.8021,-0.8025,-0.8106,-0.803,-0.8025,-0.7953,-0.7876,-0.7876,-0.7876,-0.7872,-0.7791,-0.7642,-0.7411,-0.7257,-0.7103,-0.6718,-0.6718,-0.6483,-0.6409,-0.6257,-0.6257,-0.6338,-0.649,-1.8874,-1.9236,-1.8518,-1.8405,-1.8499,-1.7803,-1.7323,-1.7166,-1.7107,-1.7038,-1.683,-1.6691,-1.6544,-1.6325,-1.6245,-1.6442,-1.6653,-1.6696,-1.6833,-1.6996,-1.7037,-1.6901,-1.6735,-1.6636,-1.6726,-1.666,-1.6643,-1.6714,-1.6472,-1.6511,-1.6402,-1.5741,-1.5741,-1.5068,-1.4068,-1.373,-1.3561,-1.2966,-1.2711,-1.2454,-1.2369,-1.2032,-1.1952,-1.1866,-1.1866,-1.1785,-1.1699,-1.1613,-1.144,-1.1354,-1.1267,-1.1267,-1.1267,-1.1267,-1.1267,-1.1267,-1.1267,-1.1267,-1.1267,-1.1267,-1.1181,-1.1181,-1.1089,-1.1089,-1.1089,-1.1089,-1.1084,-1.1084,-1.0911,-1.0646,-1.0559,-1.0294,-1.0207,-1.0125,-1.0125,-1.0038,-1.0038,-1.0014,-0.9908,-0.9908,-0.9908,-0.9908,-0.9889,-0.9767,-0.9555,-0.9206,-0.9145,-0.8786,-0.8347,-0.826,-0.8173,-0.8026,-0.7799,-0.7872,-0.803,-0.7876,-0.7795,-0.7799,-0.7723,-0.7718,-0.7642,-0.7561,-0.7484,-0.7411,-0.7334,-0.718,-0.7026,-0.6872,-0.6641,-0.6409,-0.6335,-0.6338,-0.6338,-0.6338,-0.6412]},{"header":{"parameterUnit":"m.s-1","parameterCategory":1,"la1":31.0,"la2":29.5877,"lo1":-88.7671,"lo2":-86.6584,"dy":0.0162,"dx":0.0185,"nx":115,"ny":88,"refTime":"2023-07-11T00:00:00:Z","depth":0,"parameterNumber":3,"parameterNumberName":"V-component_of_WINDS"},"data":[0.0,0.0,0.0,0.0,0.0,0.0,0.0,0.0,0.0,0.0,0.0,0.0,0.0,0.0,0.0,0.0,0.0,0.0,0.0,0.0,0.0,0.0,0.0,0.0,0.0,0.0,0.0,0.0,0.0,0.0,0.0,0.0,0.0,0.0,0.0,0.0,0.0,0.0,0.0,0.0,0.0,0.0,0.0,0.0,0.0,0.0,0.0,0.0,0.0,0.0,0.0,0.0,0.0,0.0,0.0,0.0,0.0,0.0,0.0,0.0,0.0,0.0,0.0,0.0,0.0,0.0,0.0,0.0,0.0,0.0,0.0,0.0,0.0,0.0,0.0,0.0,0.0,0.0,0.0,0.0,0.0,0.0,0.0,0.0,0.0,0.0,0.0,0.0,0.0,0.0,0.0,0.0,0.0,0.0,0.0,0.0,0.0,0.0,0.0,0.0,0.0,0.0,0.0,0.0,0.0,0.0,0.0,0.0,0.0,0.0,0.0,0.0,0.0,0.0,0.0,0.0,0.0,0.0,0.0,0.0,0.0,0.0,0.0,0.0,0.0,0.0,0.0,0.0,0.0,0.0,0.0,0.0,0.0,0.0,0.0,0.0,0.0,0.0,0.0,0.0,0.0,0.0,0.0,0.0,0.0,0.0,0.0,0.0,0.0,0.0,0.0,0.0,0.0,0.0,0.0,0.0,0.0,0.0,0.0,0.0,0.0,0.0,0.0,0.0,0.0,0.0,0.0,0.0,0.0,0.0,0.0,0.0,0.0,0.0,0.0,0.0,0.0,0.0,0.0,0.0,0.0,0.0,0.0,0.0,0.0,0.0,0.0,0.0,0.0,0.0,0.0,0.0,0.0,0.0,0.0,0.0,0.0,0.0,0.0,0.0,0.0,0.0,0.0,0.0,0.0,0.0,0.0,0.0,0.0,0.0,0.0,0.0,0.0,0.0,0.0,0.0,0.0,0.0,0.0,0.0,0.0,0.0,0.0,0.0,0.0,0.0,0.0,0.0,0.0,0.0,0.0,0.0,0.0,0.0,0.0,0.0,0.0,0.0,0.0,0.0,0.0,0.0,0.0,0.0,0.0,0.0,0.0,0.0,0.0,0.0,0.0,0.0,0.0,0.0,0.0,0.0,0.0,0.0,0.0,0.0,0.0,0.0,0.0,0.0,0.0,0.0,0.0,0.0,0.0,0.0,0.0,0.0,0.0,0.0,0.0,0.0,0.0,0.0,0.0,0.0,0.0,0.0,0.0,0.0,0.0,0.0,0.0,0.0,0.0,0.0,0.0,0.0,0.0,0.0,0.0,0.0,0.0,0.0,0.0,0.0,0.0,0.0,0.0,0.0,0.0,0.0,0.0,0.0,0.0,0.0,0.0,0.0,0.0,0.0,0.0,0.0,0.0,0.0,0.0,0.0,0.0,0.0,0.0,0.0,0.0,0.0,0.0,0.0,0.0,0.0,0.0,0.0,0.0,0.0,0.0,0.0,0.0,0.0,0.0,0.0,0.0,0.0,0.0,0.0,0.0,0.0,0.0,0.0,0.0,0.0,0.0,0.0,0.0,0.0,0.0,0.0,0.0,0.0,0.0,0.0,0.0,0.0,0.0,0.0,0.0,0.0,0.0,0.0,0.0,0.0,0.0,0.0,0.0,0.0,0.0,0.0,0.0,0.0,0.0,0.0,0.0,0.0,0.0,0.0,0.0,0.0,0.0,0.0,0.0,0.0,0.0,0.0,0.0,0.0,0.0,0.0,0.0,0.0,0.0,0.0,0.0,0.0,0.0,0.0,0.0,0.0,0.0,0.0,0.0,0.0,0.0,0.0,0.0,0.0,0.0,0.0,0.0,0.0,0.0,0.0,0.0,0.0,0.0,0.0,0.0,0.0,0.0,0.0,0.0,0.0,0.0,0.0,0.0,0.0,0.0,0.0,0.0,0.0,0.0,0.0,0.0,0.0,0.0,0.0,0.0,0.0,0.0,0.0,0.0,0.0,0.0,0.0,0.0,0.0,0.0,0.0,0.0,0.0,0.0,0.0,0.0,0.0,0.0,0.0,0.0,0.0,0.0,0.0,0.0,0.0,0.0,0.0,0.0,0.0,0.0,0.0,0.0,0.0,0.0,0.0,0.0,0.0,0.0,0.0,0.0,0.0,0.0,0.0,0.0,0.0,0.0,0.0,0.0,0.0,0.0,0.0,0.0,0.0,0.0,0.0,0.0,0.0,0.0,0.0,0.0,0.0,0.0,0.0,0.0,0.0,0.0,0.0,0.0,0.0,0.0,0.0,0.0,0.0,0.0,0.0,0.0,0.0,0.0,0.0,0.0,0.0,0.0,0.0,0.0,0.0,0.0,0.0,0.0,0.0,0.0,0.0,0.0,0.0,0.0,0.0,0.0,0.0,0.0,0.0,0.0,0.0,0.0,0.0,0.0,0.0,0.0,0.0,0.0,0.0,0.0,0.0,0.0,0.0,0.0,0.0,0.0,0.0,0.0,0.0,0.0,0.0,0.0,0.0,0.0,0.0,0.0,0.0,0.0,0.0,0.0,0.0,0.0,0.0,0.0,0.0,0.0,0.0,0.0,0.0,0.0,0.0,0.0,0.0,0.0,0.0,0.0,0.0,0.0,0.0,0.0,0.0,0.0,0.0,0.0,0.0,0.0,0.0,0.0,0.0,0.0,0.0,0.0,0.0,0.0,0.0,0.0,0.0,0.0,0.0,0.0,0.0,0.0,0.0,0.0,0.0,0.0,0.0,0.0,0.0,0.0,0.0,0.0,0.0,0.0,0.0,0.0,0.0,0.0,0.0,0.0,0.0,0.0,0.0,0.0,0.0,0.0,0.0,0.0,0.0,0.0,0.0,0.0,0.0,0.0,0.0,0.0,0.0,0.0,0.0,0.0,0.0,0.0,0.0,0.0,0.0,0.0,0.0,0.0,0.0,0.0,0.0,0.0,0.0,0.0,0.0,0.0,0.0,0.0,0.0,0.0,0.0,0.0,0.0,0.0,0.0,0.0,0.0,0.0,0.0,0.0,0.0,0.0,0.0,0.0,0.0,0.0,0.0,0.0,0.0,0.0,0.0,0.0,0.0,0.0,0.0,0.0,0.0,0.0,0.0,0.0,0.0,0.0,0.0,0.0,0.0,0.0,0.0,0.0,0.0,0.0,0.0,0.0,0.0,0.0,0.0,0.0,0.0,0.0,0.0,0.0,0.0,0.0,0.0,0.0,0.0,0.0,0.0,0.0,0.0,0.0,0.0,0.0,0.0,0.0,0.0,0.0,0.0,0.0,0.0,0.0,0.0,0.0,0.0,0.0,0.0,0.0,0.0,0.0,0.0,0.0,0.0,0.0,0.0,0.0,0.0,0.0,0.0,0.0,0.0,0.0,0.0,0.0,0.0,0.0,0.0,0.0,0.0,0.0,0.0,0.0,0.0,0.0,0.0,0.0,0.0,0.0,0.0,0.0,0.0,0.0,0.0,0.0,0.0,0.0,0.0,0.0,0.0,0.0,0.0,0.0,0.0,0.0,0.0,0.0,0.0,0.0,0.0,0.0,0.0,0.0,0.0,0.0,0.0,0.0,0.0,0.0,0.0,0.0,0.0,0.0,0.0,0.0,0.0,0.0,0.0,0.0,0.0,0.0,0.0,0.0,0.0,0.0,0.0,0.0,0.0,0.0,0.0,0.0,0.0,0.0,0.0,0.0,0.0,0.0,0.0,0.0,0.0,0.0,0.0,0.0,0.0,0.0,0.0,0.0,0.0,0.0,0.0,0.0,0.0,0.0,0.0,0.0,0.0,0.0,0.0,0.0,0.0,0.0,0.0,0.0,0.0,0.0,0.0,0.0,0.0,0.0,0.0,0.0,0.0,0.0,0.0,0.0,0.0,0.0,0.0,0.0,0.0,0.0,0.0,0.0,0.0,0.0,0.0,0.0,0.0,0.0,0.0,0.0,0.0,0.0,0.0,0.0,0.0,0.0,0.0,0.0,0.0,0.0,0.0,0.0,0.0,0.0,0.0,0.0,0.0,0.0,0.0,0.0,0.0,0.0,0.0,0.0,0.0,0.0,0.0,0.0,0.0,0.0,0.0,0.0,0.0,0.0,0.0,0.0,0.0,0.0,0.0,0.0,0.0,0.0,0.0,0.0,0.0,0.0,0.0,0.0,0.0,0.0,0.0,0.0,0.0,0.0,0.0,0.0,0.0,0.0,0.0,0.0,0.0,0.0,0.0,0.0,0.0,0.0,0.0,0.0,0.0,0.0,0.0,0.0,0.0,-2.3999,0.0,0.0,0.0,0.0,0.0,0.0,0.0,0.0,0.0,0.0,0.0,0.0,0.0,0.0,0.0,0.0,0.0,0.0,0.0,0.0,0.0,0.0,0.0,0.0,0.0,0.0,0.0,0.0,0.0,0.0,0.0,0.0,0.0,0.0,0.0,0.0,0.0,0.0,0.0,0.0,0.0,0.0,0.0,0.0,0.0,0.0,0.0,0.0,0.0,0.0,0.0,0.0,0.0,0.0,0.0,0.0,0.0,0.0,0.0,0.0,0.0,0.0,0.0,0.0,0.0,0.0,0.0,0.0,0.0,0.0,0.0,0.0,0.0,0.0,0.0,0.0,0.0,0.0,0.0,0.0,0.0,0.0,0.0,0.0,0.0,0.0,0.0,0.0,0.0,0.0,0.0,0.0,0.0,0.0,0.0,0.0,0.0,0.0,0.0,0.0,0.0,0.0,0.0,0.0,0.0,0.0,0.0,0.0,0.0,0.0,-2.5865,-2.4369,-2.4945,-2.5004,-2.4379,0.0,0.0,0.0,0.0,0.0,0.0,0.0,0.0,0.0,0.0,0.0,0.0,0.0,0.0,0.0,0.0,0.0,0.0,0.0,0.0,0.0,0.0,0.0,0.0,0.0,0.0,0.0,0.0,0.0,0.0,0.0,0.0,0.0,0.0,0.0,0.0,0.0,0.0,0.0,0.0,0.0,0.0,0.0,0.0,0.0,0.0,0.0,0.0,0.0,0.0,0.0,0.0,0.0,0.0,0.0,0.0,0.0,0.0,0.0,0.0,0.0,0.0,0.0,0.0,0.0,0.0,0.0,0.0,0.0,0.0,0.0,0.0,0.0,0.0,0.0,0.0,0.0,0.0,0.0,0.0,0.0,0.0,0.0,0.0,0.0,0.0,0.0,0.0,0.0,0.0,0.0,0.0,0.0,0.0,0.0,0.0,0.0,0.0,0.0,0.0,0.0,0.0,0.0,0.0,0.0,0.0,0.0,0.0,0.0,0.0,0.0,0.0,-2.4873,-2.4897,-2.4789,0.0,0.0,0.0,0.0,0.0,0.0,0.0,0.0,0.0,0.0,0.0,0.0,0.0,0.0,0.0,0.0,0.0,0.0,0.0,0.0,0.0,0.0,0.0,0.0,0.0,0.0,0.0,0.0,0.0,0.0,0.0,0.0,0.0,0.0,0.0,0.0,0.0,0.0,0.0,0.0,0.0,0.0,0.0,0.0,0.0,0.0,0.0,0.0,0.0,0.0,0.0,0.0,0.0,0.0,0.0,0.0,0.0,0.0,0.0,0.0,0.0,0.0,0.0,0.0,0.0,0.0,0.0,0.0,0.0,0.0,0.0,0.0,0.0,0.0,0.0,0.0,0.0,0.0,0.0,0.0,0.0,0.0,0.0,0.0,0.0,0.0,0.0,0.0,0.0,0.0,0.0,0.0,0.0,0.0,0.0,0.0,0.0,0.0,0.0,0.0,0.0,0.0,0.0,0.0,0.0,0.0,0.0,0.0,0.0,0.0,-2.4711,-2.464,-2.5316,0.0,-2.4807,0.0,0.0,0.0,0.0,0.0,0.0,0.0,0.0,0.0,0.0,0.0,0.0,0.0,0.0,0.0,0.0,0.0,0.0,0.0,0.0,0.0,0.0,0.0,0.0,0.0,0.0,0.0,0.0,0.0,0.0,0.0,0.0,0.0,0.0,0.0,0.0,0.0,0.0,0.0,0.0,0.0,0.0,0.0,0.0,0.0,0.0,0.0,0.0,0.0,0.0,0.0,0.0,0.0,0.0,0.0,0.0,0.0,0.0,0.0,0.0,0.0,0.0,0.0,0.0,0.0,0.0,0.0,0.0,0.0,0.0,0.0,0.0,0.0,0.0,0.0,0.0,0.0,0.0,0.0,0.0,0.0,0.0,0.0,0.0,0.0,0.0,0.0,0.0,0.0,0.0,0.0,0.0,0.0,0.0,0.0,0.0,0.0,0.0,0.0,0.0,0.0,0.0,0.0,0.0,0.0,0.0,0.0,0.0,0.0,0.0,-2.3996,-2.4499,-2.4825,-2.4722,0.0,0.0,0.0,0.0,0.0,0.0,0.0,0.0,0.0,0.0,0.0,0.0,0.0,0.0,0.0,0.0,0.0,0.0,0.0,0.0,0.0,0.0,0.0,0.0,0.0,0.0,0.0,0.0,0.0,0.0,0.0,0.0,0.0,0.0,0.0,0.0,0.0,0.0,0.0,0.0,0.0,0.0,0.0,0.0,0.0,0.0,0.0,0.0,0.0,0.0,0.0,0.0,0.0,0.0,0.0,0.0,0.0,0.0,0.0,0.0,0.0,0.0,0.0,0.0,0.0,0.0,0.0,0.0,0.0,0.0,0.0,0.0,0.0,0.0,0.0,0.0,0.0,0.0,0.0,0.0,0.0,0.0,0.0,0.0,0.0,0.0,0.0,0.0,0.0,0.0,0.0,0.0,0.0,0.0,0.0,0.0,0.0,0.0,0.0,0.0,0.0,0.0,0.0,0.0,0.0,0.0,0.0,0.0,0.0,0.0,-2.359,-2.3854,-2.4601,-2.4317,-2.3978,-2.3673,0.0,0.0,0.0,0.0,0.0,0.0,0.0,0.0,0.0,0.0,0.0,0.0,0.0,0.0,0.0,0.0,0.0,0.0,0.0,0.0,0.0,0.0,0.0,0.0,0.0,0.0,0.0,0.0,0.0,0.0,0.0,0.0,0.0,0.0,0.0,0.0,0.0,0.0,0.0,0.0,0.0,0.0,0.0,0.0,0.0,0.0,0.0,0.0,0.0,0.0,0.0,0.0,0.0,0.0,0.0,0.0,0.0,0.0,0.0,0.0,0.0,0.0,0.0,0.0,0.0,0.0,0.0,0.0,0.0,0.0,0.0,0.0,0.0,0.0,0.0,0.0,0.0,0.0,0.0,0.0,0.0,0.0,0.0,0.0,0.0,0.0,0.0,0.0,0.0,0.0,0.0,0.0,0.0,0.0,0.0,0.0,0.0,0.0,0.0,0.0,0.0,0.0,0.0,0.0,0.0,0.0,0.0,0.0,-2.5092,-2.4497,-2.4541,-2.5261,-2.3927,-2.353,0.0,0.0,0.0,0.0,0.0,0.0,0.0,0.0,0.0,0.0,0.0,0.0,0.0,0.0,0.0,0.0,0.0,0.0,0.0,0.0,0.0,0.0,0.0,0.0,0.0,0.0,0.0,0.0,0.0,0.0,0.0,0.0,0.0,0.0,0.0,0.0,0.0,0.0,0.0,0.0,0.0,0.0,0.0,0.0,0.0,0.0,0.0,0.0,0.0,0.0,0.0,0.0,0.0,0.0,0.0,0.0,0.0,0.0,0.0,0.0,0.0,0.0,0.0,0.0,0.0,0.0,0.0,0.0,0.0,0.0,0.0,0.0,0.0,0.0,0.0,0.0,0.0,0.0,0.0,0.0,0.0,0.0,0.0,0.0,0.0,0.0,0.0,0.0,0.0,0.0,0.0,0.0,0.0,0.0,0.0,0.0,0.0,0.0,0.0,0.0,0.0,0.0,0.0,0.0,0.0,0.0,0.0,0.0,0.0,-2.3676,-2.3928,-2.4189,-2.4416,-2.4034,-2.3971,0.0,0.0,0.0,0.0,0.0,0.0,0.0,0.0,0.0,0.0,0.0,0.0,0.0,0.0,0.0,0.0,0.0,0.0,0.0,0.0,0.0,0.0,0.0,0.0,0.0,0.0,0.0,0.0,0.0,0.0,0.0,0.0,0.0,0.0,0.0,0.0,0.0,0.0,0.0,0.0,0.0,0.0,0.0,0.0,0.0,0.0,0.0,0.0,0.0,0.0,0.0,0.0,0.0,0.0,0.0,0.0,0.0,0.0,0.0,0.0,0.0,0.0,0.0,0.0,0.0,0.0,0.0,0.0,0.0,0.0,0.0,0.0,0.0,0.0,0.0,0.0,0.0,0.0,0.0,0.0,0.0,0.0,0.0,0.0,0.0,0.0,0.0,0.0,0.0,0.0,0.0,0.0,0.0,0.0,0.0,0.0,0.0,0.0,0.0,0.0,0.0,0.0,0.0,0.0,0.0,0.0,0.0,0.0,0.0,-2.3544,0.0,-2.4583,-2.4306,-2.4216,-2.4051,0.0,0.0,0.0,0.0,0.0,0.0,0.0,0.0,0.0,0.0,0.0,0.0,0.0,0.0,0.0,0.0,0.0,0.0,0.0,0.0,0.0,0.0,0.0,0.0,0.0,0.0,0.0,0.0,0.0,0.0,0.0,0.0,0.0,0.0,0.0,0.0,0.0,0.0,0.0,0.0,0.0,0.0,0.0,0.0,0.0,0.0,0.0,0.0,0.0,0.0,0.0,0.0,0.0,0.0,0.0,0.0,0.0,0.0,0.0,0.0,0.0,0.0,0.0,0.0,0.0,0.0,0.0,0.0,0.0,0.0,0.0,0.0,0.0,0.0,0.0,0.0,0.0,0.0,0.0,0.0,0.0,0.0,0.0,0.0,0.0,0.0,0.0,0.0,0.0,0.0,0.0,0.0,0.0,0.0,0.0,0.0,0.0,0.0,0.0,0.0,0.0,0.0,0.0,0.0,0.0,0.0,0.0,0.0,-2.3597,-2.4975,-2.5685,-2.5656,-2.5097,-2.4441,-2.3754,0.0,0.0,0.0,0.0,0.0,0.0,0.0,0.0,0.0,0.0,0.0,0.0,0.0,0.0,0.0,0.0,0.0,0.0,0.0,0.0,0.0,0.0,0.0,0.0,0.0,0.0,0.0,0.0,0.0,0.0,0.0,0.0,0.0,0.0,0.0,0.0,0.0,0.0,0.0,0.0,0.0,0.0,0.0,0.0,0.0,0.0,0.0,0.0,0.0,0.0,0.0,0.0,0.0,0.0,0.0,0.0,0.0,0.0,0.0,0.0,0.0,0.0,0.0,0.0,0.0,0.0,0.0,0.0,0.0,0.0,0.0,0.0,0.0,0.0,0.0,0.0,0.0,0.0,0.0,0.0,0.0,0.0,0.0,0.0,0.0,0.0,0.0,0.0,0.0,0.0,0.0,0.0,0.0,0.0,0.0,0.0,0.0,0.0,0.0,0.0,0.0,0.0,0.0,0.0,0.0,0.0,0.0,0.0,0.0,-2.348,-2.4695,-2.5259,-2.5079,-2.4458,-2.4251,0.0,0.0,0.0,0.0,0.0,0.0,0.0,0.0,0.0,0.0,0.0,0.0,0.0,0.0,0.0,0.0,0.0,0.0,0.0,0.0,0.0,0.0,0.0,0.0,0.0,0.0,0.0,0.0,0.0,0.0,0.0,0.0,0.0,0.0,0.0,0.0,0.0,0.0,0.0,0.0,0.0,0.0,0.0,0.0,0.0,0.0,0.0,0.0,0.0,0.0,0.0,0.0,0.0,0.0,0.0,0.0,0.0,0.0,0.0,0.0,0.0,0.0,0.0,0.0,0.0,0.0,0.0,0.0,0.0,0.0,0.0,0.0,0.0,0.0,0.0,0.0,0.0,0.0,0.0,0.0,0.0,0.0,0.0,0.0,0.0,0.0,0.0,0.0,0.0,0.0,0.0,0.0,0.0,0.0,0.0,0.0,0.0,0.0,0.0,0.0,0.0,0.0,0.0,0.0,0.0,0.0,0.0,0.0,0.0,-2.3677,-2.5074,-2.5725,-2.549,-2.4847,-2.4634,-2.4828,0.0,0.0,0.0,0.0,0.0,0.0,0.0,0.0,0.0,0.0,0.0,0.0,0.0,0.0,0.0,0.0,0.0,0.0,0.0,0.0,0.0,0.0,0.0,0.0,0.0,0.0,0.0,0.0,0.0,0.0,0.0,0.0,0.0,0.0,0.0,0.0,0.0,0.0,0.0,0.0,0.0,0.0,0.0,0.0,0.0,0.0,0.0,0.0,0.0,0.0,0.0,0.0,0.0,0.0,0.0,0.0,0.0,0.0,0.0,0.0,0.0,0.0,0.0,0.0,0.0,0.0,0.0,0.0,0.0,0.0,0.0,0.0,0.0,0.0,0.0,0.0,0.0,0.0,0.0,0.0,0.0,0.0,0.0,0.0,0.0,0.0,0.0,0.0,0.0,0.0,0.0,0.0,0.0,0.0,0.0,0.0,0.0,0.0,0.0,0.0,0.0,0.0,0.0,0.0,0.0,0.0,0.0,0.0,-2.5074,-2.6523,-2.6902,-2.6109,-2.5513,-2.4875,0.0,0.0,0.0,0.0,0.0,0.0,0.0,0.0,0.0,0.0,0.0,0.0,0.0,0.0,0.0,0.0,0.0,0.0,0.0,0.0,0.0,0.0,0.0,0.0,0.0,0.0,0.0,0.0,0.0,0.0,0.0,0.0,0.0,0.0,0.0,0.0,0.0,0.0,0.0,0.0,0.0,0.0,0.0,0.0,0.0,0.0,0.0,0.0,0.0,0.0,0.0,0.0,0.0,0.0,0.0,0.0,0.0,0.0,0.0,0.0,0.0,0.0,0.0,0.0,0.0,0.0,0.0,0.0,0.0,0.0,0.0,0.0,0.0,0.0,0.0,0.0,0.0,0.0,0.0,0.0,0.0,0.0,0.0,0.0,0.0,0.0,0.0,0.0,0.0,0.0,0.0,0.0,0.0,0.0,0.0,0.0,0.0,0.0,0.0,0.0,0.0,0.0,0.0,0.0,0.0,0.0,0.0,0.0,0.0,-2.5833,-2.6799,-2.6933,-2.6182,-2.5559,-2.5129,0.0,0.0,0.0,0.0,0.0,0.0,0.0,0.0,0.0,0.0,0.0,0.0,0.0,0.0,0.0,0.0,0.0,0.0,0.0,0.0,0.0,0.0,0.0,0.0,0.0,0.0,0.0,0.0,0.0,0.0,0.0,0.0,0.0,0.0,0.0,0.0,0.0,0.0,0.0,0.0,0.0,0.0,0.0,0.0,0.0,0.0,0.0,0.0,0.0,0.0,0.0,0.0,0.0,0.0,0.0,0.0,0.0,0.0,0.0,0.0,0.0,0.0,0.0,0.0,0.0,0.0,0.0,0.0,0.0,0.0,0.0,0.0,0.0,0.0,0.0,0.0,0.0,0.0,0.0,0.0,0.0,0.0,0.0,0.0,0.0,0.0,0.0,0.0,0.0,0.0,0.0,0.0,0.0,0.0,0.0,0.0,0.0,0.0,0.0,0.0,0.0,0.0,0.0,0.0,0.0,0.0,0.0,0.0,-2.6178,-2.6592,-2.7057,-2.7089,-2.6697,-2.6028,-2.554,0.0,0.0,0.0,0.0,0.0,0.0,0.0,0.0,0.0,0.0,0.0,0.0,0.0,0.0,0.0,0.0,0.0,0.0,0.0,0.0,0.0,0.0,0.0,0.0,0.0,0.0,0.0,0.0,0.0,0.0,0.0,0.0,0.0,0.0,0.0,0.0,0.0,0.0,0.0,0.0,0.0,0.0,0.0,0.0,0.0,0.0,0.0,0.0,0.0,0.0,0.0,0.0,0.0,0.0,0.0,0.0,0.0,0.0,0.0,0.0,0.0,0.0,0.0,0.0,0.0,0.0,0.0,0.0,0.0,0.0,0.0,0.0,0.0,0.0,0.0,0.0,0.0,0.0,0.0,0.0,0.0,0.0,0.0,0.0,0.0,0.0,0.0,0.0,0.0,0.0,0.0,0.0,0.0,0.0,0.0,0.0,0.0,0.0,0.0,0.0,0.0,0.0,0.0,0.0,0.0,0.0,0.0,0.0,-2.7213,-2.7282,-2.7299,-2.733,-2.7359,-2.6601,-2.5906,0.0,0.0,0.0,0.0,0.0,0.0,0.0,0.0,0.0,0.0,0.0,0.0,0.0,0.0,0.0,0.0,0.0,0.0,0.0,0.0,0.0,0.0,0.0,0.0,0.0,0.0,0.0,0.0,0.0,0.0,0.0,0.0,0.0,0.0,0.0,0.0,0.0,0.0,0.0,0.0,0.0,0.0,0.0,0.0,0.0,0.0,0.0,0.0,0.0,0.0,0.0,0.0,0.0,0.0,0.0,0.0,0.0,0.0,0.0,0.0,0.0,0.0,0.0,0.0,0.0,0.0,0.0,0.0,0.0,0.0,0.0,0.0,0.0,0.0,0.0,0.0,0.0,0.0,0.0,0.0,0.0,0.0,0.0,0.0,0.0,0.0,0.0,0.0,0.0,0.0,0.0,0.0,0.0,0.0,0.0,0.0,0.0,0.0,0.0,0.0,0.0,0.0,0.0,0.0,0.0,0.0,0.0,0.0,-2.6661,-2.7282,-2.7299,-2.733,-2.7407,-2.6132,-2.5411,0.0,0.0,0.0,0.0,0.0,0.0,0.0,0.0,0.0,0.0,0.0,0.0,0.0,0.0,0.0,0.0,0.0,0.0,0.0,0.0,0.0,0.0,0.0,0.0,0.0,0.0,0.0,0.0,0.0,0.0,0.0,0.0,0.0,0.0,0.0,0.0,0.0,0.0,0.0,0.0,0.0,0.0,0.0,0.0,0.0,0.0,0.0,0.0,-2.7592,0.0,0.0,0.0,0.0,0.0,0.0,0.0,0.0,0.0,0.0,0.0,0.0,0.0,0.0,0.0,0.0,0.0,0.0,0.0,0.0,0.0,0.0,0.0,0.0,0.0,0.0,0.0,0.0,0.0,0.0,0.0,0.0,0.0,0.0,0.0,0.0,0.0,0.0,0.0,0.0,0.0,0.0,0.0,0.0,0.0,0.0,0.0,0.0,0.0,0.0,0.0,0.0,0.0,0.0,0.0,0.0,0.0,0.0,0.0,-2.7023,-2.7829,-2.7535,-2.7407,-2.7448,-2.6411,-2.5677,0.0,0.0,0.0,0.0,0.0,0.0,0.0,0.0,0.0,0.0,0.0,0.0,0.0,0.0,0.0,0.0,0.0,0.0,0.0,0.0,0.0,0.0,0.0,0.0,0.0,0.0,0.0,0.0,0.0,0.0,0.0,0.0,0.0,0.0,0.0,0.0,0.0,0.0,0.0,0.0,0.0,0.0,0.0,0.0,0.0,0.0,0.0,0.0,0.0,0.0,0.0,0.0,0.0,0.0,0.0,0.0,0.0,0.0,0.0,0.0,0.0,0.0,0.0,0.0,0.0,0.0,0.0,0.0,0.0,0.0,0.0,0.0,0.0,0.0,0.0,0.0,0.0,0.0,0.0,0.0,0.0,0.0,0.0,0.0,0.0,0.0,0.0,0.0,0.0,0.0,0.0,0.0,0.0,0.0,0.0,0.0,0.0,0.0,0.0,0.0,0.0,0.0,0.0,0.0,0.0,0.0,0.0,-2.7006,-2.7693,-2.8432,-2.7757,-2.7452,-2.7569,-2.6988,-2.6374,-2.572,0.0,0.0,0.0,0.0,0.0,0.0,0.0,0.0,0.0,0.0,0.0,0.0,0.0,0.0,0.0,0.0,0.0,0.0,0.0,0.0,0.0,0.0,0.0,0.0,0.0,0.0,0.0,0.0,0.0,0.0,0.0,0.0,0.0,0.0,0.0,0.0,0.0,0.0,-2.4856,-2.5902,0.0,0.0,0.0,0.0,0.0,0.0,0.0,0.0,-2.8687,0.0,0.0,0.0,0.0,0.0,0.0,0.0,0.0,0.0,0.0,0.0,0.0,0.0,0.0,0.0,0.0,0.0,0.0,0.0,0.0,0.0,0.0,0.0,0.0,0.0,0.0,0.0,0.0,0.0,0.0,0.0,0.0,0.0,0.0,0.0,0.0,0.0,0.0,0.0,0.0,0.0,0.0,0.0,0.0,0.0,0.0,0.0,0.0,0.0,0.0,0.0,0.0,0.0,0.0,0.0,0.0,-2.7989,-2.7523,-2.7676,-2.8449,-2.7774,-2.7452,-2.7587,-2.7537,-2.7214,-2.6578,0.0,0.0,0.0,0.0,0.0,0.0,0.0,0.0,0.0,0.0,0.0,0.0,0.0,0.0,0.0,0.0,0.0,0.0,0.0,0.0,0.0,0.0,0.0,0.0,0.0,0.0,0.0,0.0,0.0,0.0,0.0,0.0,0.0,0.0,0.0,0.0,0.0,0.0,0.0,-2.7196,-2.7664,0.0,0.0,0.0,0.0,0.0,0.0,0.0,0.0,-2.8745,0.0,0.0,0.0,0.0,0.0,0.0,0.0,0.0,0.0,0.0,0.0,0.0,0.0,0.0,0.0,0.0,0.0,0.0,0.0,0.0,0.0,0.0,0.0,0.0,0.0,0.0,0.0,0.0,0.0,0.0,0.0,0.0,0.0,0.0,0.0,0.0,0.0,0.0,0.0,0.0,0.0,0.0,0.0,0.0,0.0,0.0,0.0,0.0,0.0,0.0,0.0,0.0,0.0,0.0,0.0,-2.833,-2.809,-2.8295,-2.9103,-2.8442,-2.8119,-2.8315,-2.7976,-2.7723,0.0,0.0,0.0,0.0,0.0,0.0,0.0,0.0,0.0,0.0,0.0,0.0,0.0,0.0,0.0,0.0,0.0,0.0,0.0,0.0,0.0,0.0,0.0,0.0,0.0,0.0,0.0,0.0,0.0,0.0,0.0,0.0,0.0,0.0,0.0,0.0,0.0,0.0,0.0,0.0,-2.7362,-2.7583,-2.821,0.0,0.0,0.0,0.0,0.0,0.0,-2.8739,-2.9143,0.0,0.0,0.0,0.0,0.0,0.0,0.0,0.0,0.0,0.0,0.0,0.0,0.0,0.0,0.0,0.0,0.0,0.0,0.0,0.0,0.0,0.0,0.0,0.0,0.0,0.0,0.0,0.0,0.0,0.0,0.0,0.0,0.0,0.0,0.0,0.0,0.0,0.0,0.0,0.0,0.0,0.0,0.0,0.0,0.0,0.0,0.0,0.0,0.0,0.0,0.0,0.0,0.0,0.0,0.0,-2.8447,-2.8345,-2.8774,-2.9739,-2.9059,-2.8767,-2.9011,-2.8447,-2.8191,0.0,0.0,0.0,0.0,0.0,0.0,0.0,0.0,0.0,0.0,0.0,0.0,0.0,0.0,0.0,0.0,0.0,0.0,0.0,0.0,0.0,0.0,0.0,0.0,0.0,0.0,0.0,0.0,0.0,0.0,0.0,0.0,0.0,0.0,0.0,0.0,0.0,0.0,0.0,0.0,0.0,-2.7727,-2.8138,-2.8352,0.0,0.0,0.0,0.0,-2.8568,-2.914,0.0,0.0,0.0,0.0,0.0,0.0,0.0,0.0,0.0,0.0,0.0,0.0,0.0,0.0,0.0,0.0,0.0,0.0,0.0,0.0,0.0,0.0,0.0,0.0,0.0,0.0,0.0,0.0,0.0,0.0,0.0,0.0,0.0,0.0,0.0,0.0,0.0,0.0,0.0,0.0,0.0,0.0,0.0,0.0,0.0,0.0,0.0,0.0,0.0,0.0,0.0,0.0,0.0,0.0,0.0,0.0,-2.8491,-2.7997,-2.8456,-2.9849,-2.925,-2.8938,-2.9089,-2.9124,-2.8838,0.0,0.0,0.0,0.0,0.0,0.0,0.0,0.0,0.0,0.0,0.0,0.0,0.0,0.0,0.0,0.0,0.0,0.0,0.0,0.0,0.0,0.0,0.0,0.0,0.0,0.0,0.0,0.0,0.0,0.0,0.0,0.0,0.0,0.0,0.0,0.0,0.0,0.0,0.0,0.0,0.0,-2.8905,-2.8298,-2.8816,-2.9002,0.0,0.0,-2.9189,-2.9129,-2.9769,0.0,0.0,0.0,0.0,0.0,0.0,0.0,0.0,0.0,0.0,0.0,0.0,0.0,0.0,0.0,0.0,0.0,0.0,0.0,0.0,0.0,0.0,0.0,0.0,0.0,0.0,0.0,0.0,0.0,0.0,0.0,0.0,0.0,0.0,0.0,0.0,0.0,0.0,0.0,0.0,0.0,0.0,0.0,0.0,0.0,0.0,0.0,0.0,0.0,0.0,0.0,0.0,0.0,0.0,0.0,-2.815,-2.8736,-2.8903,-2.9109,-2.9417,-2.9132,-2.9017,-2.9195,-2.8856,-2.878,0.0,0.0,0.0,0.0,0.0,0.0,0.0,0.0,0.0,0.0,0.0,0.0,0.0,0.0,0.0,0.0,0.0,0.0,0.0,0.0,0.0,0.0,0.0,0.0,0.0,0.0,0.0,0.0,0.0,0.0,0.0,0.0,0.0,0.0,0.0,0.0,0.0,0.0,0.0,0.0,0.0,0.0,-2.8763,-2.9012,0.0,0.0,0.0,-2.9852,-2.9864,0.0,0.0,0.0,0.0,0.0,0.0,0.0,0.0,0.0,0.0,0.0,0.0,0.0,0.0,0.0,0.0,0.0,0.0,0.0,0.0,0.0,0.0,0.0,0.0,0.0,0.0,0.0,0.0,0.0,0.0,0.0,0.0,0.0,0.0,0.0,0.0,0.0,0.0,0.0,0.0,0.0,0.0,0.0,0.0,0.0,0.0,0.0,0.0,0.0,0.0,0.0,0.0,0.0,0.0,0.0,0.0,0.0,-2.8692,-2.9233,-2.9387,-2.9064,-2.9094,-2.9154,-2.9329,-2.8834,0.0,0.0,0.0,0.0,0.0,0.0,0.0,0.0,0.0,0.0,0.0,0.0,0.0,0.0,0.0,0.0,0.0,0.0,0.0,0.0,0.0,0.0,0.0,0.0,0.0,0.0,0.0,-2.7169,0.0,0.0,0.0,0.0,0.0,0.0,0.0,0.0,0.0,0.0,0.0,0.0,0.0,0.0,-2.9561,-2.9172,-2.9455,-2.965,0.0,0.0,-3.0499,-3.0353,-3.1053,-3.1364,0.0,0.0,0.0,0.0,0.0,0.0,0.0,0.0,0.0,0.0,0.0,0.0,0.0,0.0,0.0,0.0,0.0,0.0,0.0,0.0,0.0,0.0,0.0,0.0,0.0,0.0,0.0,0.0,0.0,0.0,0.0,0.0,0.0,0.0,0.0,0.0,0.0,0.0,0.0,0.0,0.0,0.0,0.0,0.0,0.0,0.0,0.0,0.0,0.0,0.0,0.0,0.0,0.0,0.0,-2.8131,-2.8057,-2.8167,-2.8585,-2.9254,-2.9272,-2.9329,-2.9482,-2.9446,-2.917,0.0,0.0,0.0,0.0,0.0,0.0,0.0,0.0,0.0,0.0,0.0,0.0,0.0,0.0,0.0,0.0,0.0,0.0,0.0,0.0,0.0,0.0,0.0,0.0,0.0,0.0,0.0,0.0,0.0,0.0,0.0,0.0,0.0,0.0,0.0,0.0,0.0,0.0,0.0,0.0,0.0,-3.08,-2.9313,-3.0393,-3.1052,0.0,-3.0762,-3.1009,-3.0353,-3.0963,-3.1257,-3.0551,0.0,0.0,0.0,0.0,0.0,0.0,0.0,0.0,0.0,0.0,0.0,0.0,0.0,0.0,0.0,0.0,0.0,0.0,0.0,0.0,0.0,0.0,0.0,0.0,0.0,0.0,0.0,0.0,0.0,0.0,0.0,0.0,0.0,0.0,0.0,0.0,0.0,0.0,0.0,0.0,0.0,0.0,0.0,0.0,0.0,0.0,0.0,0.0,0.0,0.0,0.0,0.0,0.0,-2.8827,-2.8798,-2.8895,-2.914,-2.9446,-2.9016,-2.8748,-2.882,-2.89,-2.8835,0.0,0.0,0.0,0.0,0.0,0.0,0.0,0.0,0.0,0.0,0.0,0.0,0.0,0.0,0.0,0.0,0.0,0.0,0.0,0.0,0.0,0.0,0.0,0.0,0.0,0.0,0.0,0.0,-2.8929,-2.881,-2.8562,0.0,0.0,0.0,0.0,0.0,0.0,0.0,0.0,0.0,0.0,-3.1246,-3.0561,-3.1052,0.0,0.0,-3.1182,-3.1529,-3.1753,-3.2069,-3.2062,-3.1306,-3.1492,0.0,0.0,0.0,0.0,0.0,0.0,0.0,0.0,0.0,0.0,0.0,0.0,0.0,0.0,0.0,0.0,0.0,0.0,0.0,0.0,0.0,0.0,0.0,0.0,0.0,0.0,0.0,0.0,0.0,0.0,0.0,0.0,0.0,0.0,0.0,0.0,0.0,0.0,0.0,0.0,0.0,0.0,0.0,0.0,0.0,0.0,0.0,0.0,0.0,0.0,0.0,0.0,-2.9387,-2.9358,-2.9472,-2.9547,-2.9602,-2.8802,-2.8406,-2.8476,-2.8536,-2.8637,0.0,0.0,0.0,0.0,0.0,0.0,0.0,0.0,0.0,0.0,0.0,0.0,0.0,0.0,0.0,0.0,0.0,0.0,0.0,0.0,0.0,0.0,0.0,0.0,0.0,0.0,0.0,0.0,-2.9004,-2.8974,-2.8766,0.0,0.0,0.0,0.0,0.0,0.0,0.0,0.0,0.0,0.0,-3.1706,-3.1426,-3.1635,-3.1794,-3.1709,-3.1777,-3.1983,-3.2382,-3.2645,-3.257,-3.1862,0.0,0.0,0.0,0.0,0.0,0.0,0.0,0.0,0.0,0.0,0.0,0.0,0.0,0.0,0.0,0.0,0.0,0.0,0.0,0.0,0.0,0.0,0.0,0.0,0.0,0.0,0.0,-2.5074,0.0,0.0,-2.6143,0.0,0.0,0.0,0.0,0.0,0.0,0.0,0.0,0.0,0.0,0.0,0.0,0.0,0.0,0.0,0.0,0.0,0.0,0.0,0.0,0.0,0.0,-2.9565,-2.95,-2.9583,-2.9602,-2.9602,-2.882,-2.8476,-2.8587,-2.8587,-2.8687,-2.8887,0.0,0.0,0.0,0.0,0.0,0.0,0.0,0.0,0.0,0.0,0.0,0.0,0.0,0.0,0.0,0.0,0.0,0.0,0.0,0.0,0.0,0.0,0.0,0.0,0.0,0.0,-2.8883,-2.9344,-2.9656,0.0,0.0,0.0,0.0,0.0,0.0,0.0,0.0,0.0,-3.0335,-3.1597,-3.2323,-3.165,-3.2128,-3.2588,-3.2606,-3.2606,-3.2391,-3.1831,-3.2328,-3.257,0.0,0.0,0.0,0.0,0.0,0.0,0.0,0.0,0.0,0.0,0.0,0.0,0.0,0.0,0.0,0.0,0.0,0.0,0.0,0.0,0.0,0.0,0.0,0.0,0.0,0.0,0.0,-2.7489,-2.7282,0.0,0.0,0.0,0.0,0.0,0.0,0.0,0.0,0.0,0.0,0.0,-2.9005,-2.9483,0.0,0.0,0.0,0.0,0.0,0.0,0.0,0.0,0.0,0.0,0.0,0.0,-2.9789,-3.033,-2.9917,-2.9981,-3.0568,-2.9282,-2.8637,-2.8737,-2.8785,-2.8881,-2.9021,0.0,0.0,0.0,0.0,0.0,0.0,0.0,0.0,0.0,0.0,0.0,0.0,0.0,0.0,0.0,0.0,0.0,0.0,0.0,0.0,0.0,0.0,0.0,0.0,0.0,-3.025,0.0,0.0,0.0,0.0,0.0,0.0,0.0,0.0,0.0,0.0,0.0,-3.1235,-3.1253,-3.2143,-3.2876,-3.3077,-3.3377,-3.3766,0.0,0.0,0.0,0.0,0.0,0.0,0.0,0.0,0.0,0.0,0.0,0.0,0.0,0.0,-3.5584,-3.352,-3.2997,-3.2745,-3.2397,0.0,0.0,0.0,0.0,0.0,0.0,0.0,0.0,0.0,0.0,0.0,0.0,0.0,0.0,-2.8403,0.0,-2.8142,0.0,0.0,0.0,0.0,0.0,0.0,0.0,0.0,-3.0632,-3.0761,-3.0024,-3.0499,-3.0194,0.0,-3.0006,-2.9904,0.0,0.0,0.0,0.0,0.0,0.0,0.0,0.0,-3.0756,-3.1263,-3.0595,-3.0531,-3.1046,-2.9573,-2.8761,-2.8834,-2.8905,-2.9145,-2.954,-2.9584,-3.0017,0.0,0.0,0.0,0.0,0.0,0.0,0.0,0.0,0.0,0.0,0.0,0.0,0.0,0.0,0.0,0.0,0.0,0.0,0.0,0.0,0.0,0.0,0.0,-3.0675,0.0,0.0,0.0,0.0,0.0,0.0,0.0,0.0,0.0,-3.1332,-3.1528,-3.1992,-3.2813,-3.2902,-3.3259,-3.4211,0.0,0.0,0.0,0.0,0.0,0.0,0.0,-3.5139,-3.5519,-3.5325,-3.5285,-3.5566,-3.6519,-3.7094,-3.6762,0.0,0.0,-3.4803,-3.4111,-3.381,-3.3671,-3.3485,-3.3334,-3.3238,-3.2595,-3.2025,0.0,0.0,0.0,0.0,0.0,0.0,0.0,0.0,-2.8523,-2.8537,0.0,-2.7858,0.0,0.0,0.0,0.0,0.0,-3.125,0.0,0.0,-3.1369,-3.1657,-3.0805,-3.089,-3.0882,-3.0854,-3.1469,-3.1492,-3.0903,-2.9375,0.0,0.0,0.0,0.0,0.0,0.0,-3.2274,-3.2283,-3.1528,-3.1198,-3.118,-2.963,-2.8834,-2.8887,-2.8952,-2.9412,-3.0323,-3.0364,-3.0835,-3.1782,-3.1819,0.0,0.0,0.0,0.0,0.0,0.0,0.0,0.0,0.0,0.0,0.0,0.0,0.0,0.0,0.0,0.0,0.0,0.0,0.0,0.0,-3.1583,0.0,0.0,0.0,0.0,0.0,0.0,0.0,0.0,0.0,0.0,-3.3059,-3.2362,-3.2634,-3.4865,0.0,0.0,0.0,0.0,-3.4454,-3.5204,-3.5293,-3.5345,-3.55,-3.6091,-3.6393,-3.589,0.0,0.0,-3.6108,-3.7105,-3.7579,-3.6346,-3.6734,-3.7176,-3.7089,-3.5751,-3.4743,-3.4582,-3.4,-3.3546,-3.3455,-3.2832,-3.2238,-3.1418,0.0,0.0,0.0,0.0,-3.092,-3.0766,-3.0854,-3.0335,-2.9866,-2.9412,-2.9221,0.0,0.0,0.0,0.0,0.0,0.0,-3.1128,-3.1423,-3.256,-3.2672,-3.1955,-3.2528,-3.2201,-3.1137,-3.1865,-3.1856,-3.1154,-3.0654,-3.0436,-3.0472,0.0,0.0,0.0,0.0,-3.2356,-3.232,-3.1618,-3.1224,-3.1276,-2.9704,-2.8905,-2.8952,-2.8994,-2.943,-3.0296,-3.0378,-3.1071,-3.2493,-3.2614,0.0,0.0,0.0,0.0,0.0,0.0,0.0,0.0,0.0,0.0,0.0,0.0,0.0,0.0,0.0,0.0,0.0,0.0,0.0,-3.2337,-3.2027,-3.16,0.0,0.0,0.0,0.0,0.0,0.0,0.0,0.0,0.0,-3.5513,-3.4771,-3.4454,0.0,0.0,-3.4918,-3.5917,-3.5969,-3.6164,-3.688,-3.7058,0.0,-3.7248,-3.6944,-3.6922,-3.7416,-3.7718,-3.7838,-3.7713,-3.8027,-3.8172,-3.7807,-3.7953,-3.8118,-3.7972,-3.6298,-3.4699,-3.4051,-3.3723,-3.3577,-3.3559,-3.3291,-3.3107,-3.18,-3.18,-3.18,-3.18,-3.1783,-3.1627,-3.1545,-3.1461,-3.1305,-3.0872,-3.0279,-2.9998,-2.9994,-3.0328,-3.0423,0.0,0.0,0.0,-3.2169,-3.2148,-3.3408,-3.3603,-3.2903,-3.3396,-3.315,-3.2255,-3.2675,-3.2657,-3.22,-3.2182,-3.22,-3.2182,0.0,0.0,-3.1743,-3.251,-3.2931,-3.2903,-3.2153,-3.1631,-3.1334,-2.9752,-2.9099,-2.9457,-2.9499,-3.0079,-3.1236,-3.1362,-3.2019,-3.3351,-3.3449,-3.3696,0.0,0.0,0.0,0.0,0.0,0.0,0.0,0.0,0.0,0.0,0.0,-3.4049,-3.3972,0.0,0.0,0.0,-3.3643,-3.3338,-3.2734,-3.2687,0.0,0.0,0.0,0.0,0.0,0.0,0.0,-3.5551,-3.5789,-3.6134,-3.6622,-3.6448,-3.6272,-3.6272,-3.5449,-3.5252,-3.6361,0.0,-3.6412,-3.7183,-3.7648,-3.7934,-3.8,-3.7621,-3.7561,-3.8165,-3.8322,-3.8368,-3.8415,-3.8446,-3.8478,-3.8541,-3.8578,-3.8499,-3.8169,-3.6637,-3.5243,-3.4684,-3.4081,-3.3661,-3.3633,-3.3577,-3.3621,-3.1958,-3.2046,-3.2063,-3.194,-3.1869,-3.2562,-3.2135,-3.0976,-3.1671,-3.169,-3.1215,-3.048,-3.1085,-3.271,-3.3005,0.0,-3.2373,-3.3906,-3.3773,-3.2394,-3.4058,-3.4407,-3.3629,-3.3734,-3.379,-3.379,-3.3863,-3.3826,-3.3698,-3.3735,-3.3771,-3.368,-3.2967,-3.2602,-3.2664,-3.3332,-3.3753,-3.377,-3.3018,-3.221,-3.1403,-2.9971,-2.9549,-3.0265,-3.0354,-3.1162,-3.2687,-3.2871,-3.329,-3.416,-3.4197,-3.4197,-3.4197,0.0,0.0,0.0,0.0,0.0,0.0,0.0,0.0,0.0,0.0,0.0,0.0,0.0,0.0,0.0,-3.3632,0.0,-3.3592,-3.3592,0.0,0.0,0.0,-3.3991,-3.4715,-3.4787,-3.5095,-3.5796,0.0,0.0,-3.6836,-3.7484,-3.7934,-3.7934,-3.5993,-3.5148,-3.6586,-3.6227,-3.5957,-3.6802,-3.7484,-3.7985,-3.8101,-3.8099,-3.8147,-3.8382,-3.8396,-3.8415,-3.851,-3.851,-3.8559,-3.8658,-3.8707,-3.8505,-3.7746,-3.6956,-3.6285,-3.6098,-3.4806,-3.3726,-3.3726,-3.3671,-3.3826,-3.331,-3.4018,-3.4091,-3.319,-3.1871,-3.2388,-3.2336,-3.2004,-3.2348,-3.2482,-3.2453,-3.2275,-3.2816,-3.3838,-3.4002,-3.438,-3.4901,-3.4691,-3.4473,-3.4272,-3.4676,-3.4796,-3.4641,-3.4669,-3.4715,-3.4724,-3.5357,-3.5009,-3.3853,-3.4403,-3.4385,-3.3835,-3.4174,-3.4064,-3.3505,-3.3688,-3.378,-3.3807,-3.3018,-3.221,-3.1446,-3.1066,-3.1022,-3.1188,-3.1254,-3.1787,-3.2834,-3.2895,-3.3314,-3.4213,-3.4221,-3.4203,-3.4269,-3.4221,0.0,0.0,0.0,0.0,0.0,0.0,0.0,0.0,0.0,-3.3998,-3.3895,0.0,-3.3834,0.0,-3.4124,-3.4661,-3.5186,-3.524,0.0,0.0,-3.5765,-3.62,-3.6417,-3.6942,-3.7377,-3.7594,-3.7724,-3.7851,-3.7817,-3.7998,-3.8124,-3.8088,-3.7517,-3.718,-3.7575,-3.7569,-3.7546,-3.7708,-3.8041,-3.8303,-3.8318,-3.8318,-3.835,-3.8478,-3.8478,-3.8528,-3.864,-3.8658,-3.8658,-3.8707,-3.8707,-3.8676,-3.8593,-3.745,-3.6583,-3.6416,-3.5063,-3.3807,-3.3895,-3.3868,-3.3915,-3.4212,-3.4727,-3.4871,-3.427,-3.3263,-3.3829,-3.3916,-3.3615,-3.4157,-3.4237,-3.4064,-3.4082,-3.4132,-3.4317,-3.4776,-3.4888,-3.4733,-3.5042,-3.4877,-3.4345,-3.506,-3.5235,-3.4906,-3.4934,-3.4944,-3.4981,-3.5467,-3.521,-3.4358,-3.5137,-3.5302,-3.4834,-3.532,-3.5367,-3.4926,-3.4908,-3.4908,-3.4908,-3.376,-3.2794,-3.2004,-3.1691,-3.1697,-3.2066,-3.2157,-3.2575,-3.3395,-3.3438,-3.3709,-3.4227,-3.4203,-3.4221,-3.4245,-3.4245,-3.4221,0.0,0.0,0.0,0.0,0.0,0.0,0.0,0.0,0.0,0.0,0.0,-3.4486,-3.4694,-3.5023,-3.5387,-3.5765,-3.5802,-3.5802,-3.5802,-3.62,-3.6598,-3.6993,-3.7406,-3.7805,-3.8138,-3.8192,-3.8192,-3.8192,-3.8192,-3.8192,-3.8192,-3.814,-3.7928,-3.7602,-3.7612,-3.766,-3.7693,-3.8081,-3.8415,-3.8446,-3.8496,-3.8546,-3.8578,-3.8621,-3.8652,-3.8732,-3.884,-3.8862,-3.8862,-3.8939,-3.9007,-3.8971,-3.7765,-3.6697,-3.6482,-3.5247,-3.4153,-3.4074,-3.4049,-3.4104,-3.4993,-3.5172,-3.5403,-3.5455,-3.5439,-3.6096,-3.5936,-3.5287,-3.6055,-3.6049,-3.5584,-3.5674,-3.5309,-3.4702,-3.553,-3.5199,-3.4062,-3.549,-3.5356,-3.3985,-3.5415,-3.5645,-3.4867,-3.5107,-3.5172,-3.5099,-3.531,-3.531,-3.5117,-3.5999,-3.6347,-3.6161,-3.6347,-3.645,-3.645,-3.6541,-3.6505,-3.6313,-3.4935,-3.3902,-3.3176,-3.2484,-3.2416,-3.3099,-3.3093,-3.3401,-3.4087,-3.4173,-3.4197,-3.4221,-3.4221,-3.4221,-3.4221,-3.4269,-3.4293,0.0,-3.4269,0.0,0.0,0.0,0.0,0.0,0.0,0.0,0.0,-3.4734,-3.5428,-3.6115,-3.6097,-3.6059,-3.6109,-3.6109,-3.6109,-3.6109,-3.6109,-3.6399,-3.7033,-3.7166,-3.7421,-3.8135,-3.8192,-3.8192,-3.8225,-3.8225,-3.8225,-3.8241,-3.8274,-3.8071,-3.7467,-3.7358,-3.7426,-3.7361,-3.7958,-3.8478,-3.8528,-3.8627,-3.8707,-3.8707,-3.8762,-3.8803,-3.8822,-3.896,-3.9101,-3.9101,-3.9165,-3.9245,-3.9298,-3.794,-3.687,-3.682,-3.5472,-3.4306,-3.4245,-3.4221,-3.4463,-3.6344,-3.7184,-3.7327,-3.7413,-3.7533,-3.7781,-3.6955,-3.5472,-3.5892,-3.5999,-3.597,-3.6638,-3.6504,-3.5878,-3.6753,-3.7003,-3.6758,-3.7081,-3.6696,-3.5787,-3.6109,-3.5797,-3.5054,-3.6241,-3.6564,-3.6127,-3.7259,-3.7234,-3.6064,-3.6853,-3.6927,-3.6274,-3.6945,-3.7257,-3.7323,0.0,0.0,0.0,-3.6122,-3.5937,-3.5752,-3.5073,-3.4747,-3.4895,-3.4278,0.0,-3.4154,-3.4179,-3.4221,-3.4269,-3.4269,0.0,0.0,0.0,0.0,0.0,0.0,0.0,0.0,0.0,0.0,0.0,-3.5532,-3.5084,-3.5069,-3.5653,-3.6318,-3.6979,-3.6947,-3.7144,-3.7747,-3.7772,-3.7739,-3.7739,-3.7721,-3.7794,-3.7957,-3.7972,-3.8044,-3.8156,-3.8192,-3.8207,-3.8274,-3.8274,-3.8289,-3.8336,-3.8368,-3.8346,-3.8227,-3.8172,-3.8209,-3.8277,-3.8468,-3.8627,-3.8658,-3.8658,-3.8707,-3.8707,-3.881,-3.8881,-3.891,-3.8989,-3.9101,-3.9129,-3.9129,-3.921,-3.9261,-3.7997,-3.6948,-3.708,-3.581,-3.4623,-3.4427,-3.4363,-3.4442,-3.7238,0.0,-3.7916,-3.8002,0.0,-3.8271,-3.7798,-3.6939,-3.713,-3.7272,-3.7357,-3.7809,-3.7546,-3.6831,-3.7716,-3.7643,-3.6927,-3.7342,-3.7055,-3.6321,-3.6688,-3.6652,-3.6248,-3.7044,-3.7228,-3.6909,-3.7668,-3.7631,-3.6964,-3.7698,-3.7679,-3.689,-3.7305,-3.7323,-3.6967,-3.7411,-3.7237,-3.6417,-3.6482,-3.6112,-3.5325,-3.4976,-3.4797,-3.4779,-3.442,0.0,0.0,0.0,0.0,0.0,0.0,0.0,0.0,-3.4409,0.0,-3.4293,-3.434,-3.4684,-3.5411,-3.5089,-3.5367,-3.6593,-3.666,-3.6607,-3.65,-3.6805,-3.7261,-3.7912,-3.7911,-3.8013,-3.83,-3.8289,-3.8241,-3.8241,-3.8225,-3.8192,-3.8192,-3.8192,-3.8225,-3.8259,-3.8238,-3.8285,-3.8354,-3.8336,-3.8368,-3.8382,-3.8446,-3.8478,-3.851,-3.851,-3.851,-3.859,-3.867,-3.8768,-3.8689,-3.8719,-3.878,-3.881,-3.8881,-3.895,-3.9036,-3.921,-3.935,-3.935,-3.9446,-3.9526,-3.9443,-3.8282,-3.7175,-3.7106,-3.5958,-3.4824,-3.4604,-3.458,-3.458,-3.781,-3.7916,-3.7949,-3.807,-3.8207,-3.8354,-3.8433,-3.8465,0.0,0.0,0.0,-3.8456,-3.8028,-3.7379,-3.8138,-3.7698,-3.6376,-3.7158,-3.7055,-3.634,-3.6964,-3.7276,-3.7305,-3.7404,-3.7477,-3.7496,-3.7624,-3.7698,-3.7764,-3.8407,-3.8389,-3.7783,-3.7728,-3.7456,-3.6887,-3.698,-3.6888,-3.6676,-3.6583,-3.5954,-3.4809,-3.4563,-3.4439,-3.442,-3.4296,-3.4221,-3.4221,-3.4221,-3.4269,-3.4316,-3.434,-3.434,-3.4386,-3.4454,-3.4473,-3.434,-3.4386,-3.4755,-3.5448,-3.5374,-3.569,-3.6612,-3.7559,-3.8062,-3.7941,-3.7941,-3.8132,-3.8664,-3.8719,-3.8658,-3.8446,-3.8387,-3.8322,-3.8322,-3.8256,-3.8241,-3.8241,-3.8244,-3.8277,-3.8289,-3.8314,-3.8323,-3.8396,-3.8415,-3.8433,-3.8465,-3.8528,-3.8541,-3.8541,-3.8559,-3.8559,-3.8676,-3.8719,-3.8732,-3.875,-3.878,-3.8833,-3.8892,-3.9007,-3.9101,-3.9237,-3.9471,-3.9618,-3.9618,-3.9777,-3.9747,-3.9583,-3.8367,-3.7364,-3.7215,-3.5945,-3.4829,-3.4829,-3.4788,-3.4768,-3.781,-3.7984,-3.7984,-3.8104,-3.8307,-3.8368,-3.8515,-3.8658,-3.8559,-3.8206,-3.7661,-3.7534,-3.7143,-3.6505,-3.7294,-3.7165,-3.6358,-3.711,-3.7055,-3.6321,-3.6413,-3.645,-3.6505,-3.704,-3.7399,-3.7533,-3.8077,-3.8425,-3.8542,-3.8676,-3.8676,-3.8554,-3.8656,-3.8604,-3.8549,-3.8559,-3.8256,-3.76,-3.6978,-3.6883,-3.7336,-3.6017,-3.5312,-3.5299,-3.466,-3.4293,-3.4311,-3.434,-3.4381,-3.4404,-3.445,-3.445,-3.4386,-3.4517,-3.4517,-3.4386,-3.445,-3.4801,-3.5504,-3.4907,-3.5107,-3.6593,-3.8079,-3.8925,-3.8812,-3.8812,-3.881,-3.8792,-3.8773,-3.8713,-3.8491,-3.8478,-3.8446,-3.8401,-3.835,-3.8368,-3.8368,-3.838,-3.8365,-3.8387,-3.8387,-3.8413,-3.8491,-3.851,-3.8541,-3.8609,-3.8658,-3.867,-3.8732,-3.8719,-3.8689,-3.8707,-3.8707,-3.8719,-3.881,-3.8851,-3.8939,-3.895,-3.9183,-3.9343,-3.9376,-3.9545,-3.9689,-3.9689,-3.9754,-3.9494,-3.8908,-3.7986,-3.7156,-3.6553,-3.555,-3.4908,-3.4908,-3.4889,-3.4869,-3.7863,-3.7984,-3.8088,-3.7902,-3.7588,-3.7667,-3.7794,-3.7973,-3.8295,-3.8327,-3.8157,-3.8108,-3.7906,-3.7643,-3.7991,-3.7955,-3.7624,-3.7973,-3.7955,-3.7588,-3.7147,-3.6945,-3.6982,-3.7283,-3.7448,-3.7533,-3.8255,-3.8658,-3.8707,-3.8719,-3.8529,-3.8118,-3.7792,-3.7655,-3.7637,-3.7692,-3.7757,-3.7839,-3.7487,-3.7264,-3.7225,-3.6092,-3.5479,-3.5479,-3.4716,-3.4293,-3.4293,-3.4381,-3.4427,-3.4431,-3.4495,-3.4495,-3.4517,-3.4539,-3.4495,-3.4409,-3.4386,-3.4731,-3.5492,-3.5585,-3.5894,-3.6649,-3.7373,-3.8005,-3.8377,-3.8804,-3.9007,-3.8921,-3.891,-3.8862,-3.8743,-3.8664,-3.8634,-3.8621,-3.851,-3.8446,-3.8446,-3.8405,-3.8423,-3.8446,-3.8524,-3.8566,-3.8664,-3.8713,-3.8743,-3.881,-3.8792,-3.8822,-3.8851,-3.8892,-3.8862,-3.8822,-3.891,-3.895,-3.8979,-3.9073,-3.9183,-3.9245,-3.9376,-3.9477,-3.9526,-3.9689,-3.9754,-3.9758,-3.9804,-3.9526,-3.8828,-3.7976,-3.7163,-3.6349,-3.5553,-3.5059,-3.5001,-3.5001,-3.4983,-3.7985,-3.8052,-3.8174,-3.7845,-3.7297,-3.7162,-3.7275,-3.7601,-3.799,-3.8332,-3.864,-3.8658,-3.8676,-3.8707,-3.8707,-3.8615,-3.8469,-3.8615,-3.8579,-3.8377,-3.7771,-3.7617,-3.7679,-3.7452,-3.7404,-3.7783,-3.8212,-3.8524,-3.8701,-3.8719,-3.8497,-3.794,-3.7405,-3.7163,-3.7172,-3.7217,-3.7541,-3.8135,-3.8136,-3.7728,-3.6983,-3.5999,-3.5479,-3.5442,-3.4716,-3.4335,-3.4316,-3.4404,-3.4473,-3.4517,-3.4517,-3.4539,-3.458,-3.4558,-3.4495,-3.4409,-3.4363,-3.4572,-3.5213,-3.5987,-3.6426,-3.6445,-3.6779,-3.7243,-3.7875,-3.8637,-3.9092,-3.9026,-3.9026,-3.8979,-3.891,-3.8862,-3.8851,-3.8822,-3.8683,-3.8603,-3.8572,-3.8528,-3.8546,-3.8603,-3.8681,-3.877,-3.8815,-3.8881,-3.891,-3.891,-3.891,-3.8892,-3.8979,-3.9045,-3.9073,-3.9101,-3.9156,-3.921,-3.9183,-3.9298,-3.9427,-3.9526,-3.9594,-3.9642,-3.9735,-3.9823,-3.9867,-3.9889,-3.9954,-3.9654,-3.8953,-3.8307,-3.7452,-3.6577,-3.5798,-3.5341,-3.5166,-3.5145,-3.5091,-3.8088,-3.8174,-3.8174,-3.8238,-3.8095,-3.7394,-3.753,-3.8167,-3.7692,-3.7851,-3.8491,-3.851,-3.859,-3.8707,-3.8707,-3.834,-3.7753,-3.8377,-3.834,-3.7716,-3.7533,-3.7863,-3.8322,-3.711,-3.7184,-3.8303,-3.7955,-3.8143,-3.8773,-3.8851,-3.8894,-3.8952,-3.885,-3.8739,-3.8813,-3.8841,-3.8878,-3.8971,-3.899,-3.8599,-3.7745,-3.6296,-3.5479,-3.5479,-3.4782,-3.4386,-3.4404,-3.4517,-3.4583,-3.4583,-3.4583,-3.4561,-3.4517,-3.458,-3.4517,-3.4427,-3.445,-3.4483,-3.4498,-3.5157,-3.5665,-3.5727,-3.6946,-3.7745,-3.7912,-3.8599,-3.9073,-3.9036,-3.9045,-3.9017,-3.8921,-3.8968,-3.895,-3.891,-3.8862,-3.8862,-3.8851,-3.8854,-3.8879,-3.8881,-3.8844,-3.8892,-3.8892,-3.8939,-3.8921,-3.8939,-3.8968,-3.8989,-3.9129,-3.921,-3.929,-3.9376,-3.9376,-3.9305,-3.9376,-3.9427,-3.9526,-3.9618,-3.9758,-3.9845,-3.9889,-3.9973,-4.0076,-4.0015,-4.0076,-3.9773,-3.9127,-3.8632,-3.8099,-3.69,-3.629,-3.6039,-3.5493,-3.528,-3.5248,-3.807,-3.8192,-3.8192,-3.7711,-3.6984,-3.6557,-3.6656,-3.7101,-3.7698,-3.8186,-3.8473,-3.859,-3.8658,-3.8707,-3.8707,-3.8505,-3.823,-3.8542,-3.8542,-3.8157,-3.7716,-3.7679,-3.7863,-3.7349,-3.7415,-3.8033,-3.8191,-3.846,-3.8807,-3.8939,-3.8979,-3.9036,-3.9064,-3.9073,-3.9101,-3.9101,-3.9101,-3.9101,-3.9101,-3.8934,-3.8544,-3.7503,-3.6686,-3.6192,-3.5528,-3.4909,-3.4483,-3.4517,-3.4602,-3.4602,-3.4602,-3.4583,-3.4561,-3.4517,-3.4473,-3.4423,-3.4843,-3.5261,-3.5696,-3.6043,-3.6203,-3.6185,-3.6798,-3.7355,-3.7838,-3.8191,-3.8562,-3.8999,-3.9073,-3.9073,-3.9017,-3.9045,-3.9064,-3.9017,-3.8979,-3.895,-3.8968,-3.8929,-3.8918,-3.891,-3.8942,-3.898,-3.9073,-3.9101,-3.9101,-3.9045,-3.9073,-3.9183,-3.9264,-3.9401,-3.9526,-3.9599,-3.9623,-3.9623,-3.9599,-3.9689,-3.9735,-3.9781,-3.987,-3.9954,-3.9937,-4.0036,-4.0096,-4.0098,-4.008,-3.9776,-3.9014,-3.8823,-3.8442,-3.7317,-3.6629,-3.6358,-3.6067,-3.564,-3.5353,-3.8122,-3.8156,-3.799,-3.7307,-3.6346,-3.6266,-3.6328,-3.6577,-3.7831,-3.8446,-3.851,-3.864,-3.8707,-3.8707,-3.8707,-3.8707,-3.8707,-3.8707,-3.8707,-3.8634,-3.8065,-3.7838,-3.7849,-3.7629,-3.7695,-3.7974,-3.8287,-3.8641,-3.8884,-3.9007,-3.9036,-3.9036,-3.9092,-3.9101,-3.9101,-3.9101,-3.9101,-3.9101,-3.9101,-3.9101,-3.9008,-3.8525,-3.7745,-3.6749,-3.5789,-3.504,-3.4423,-3.4536,-3.4602,-3.4602,-3.4827,-3.4958,-3.4958,-3.5079,-3.5123,-3.5138,-3.5559,-3.608,-3.6675,-3.6731,-3.6705,-3.6705,-3.6872,-3.7262,-3.7782,-3.8079,-3.8469,-3.8971,-3.9101,-3.9101,-3.9101,-3.9101,-3.9101,-3.9101,-3.9045,-3.9036,-3.9036,-3.8989,-3.897,-3.9017,-3.9082,-3.9144,-3.9272,-3.9272,-3.9245,-3.9192,-3.9219,-3.9324,-3.9376,-3.9575,-3.9717,-3.9804,-3.9889,-3.9892,-3.9807,-3.9826,-3.9911,-3.9973,-3.9996,-3.9922,-3.9848,-3.9869,-3.9909,-3.9776,-3.9853,-3.9681,-3.9032,-3.8803,-3.8363,-3.7557,-3.681,-3.6274,-3.6017,-3.5649,-3.5415,-3.8192,-3.8062,-3.7439,-3.7048,-3.7124,-3.7012,-3.7093,-3.7125,-3.805,-3.8446,-3.851,-3.8658,-3.8707,-3.8707,-3.8707,-3.8707,-3.8707,-3.8707,-3.8707,-3.8689,-3.8615,-3.8676,-3.8681,-3.7982,-3.8029,-3.8623,-3.8227,-3.8311,-3.896,-3.9045,-3.9101,-3.9101,-3.9101,-3.9101,-3.9101,-3.9101,-3.9101,-3.9101,-3.9101,-3.9101,-3.9082,-3.9045,-3.8209,-3.6805,-3.5304,-3.4591,-3.4427,-3.4517,-3.4602,-3.462,-3.5353,-3.5803,-3.5878,-3.6517,-3.685,-3.6855,-3.6789,-3.677,-3.6882,-3.6887,-3.6861,-3.6898,-3.7511,-3.7902,-3.805,-3.8608,-3.8998,-3.9101,-3.911,-3.911,-3.911,-3.9129,-3.9101,-3.9101,-3.9101,-3.9101,-3.912,-3.9101,-3.9156,-3.9227,-3.9282,-3.9339,-3.9458,-3.9357,-3.9324,-3.9298,-3.9298,-3.9376,-3.9502,-3.967,-3.9826,-3.9954,-4.0036,-4.0057,-3.9996,-3.9954,-3.9994,-4.0036,-4.0,-3.9831,-3.9624,-3.949,-3.9452,-3.9394,-3.9318,-3.9164,-3.8897,-3.8418,-3.7728,-3.6996,-3.6304,-3.5841,-3.6044,-3.5676,-3.546,-3.6671,-3.6598,-3.5877,-3.5563,-3.5648,-3.6108,-3.6419,-3.6632,-3.7849,-3.8496,-3.8609,-3.8676,-3.8707,-3.8707,-3.8707,-3.8707,-3.8689,-3.875,-3.878,-3.878,-3.881,-3.8822,-3.8755,-3.8538,-3.8567,-3.8818,-3.8644,-3.8729,-3.9008,-3.9101,-3.9101,-3.9101,-3.9101,-3.9101,-3.9101,-3.9101,-3.9101,-3.9101,-3.9101,-3.9101,-3.9045,-3.8599,-3.8024,-3.7448,-3.6491,-3.5416,-3.4377,-3.4473,-3.4802,-3.5323,-3.5642,-3.6039,-3.661,-3.6906,-3.7253,-3.7629,-3.7654,-3.7872,-3.8357,-3.8443,-3.8443,-3.8462,-3.8686,-3.8809,-3.8883,-3.9107,-3.9275,-3.9301,-3.9324,-3.935,-3.9272,-3.9183,-3.9082,-3.9101,-3.9101,-3.9156,-3.921,-3.9239,-3.9285,-3.942,-3.9494,-3.9543,-3.9532,-3.9551,-3.9526,-3.9433,-3.9483,-3.9575,-3.9647,-3.9785,-3.9954,-4.0015,-4.0057,-4.0098,-4.0118,-4.0077,-4.0057,-4.0077,-4.0041,-3.9661,-3.9395,-3.9127,-3.9069,-3.8514,-3.8456,-3.8454,-3.8187,-3.7823,-3.7168,-3.7089,-3.6339,-3.5833,-3.6189,-3.5748,-3.5532,-3.5802,-3.5675,-3.4994,-3.4709,-3.4818,-3.5581,-3.5951,-3.6236,-3.769,-3.8483,-3.8609,-3.864,-3.8658,-3.8689,-3.8707,-3.8707,-3.8689,-3.8732,-3.8762,-3.8762,-3.884,-3.8803,-3.8822,-3.8833,-3.8892,-3.8921,-3.9007,-3.9064,-3.9101,-3.9101,-3.9101,-3.9101,-3.9101,-3.9101,-3.9101,-3.9101,-3.9101,-3.9101,-3.9101,-3.9101,-3.899,-3.8321,-3.779,-3.7482,-3.6819,-3.6044,-3.5112,-3.5208,-3.5521,-3.6101,-3.6381,-3.6934,-3.7793,-3.7863,-3.804,-3.8496,-3.8565,-3.8808,-3.9305,-3.9399,-3.9373,-3.9418,-3.9399,-3.9418,-3.9418,-3.9418,-3.9399,-3.9413,-3.9471,-3.9483,-3.9477,-3.9376,-3.9272,-3.9245,-3.9237,-3.9272,-3.935,-3.9373,-3.9432,-3.9537,-3.9675,-3.9717,-3.9647,-3.9651,-3.9647,-3.9575,-3.9647,-3.9693,-3.9739,-3.9892,-4.0057,-4.0077,-4.0137,-4.0176,-4.0062,-3.989,-3.9985,-4.0043,-3.9585,-3.9261,-3.8879,-3.8668,-3.8323,-3.7731,-3.75,-3.7572,-3.7436,-3.7127,-3.7031,-3.7048,-3.6485,-3.5748,-3.5835,-3.5748,-3.5584,-3.5729,-3.5566,-3.4975,-3.4588,-3.4697,-3.5514,-3.5939,-3.6237,-3.7649,-3.8368,-3.8528,-3.851,-3.8609,-3.8707,-3.8707,-3.8707,-3.8707,-3.8707,-3.8689,-3.8738,-3.8738,-3.875,-3.8773,-3.8822,-3.8881,-3.8979,-3.9045,-3.9101,-3.9101,-3.9101,-3.9101,-3.9101,-3.9101,-3.9101,-3.9101,-3.9101,-3.9101,-3.9101,-3.9101,-3.9101,-3.9008,-3.8395,-3.7697,-3.6994,-3.6267,-3.6137,-3.6621,-3.664,-3.6552,-3.6894,-3.7561,-3.8552,-3.9201,-3.937,-3.9502,-3.9464,-3.9489,-3.9458,-3.9476,-3.9444,-3.9399,-3.9399,-3.9418,-3.9418,-3.9444,-3.9418,-3.9451,-3.9496,-3.9502,-3.9551,-3.967,-3.967,-3.9623,-3.9508,-3.9458,-3.9502,-3.9526,-3.9508,-3.9543,-3.969,-3.9813,-3.987,-3.9848,-3.9804,-3.9739,-3.9717,-3.9717,-3.9739,-3.9826,-3.9975,-4.0098,-4.0176,-4.0234,-4.0273,-3.9986,-3.9699,-3.9833,-3.9852,-3.9185,-3.8632,-3.8038,-3.7693,-3.7347,-3.6831,-3.6616,-3.6648,-3.6722,-3.6412,-3.6025,-3.5925,-3.5571,-3.5605,-3.5589,-3.5592,-3.5612,-3.4154,-3.4135,-3.3912,-3.3803,-3.3984,-3.5253,-3.5877,-3.6084,-3.7616,-3.8368,-3.8478,-3.851,-3.8578,-3.8658,-3.8707,-3.8707,-3.8707,-3.8707,-3.8719,-3.8762,-3.8792,-3.884,-3.8822,-3.8833,-3.8921,-3.8979,-3.9007,-3.9064,-3.9101,-3.9101,-3.9101,-3.9101,-3.9101,-3.9101,-3.9101,-3.9101,-3.9101,-3.9101,-3.9101,-3.9101,-3.9101,-3.8841,-3.8348,-3.772,-3.7385,-3.7187,-3.6864,-3.5829,-3.5857,-3.6906,-3.7229,-3.8016,-3.9227,-3.9571,-3.962,-3.9577,-3.9577,-3.9571,-3.9571,-3.9546,-3.9527,-3.9527,-3.9527,-3.9527,-3.9527,-3.9546,-3.9552,-3.9583,-3.9618,-3.967,-3.9762,-3.9848,-3.9826,-3.9628,-3.9628,-3.9693,-3.9739,-3.9785,-3.9873,-3.988,-3.9958,-3.9975,-3.9954,-3.9911,-3.9889,-3.9826,-3.9826,-3.9848,-3.9933,-4.0036,-4.0137,-4.0215,-4.0273,-4.031,-4.0081,-3.968,-3.9431,-3.926,-3.8649,-3.8001,-3.7351,-3.6812,-3.6427,-3.6176,-3.594,-3.5875,-3.591,-3.5806,-3.5513,-3.5412,-3.5504,-3.5526,-3.5489,-3.5528,-3.5572,-3.3244,-3.3286,-3.3286,-3.3334,-3.3592,-3.5131,-3.5833,-3.6082,-3.7584,-3.8354,-3.8446,-3.8478,-3.8559,-3.8658,-3.8707,-3.8707,-3.8707,-3.8707,-3.8719,-3.878,-3.881,-3.881,-3.878,-3.8851,-3.8921,-3.8968,-3.9007,-3.9045,-3.9101,-3.9101,-3.9101,-3.9101,-3.9101,-3.9101,-3.9101,-3.9082,-3.9082,-3.9129,-3.9147,-3.9175,-3.9072,-3.8606,-3.8074,-3.7585,-3.7032,-3.6496,-3.5988,-3.5061,-3.5435,-3.7074,-3.771,-3.8465,-3.9471,-3.9596,-3.962,-3.962,-3.962,-3.962,-3.962,-3.9596,-3.962,-3.962,-3.962,-3.962,-3.962,-3.962,-3.9602,-3.9656,-3.9665,-3.9739,-3.9826,-3.9954,-3.9975,-3.987,-3.9848,-3.9892,-3.9975,-4.0015,-4.0038,-4.0039,-4.0038,-4.0017,-3.9996,-4.0015,-3.9975,-3.9911,-3.987,-3.9933,-3.9996,-4.0057,-4.0137,-4.0215,-4.0253,-4.0272,-4.0234,-3.9737,-3.9107,-3.861,-3.8056,-3.7408,-3.6776,-3.6255,-3.5812,-3.5729,-3.553,-3.5618,-3.5667,-3.5624,-3.5446,-3.546,-3.5474,-3.5509,-3.5528,-3.5553,-3.5589,-3.2979,-3.3068,-3.3086,-3.3178,-3.3551,-3.51,-3.577,-3.6023,-3.7519,-3.8289,-3.8401,-3.8433,-3.8546,-3.8676,-3.8707,-3.8707,-3.8707,-3.8707,-3.8707,-3.8689,-3.8719,-3.8738,-3.8738,-3.8822,-3.891,-3.8921,-3.9036,-3.9101,-3.9101,-3.9101,-3.9101,-3.9101,-3.9101,-3.9101,-3.9129,-3.9101,-3.9175,-3.921,-3.921,-3.9275,-3.9317,-3.8084,-3.7231,-3.7168,-3.597,-3.5211,-3.503,-3.5052,-3.5866,-3.7792,-3.874,-3.9358,-3.9596,-3.962,-3.962,-3.962,-3.962,-3.9602,-3.962,-3.9645,-3.9626,-3.9626,-3.962,-3.962,-3.9602,-3.962,-3.9607,-3.9684,-3.967,-3.9717,-3.9848,-3.9994,-4.0057,-4.0117,-4.0096,-4.0098,-4.0098,-4.0117,-4.0098,-4.0098,-4.0098,-4.0096,-4.0057,-4.0036,-3.9996,-3.9933,-3.9933,-3.9994,-4.0057,-4.0118,-4.0176,-4.0234,-4.0291,-4.0291,-4.0272,-3.9623,-3.9011,-3.8665,-3.7921,-3.7041,-3.643,-3.5927,-3.5534,-3.5411,-3.5364,-3.5417,-3.5432,-3.546,-3.5474,-3.5474,-3.5501,-3.5534,-3.5572,-3.5596,-3.5631,-3.2916,-3.293,-3.293,-3.2979,-3.3275,-3.4857,-3.5588,-3.5804,-3.75,-3.8267,-3.8382,-3.8428,-3.8559,-3.8707,-3.8707,-3.8707,-3.8707,-3.8707,-3.8707,-3.8689,-3.8732,-3.875,-3.8738,-3.8792,-3.8851,-3.8892,-3.9007,-3.9064,-3.9101,-3.9101,-3.9101,-3.9101,-3.9156,-3.9183,-3.9183,-3.9275,-3.9346,-3.9346,-3.9346,-3.9373,-3.9317,-3.8988,-3.8452,-3.7866,-3.736,-3.656,-3.5784,-3.6141,-3.6629,-3.7333,-3.8801,-3.9577,-3.9577,-3.962,-3.962,-3.962,-3.9645,-3.9669,-3.9669,-3.9674,-3.9679,-3.9661,-3.9674,-3.9669,-3.965,-3.9626,-3.9626,-3.9631,-3.9631,-3.9661,-3.9758,-3.9889,-4.0036,-4.0215,-4.0234,-4.0234,-4.0196,-4.0177,-4.0157,-4.0196,-4.0177,-4.0157,-4.0138,-4.0157,-4.0098,-4.0076,-4.0036,-4.0057,-4.0118,-4.0157,-4.0196,-4.0272,-4.0309,-4.0309,-4.0118,-3.9488,-3.8991,-3.8759,-3.7955,-3.6791,-3.6291,-3.5828,-3.555,-3.5364,-3.5412,-3.546,-3.546,-3.5474,-3.5507,-3.5488,-3.5541,-3.5572,-3.5604,-3.5628,-3.5662,-3.2722,-3.277,-3.277,-3.282,-3.3059,-3.4336,-3.5068,-3.5636,-3.6952,-3.7896,-3.8212,-3.8446,-3.8559,-3.8707,-3.8707,-3.8707,-3.8707,-3.8707,-3.8707,-3.8707,-3.8762,-3.8792,-3.881,-3.8851,-3.8892,-3.8921,-3.9007,-3.9045,-3.9101,-3.9101,-3.9101,-3.9101,-3.9156,-3.9192,-3.921,-3.9346,-3.9418,-3.9444,-3.9444,-3.9444,-3.9495,-3.9102,-3.8727,-3.8214,-3.7952,-3.7225,-3.6592,-3.7174,-3.7474,-3.7549,-3.8643,-3.962,-3.962,-3.962,-3.962,-3.962,-3.9645,-3.9669,-3.9669,-3.9656,-3.9637,-3.9637,-3.965,-3.965,-3.9669,-3.9645,-3.9645,-3.9645,-3.965,-3.9661,-3.9712,-3.9848,-4.0036,-4.0196,-4.0272,-4.0272,-4.0253,-4.0234,-4.0234,-4.0234,-4.0215,-4.0215,-4.0196,-4.0196,-4.0157,-4.0137,-4.0096,-4.0118,-4.0177,-4.0196,-4.0215,-4.0308,-4.0345,-4.0345,-4.0345,-3.9867,-3.939,-3.9099,-3.8178,-3.6955,-3.6055,-3.5668,-3.5546,-3.5379,-3.546,-3.5488,-3.5488,-3.5501,-3.5495,-3.5522,-3.556,-3.5596,-3.5628,-3.567,-3.5693,-3.2439,-3.2573,-3.2573,-3.2672,-3.2944,-3.374,-3.4561,-3.5309,-3.6353,-3.7313,-3.8008,-3.8382,-3.8546,-3.8707,-3.8707,-3.8707,-3.8707,-3.8707,-3.8738,-3.875,-3.8792,-3.8851,-3.8881,-3.8921,-3.8979,-3.9026,-3.9092,-3.9101,-3.9101,-3.9101,-3.9101,-3.9129,-3.9156,-3.921,-3.9256,-3.9328,-3.9444,-3.9495,-3.952,-3.9546,-3.9477,-3.9027,-3.8708,-3.852,-3.7831,-3.7493,-3.7418,-3.7831,-3.7962,-3.7249,-3.8775,-3.9526,-3.962,-3.962,-3.962,-3.962,-3.962,-3.9645,-3.962,-3.9626,-3.9626,-3.9607,-3.9626,-3.962,-3.9626,-3.9669,-3.9693,-3.9693,-3.9703,-3.9708,-3.9777,-3.9911,-4.0057,-4.0196,-4.0253,-4.0291,-4.0329,-4.0329,-4.0329,-4.0329,-4.029,-4.0272,-4.0253,-4.0215,-4.0196,-4.0196,-4.0176,-4.0177,-4.0253,-4.0252,-4.0308,-4.0398,-4.0415,-4.0398,-4.0398,-4.0341,-3.9919,-3.9514,-3.846,-3.7271,-3.591,-3.545,-3.5407,-3.5398,-3.546,-3.5488,-3.5501,-3.5495,-3.5502,-3.5528,-3.5584,-3.5608,-3.562,-3.5662,-3.5704,-3.2249,-3.2284,-3.2422,-3.2405,-3.251,-3.3421,-3.4304,-3.5084,-3.6128,-3.7086,-3.7975,-3.8289,-3.8469,-3.8676,-3.8658,-3.8707,-3.8676,-3.8707,-3.875,-3.8851,-3.8862,-3.8881,-3.891,-3.895,-3.8979,-3.9007,-3.9045,-3.9101,-3.9073,-3.9055,-3.9101,-3.9101,-3.9129,-3.9256,-3.9328,-3.9399,-3.952,-3.9571,-3.9596,-3.9596,-3.9596,-3.9432,-3.9263,-3.9164,-3.845,-3.8094,-3.8075,-3.8225,-3.8206,-3.8338,-3.8957,-3.962,-3.962,-3.962,-3.962,-3.962,-3.9645,-3.9669,-3.9669,-3.9656,-3.9684,-3.9661,-3.9674,-3.9669,-3.9669,-3.9693,-3.9693,-3.9717,-3.9703,-3.9735,-3.9845,-3.9933,-4.0057,-4.0176,-4.0253,-4.0311,-4.0329,-4.0329,-4.0329,-4.031,-4.0291,-4.0291,-4.0291,-4.0272,-4.0272,-4.0253,-4.0253,-4.0252,-4.0289,-4.0326,-4.0379,-4.0466,-4.043,-4.043,-4.0447,-4.0315,-3.9854,-3.9394,-3.845,-3.7356,-3.6012,-3.5379,-3.5379,-3.5412,-3.546,-3.5488,-3.5495,-3.5522,-3.5515,-3.5553,-3.5596,-3.562,-3.5631,-3.5673,-3.5704,-3.2179,-3.2214,-3.2267,-3.2301,-3.2371,-3.2913,-3.3811,-3.4818,-3.5562,-3.6611,-3.7718,-3.807,-3.8256,-3.8401,-3.8433,-3.8483,-3.8546,-3.8564,-3.8578,-3.859,-3.8609,-3.864,-3.8683,-3.8725,-3.8785,-3.8815,-3.8826,-3.8855,-3.8855,-3.8884,-3.8902,-3.9007,-3.9017,-3.912,-3.9275,-3.9328,-3.9425,-3.9546,-3.9596,-3.962,-3.962,-3.962,-3.962,-3.9583,-3.9145,-3.8901,-3.892,-3.8901,-3.892,-3.9014,-3.9357,-3.962,-3.962,-3.962,-3.962,-3.962,-3.9645,-3.9645,-3.965,-3.9631,-3.9656,-3.9637,-3.965,-3.9669,-3.9693,-3.9698,-3.9727,-3.975,-3.9777,-3.9845,-3.9908,-3.9954,-4.0057,-4.0137,-4.0196,-4.0273,-4.0291,-4.031,-4.0329,-4.031,-4.031,-4.031,-4.031,-4.031,-4.031,-4.0272,-4.0291,-4.0289,-4.0362,-4.0379,-4.0447,-4.0479,-4.0479,-4.0479,-4.0479,-4.0207,-3.9634,-3.9019,-3.8228,-3.7113,-3.5864,-3.5542,-3.5427,-3.546,-3.546,-3.5482,-3.5509,-3.5515,-3.554,-3.5577,-3.562,-3.5631,-3.5662,-3.5704,-3.5704,-3.2108,-3.2144,-3.2179,-3.2267,-3.2371,-3.2423,-3.3231,-3.4445,-3.4889,-3.5954,-3.7256,-3.7755,-3.7984,-3.8086,-3.8135,-3.8201,-3.8318,-3.835,-3.8368,-3.8372,-3.8372,-3.8387,-3.8382,-3.8446,-3.8446,-3.8491,-3.8597,-3.8597,-3.8646,-3.8634,-3.8725,-3.8833,-3.8822,-3.8921,-3.9073,-3.9175,-3.9248,-3.9373,-3.9451,-3.9527,-3.9552,-3.9552,-3.9552,-3.9602,-3.9545,-3.9489,-3.947,-3.9508,-3.9564,-3.962,-3.962,-3.962,-3.962,-3.962,-3.962,-3.962,-3.962,-3.962,-3.962,-3.962,-3.962,-3.962,-3.962,-3.962,-3.965,-3.9698,-3.9708,-3.9777,-3.9845,-3.9889,-3.9911,-3.9933,-3.9996,-4.0057,-4.0137,-4.0196,-4.0253,-4.0253,-4.0291,-4.031,-4.0329,-4.0329,-4.0329,-4.031,-4.0329,-4.031,-4.0308,-4.0344,-4.0398,-4.0449,-4.0479,-4.0511,-4.0476,-4.0476,-4.0492,-3.9992,-3.9435,-3.8608,-3.7873,-3.6877,-3.5834,-3.5603,-3.5468,-3.546,-3.5474,-3.5482,-3.5522,-3.5547,-3.5584,-3.5601,-3.5643,-3.5673,-3.5693,-3.5704,-3.5704,-3.1948,-3.1984,-3.2144,-3.2196,-3.2196,-3.2319,-3.2897,-3.3705,-3.4497,-3.5437,-3.6523,-3.7327,-3.7774,-3.7949,-3.8068,-3.8135,-3.8153,-3.8135,-3.8204,-3.8241,-3.8241,-3.8204,-3.8135,-3.8153,-3.8119,-3.8171,-3.835,-3.8523,-3.8572,-3.867,-3.8621,-3.8634,-3.8634,-3.8725,-3.8844,-3.8921,-3.9007,-3.9147,-3.9202,-3.9283,-3.9343,-3.9369,-3.9483,-3.9577,-3.962,-3.962,-3.962,-3.962,-3.962,-3.962,-3.962,-3.962,-3.962,-3.962,-3.962,-3.962,-3.962,-3.962,-3.962,-3.962,-3.962,-3.962,-3.962,-3.962,-3.9645,-3.9669,-3.9703,-3.9735,-3.9823,-3.9889,-3.9889,-3.9889,-3.9911,-3.9954,-3.9996,-4.0057,-4.0077,-4.0157,-4.0234,-4.0253,-4.0272,-4.031,-4.0329,-4.031,-4.031,-4.0329,-4.0327,-4.0344,-4.0398,-4.0447,-4.0492,-4.0508,-4.0489,-4.0489,-4.0489,-3.9796,-3.9123,-3.818,-3.7392,-3.6699,-3.5872,-3.5624,-3.5476,-3.5468,-3.5488,-3.5528,-3.5566,-3.5591,-3.5628,-3.5643,-3.5673,-3.5704,-3.5704,-3.5704,-3.5704,-3.1875,-3.1912,-3.2055,-3.2144,-3.2179,-3.2319,-3.2809,-3.3564,-3.4337,-3.5238,-3.6145,-3.7019,-3.754,-3.7667,-3.781,-3.7845,-3.7845,-3.7949,-3.7967,-3.7985,-3.7951,-3.7898,-3.7862,-3.7862,-3.7845,-3.7898,-3.8086,-3.8252,-3.8219,-3.8303,-3.8387,-3.8433,-3.8401,-3.8528,-3.8713,-3.8755,-3.8844,-3.8979,-3.9064,-3.9129,-3.9192,-3.9245,-3.9395,-3.9552,-3.962,-3.962,-3.962,-3.962,-3.962,-3.962,-3.962,-3.962,-3.962,-3.962,-3.962,-3.962,-3.962,-3.962,-3.962,-3.962,-3.962,-3.962,-3.962,-3.962,-3.9645,-3.9693,-3.9698,-3.9708,-3.9735,-3.98,-3.9781,-3.98,-3.9845,-3.9889,-3.9933,-3.9975,-4.0038,-4.0099,-4.0138,-4.0176,-4.0234,-4.0291,-4.031,-4.031,-4.0329,-4.0329,-4.0327,-4.0363,-4.0398,-4.0447,-4.0492,-4.045,-4.0392,-4.0162,-4.0008,-3.9354,-3.8642,-3.7738,-3.6988,-3.6295,-3.5886,-3.5586,-3.5489,-3.5489,-3.5522,-3.5566,-3.5591,-3.5608,-3.5651,-3.5673,-3.5704,-3.5704,-3.5704,-3.5704,-3.5704,-3.1819,-3.1858,-3.202,-3.2073,-3.2144,-3.2284,-3.2634,-3.3353,-3.4247,-3.5041,-3.5802,-3.6816,-3.7334,-3.7392,-3.7466,-3.7558,-3.7577,-3.7721,-3.7721,-3.7685,-3.7667,-3.7613,-3.7613,-3.7631,-3.7667,-3.7721,-3.781,-3.7864,-3.7951,-3.802,-3.8088,-3.8156,-3.8174,-3.8307,-3.8559,-3.8572,-3.8725,-3.8844,-3.8979,-3.9017,-3.9073,-3.9192,-3.9324,-3.9508,-3.9533,-3.9552,-3.9602,-3.962,-3.962,-3.962,-3.962,-3.962,-3.962,-3.962,-3.962,-3.962,-3.962,-3.962,-3.962,-3.962,-3.962,-3.962,-3.962,-3.9645,-3.9669,-3.9693,-3.9717,-3.9703,-3.9708,-3.9731,-3.9712,-3.9708,-3.9777,-3.9823,-3.9867,-3.9911,-3.9996,-4.0038,-4.0038,-4.0098,-4.0195,-4.0253,-4.0273,-4.031,-4.031,-4.0328,-4.0326,-4.0326,-4.0362,-4.0449,-4.0495,-4.0431,-4.0258,-3.9854,-3.9431,-3.8757,-3.8027,-3.7199,-3.6584,-3.5988,-3.5732,-3.5495,-3.5489,-3.5502,-3.556,-3.5604,-3.5608,-3.562,-3.5643,-3.5673,-3.5704,-3.5704,-3.5704,-3.5704,-3.5704,-3.18,-3.1837,-3.1912,-3.1948,-3.1984,-3.209,-3.2231,-3.2564,-3.391,-3.4614,-3.5076,-3.6549,-3.7241,-3.7223,-3.7297,-3.7372,-3.7411,-3.7449,-3.7522,-3.7577,-3.7577,-3.7577,-3.7577,-3.7613,-3.7613,-3.7613,-3.7667,-3.7757,-3.7828,-3.7899,-3.7934,-3.7969,-3.802,-3.8119,-3.8285,-3.8382,-3.8478,-3.8572,-3.8701,-3.8822,-3.8921,-3.9045,-3.921,-3.9317,-3.9369,-3.9439,-3.9577,-3.962,-3.962,-3.962,-3.962,-3.962,-3.962,-3.962,-3.962,-3.962,-3.962,-3.962,-3.962,-3.962,-3.962,-3.962,-3.962,-3.962,-3.9645,-3.9669,-3.9693,-3.9693,-3.9703,-3.9708,-3.9708,-3.9708,-3.9731,-3.9754,-3.9781,-3.9804,-3.987,-3.9975,-3.9975,-4.0011,-4.0091,-4.0155,-4.0195,-4.0272,-4.0308,-4.0326,-4.0326,-4.0307,-4.0342,-4.0447,-4.0499,-4.0434,-3.9969,-3.9546,-3.8873,-3.82,-3.743,-3.6642,-3.6219,-3.5757,-3.5636,-3.5495,-3.5534,-3.556,-3.5584,-3.5608,-3.5608,-3.562,-3.5643,-3.5673,-3.5704,-3.5704,-3.5704,-3.5704,-3.5704,-3.1688,-3.1783,-3.1875,-3.1894,-3.1894,-3.202,-3.2144,-3.2493,-3.3766,-3.4539,-3.4986,-3.6438,-3.7185,-3.7261,-3.7297,-3.7334,-3.7374,-3.7374,-3.7449,-3.7577,-3.7577,-3.7577,-3.7577,-3.7577,-3.7577,-3.7577,-3.7613,-3.7631,-3.7739,-3.7775,-3.7792,-3.7792,-3.7863,-3.8002,-3.8101,-3.8271,-3.8401,-3.8528,-3.864,-3.878,-3.8881,-3.8979,-3.9101,-3.9272,-3.9298,-3.9413,-3.9552,-3.962,-3.962,-3.962,-3.962,-3.962,-3.962,-3.962,-3.962,-3.962,-3.962,-3.962,-3.962,-3.962,-3.962,-3.962,-3.962,-3.962,-3.9602,-3.9669,-3.9669,-3.9645,-3.965,-3.9656,-3.9698,-3.9674,-3.9708,-3.9712,-3.9758,-3.9823,-3.9826,-3.9889,-3.9951,-3.9943,-3.9977,-4.0049,-4.0115,-4.0196,-4.029,-4.0344,-4.0362,-4.0379,-4.0413,-4.0479,-4.0492,-4.0489,-3.9854,-3.9161,-3.8392,-3.7642,-3.6853,-3.618,-3.5949,-3.5603,-3.5545,-3.5515,-3.5522,-3.5547,-3.5572,-3.5584,-3.5596,-3.5639,-3.5662,-3.5673,-3.5704,-3.5704,-3.5704,-3.5704,-3.5704,-3.1614,-3.1746,-3.1802,-3.1839,-3.1875,-3.2001,-3.2073,-3.2336,-3.3726,-3.4501,-3.5054,-3.6309,-3.7185,-3.7261,-3.7259,-3.7259,-3.7317,-3.7354,-3.7429,-3.7503,-3.754,-3.7594,-3.7577,-3.7577,-3.7577,-3.7577,-3.7577,-3.7613,-3.7613,-3.7649,-3.7685,-3.7667,-3.7846,-3.7951,-3.8104,-3.8271,-3.8419,-3.8578,-3.8658,-3.875,-3.884,-3.8822,-3.8989,-3.9165,-3.9272,-3.9343,-3.9577,-3.962,-3.962,-3.962,-3.962,-3.962,-3.962,-3.962,-3.962,-3.962,-3.962,-3.962,-3.962,-3.962,-3.962,-3.962,-3.962,-3.962,-3.962,-3.9645,-3.9669,-3.962,-3.9645,-3.9669,-3.9674,-3.9674,-3.9684,-3.9735,-3.9739,-3.9804,-3.9867,-3.987,-3.9867,-3.9857,-3.9891,-3.9951,-4.0049,-4.0138,-4.0234,-4.0381,-4.0415,-4.0415,-4.0466,-4.0495,-4.0492,-4.0434,-3.9415,-3.8742,-3.818,-3.7315,-3.6416,-3.582,-3.5622,-3.5488,-3.5488,-3.5482,-3.5509,-3.5534,-3.5547,-3.5572,-3.5604,-3.5639,-3.5673,-3.5673,-3.5673,-3.5704,-3.5704,-3.5704,-3.5704,-3.1538,-3.1617,-3.1617,-3.1709,-3.1819,-3.18,-3.1946,-3.2212,-3.3578,-3.446,-3.5072,-3.6253,-3.7048,-3.7126,-3.7087,-3.7087,-3.7147,-3.7108,-3.7261,-3.7392,-3.7429,-3.7503,-3.754,-3.7577,-3.7577,-3.7577,-3.7577,-3.7577,-3.7613,-3.7613,-3.7613,-3.7613,-3.7775,-3.7898,-3.807,-3.8271,-3.8451,-3.8609,-3.8658,-3.8707,-3.8738,-3.875,-3.8862,-3.9073,-3.9156,-3.9256,-3.9596,-3.962,-3.962,-3.962,-3.962,-3.962,-3.962,-3.962,-3.962,-3.962,-3.962,-3.962,-3.962,-3.962,-3.962,-3.962,-3.962,-3.962,-3.962,-3.962,-3.962,-3.962,-3.965,-3.9693,-3.9722,-3.975,-3.9731,-3.9758,-3.9781,-3.9781,-3.9826,-3.9829,-3.9826,-3.975,-3.9807,-3.9886,-3.994,-4.0017,-4.0139,-4.0252,-4.0307,-4.0307,-4.0432,-4.0463,-4.0476,-4.0169,-3.8996,-3.8304,-3.8012,-3.7224,-3.632,-3.5897,-3.5718,-3.5584,-3.5488,-3.5501,-3.5495,-3.5489,-3.5515,-3.5547,-3.5591,-3.5608,-3.5631,-3.5612,-3.5643,-3.5673,-3.5704,-3.5704,-3.5704,-3.1385,-3.1538,-3.1538,-3.1651,-3.18,-3.18,-3.1856,-3.2225,-3.3519,-3.4883,-3.5959,-3.6667,-3.7048,-3.7069,-3.7048,-3.7048,-3.7108,-3.7108,-3.7223,-3.7337,-3.7411,-3.7503,-3.754,-3.7577,-3.7577,-3.7577,-3.7577,-3.7577,-3.7577,-3.7577,-3.7577,-3.7613,-3.7685,-3.781,-3.7985,-3.8238,-3.8465,-3.8559,-3.864,-3.8707,-3.8707,-3.8689,-3.8822,-3.9073,-3.9101,-3.9283,-3.9552,-3.9596,-3.962,-3.962,-3.962,-3.962,-3.962,-3.962,-3.962,-3.962,-3.962,-3.962,-3.962,-3.962,-3.962,-3.962,-3.9645,-3.9669,-3.9645,-3.9669,-3.9674,-3.9656,-3.9698,-3.9698,-3.9754,-3.9754,-3.9754,-3.98,-3.9823,-3.9804,-3.9804,-3.9826,-3.9804,-3.9746,-3.9802,-3.9905,-3.9921,-3.9933,-4.002,-4.012,-4.0158,-4.0214,-4.0342,-4.0432,-4.0411,-4.0252,-3.918,-3.8693,-3.8458,-3.7435,-3.6267,-3.6031,-3.5839,-3.568,-3.5584,-3.5488,-3.5501,-3.5495,-3.5502,-3.5534,-3.5572,-3.5577,-3.5601,-3.5612,-3.5643,-3.5704,-3.5704,-3.5704,-3.5704,-3.1308,-3.1423,-3.1479,-3.1631,-3.18,-3.18,-3.1839,-3.21,-3.3183,-3.4735,-3.6422,-3.679,-3.7027,-3.7048,-3.7009,-3.7009,-3.7031,-3.7069,-3.7185,-3.7299,-3.7374,-3.7466,-3.754,-3.7577,-3.7577,-3.7577,-3.7577,-3.7577,-3.7577,-3.7577,-3.7613,-3.7613,-3.7649,-3.7775,-3.7916,-3.8189,-3.8415,-3.851,-3.8559,-3.8658,-3.8707,-3.875,-3.8851,-3.9073,-3.9156,-3.9309,-3.9527,-3.962,-3.962,-3.962,-3.962,-3.962,-3.962,-3.962,-3.962,-3.962,-3.962,-3.962,-3.962,-3.962,-3.962,-3.962,-3.9645,-3.9669,-3.9669,-3.9693,-3.9674,-3.9703,-3.9722,-3.975,-3.9804,-3.98,-3.9781,-3.9826,-3.9804,-3.9804,-3.9819,-3.9838,-3.9792,-3.9741,-3.9802,-3.9844,-3.983,-3.9845,-3.9935,-4.004,-4.012,-4.0158,-4.0214,-4.0288,-4.0325,-4.0072,-3.9553,-3.9295,-3.9112,-3.8001,-3.6983,-3.6416,-3.6199,-3.582,-3.568,-3.5584,-3.5501,-3.5489,-3.5502,-3.5515,-3.554,-3.5577,-3.5608,-3.562,-3.5662,-3.5704,-3.5704,-3.5704,-3.5704,-3.1252,-3.1295,-3.1445,-3.1631,-3.1763,-3.18,-3.1856,-3.1996,-3.2824,-3.4094,-3.5697,-3.654,-3.697,-3.7009,-3.697,-3.7009,-3.7009,-3.7009,-3.7143,-3.7297,-3.7317,-3.7447,-3.7558,-3.7577,-3.7577,-3.7577,-3.7577,-3.7577,-3.7577,-3.7613,-3.7649,-3.7685,-3.7721,-3.7792,-3.7934,-3.8174,-3.8387,-3.8478,-3.851,-3.8609,-3.8689,-3.881,-3.895,-3.9073,-3.921,-3.9388,-3.9552,-3.962,-3.962,-3.962,-3.962,-3.962,-3.962,-3.962,-3.962,-3.962,-3.962,-3.962,-3.962,-3.962,-3.962,-3.962,-3.9645,-3.9645,-3.9626,-3.9669,-3.9717,-3.9727,-3.975,-3.9781,-3.9826,-3.9867,-3.9848,-3.9826,-3.9826,-3.9804,-3.9819,-3.9857,-3.9792,-3.9769,-3.9764,-3.9783,-3.9764,-3.975,-3.9867,-3.9977,-4.006,-4.012,-4.0139,-4.0158,-4.0215,-4.0137,-3.979,-3.9672,-3.9361,-3.8546,-3.7698,-3.7074,-3.6512,-3.6075,-3.5724,-3.5526,-3.5476,-3.5502,-3.5528,-3.556,-3.5584,-3.5608,-3.562,-3.5643,-3.5673,-3.5704,-3.5704,-3.5704,-3.5704,-3.1235,-3.1312,-3.1351,-3.1445,-3.1631,-3.1746,-3.1837,-3.2098,-3.3263,-3.4484,-3.5558,-3.6558,-3.697,-3.697,-3.697,-3.697,-3.697,-3.7027,-3.7105,-3.7297,-3.7297,-3.7447,-3.7558,-3.7577,-3.7577,-3.7577,-3.7577,-3.7577,-3.7577,-3.7613,-3.7667,-3.7703,-3.7828,-3.7915,-3.802,-3.8189,-3.8354,-3.8415,-3.8478,-3.8559,-3.8707,-3.8822,-3.8979,-3.9101,-3.9245,-3.9413,-3.9577,-3.962,-3.962,-3.962,-3.962,-3.962,-3.962,-3.962,-3.962,-3.962,-3.962,-3.962,-3.9645,-3.9669,-3.9669,-3.9669,-3.9669,-3.9669,-3.9679,-3.9674,-3.9722,-3.975,-3.98,-3.9826,-3.9867,-3.9889,-3.987,-3.987,-3.9848,-3.9826,-3.9823,-3.9864,-3.986,-3.9796,-3.9773,-3.9819,-3.9819,-3.9739,-3.981,-3.97,-3.9749,-3.9982,-4.004,-4.008,-4.0118,-4.0158,-4.0005,-3.9928,-3.9581,-3.8601,-3.7871,-3.7236,-3.6673,-3.6174,-3.5859,-3.5512,-3.5495,-3.5502,-3.556,-3.5604,-3.5628,-3.5631,-3.5662,-3.5673,-3.5693,-3.5704,-3.5704,-3.5704,-3.5704,-3.0999,-3.0934,-3.1193,-3.1368,-3.15,-3.1651,-3.1763,-3.2061,-3.3355,-3.4405,-3.5192,-3.6138,-3.6759,-3.6882,-3.697,-3.697,-3.697,-3.7027,-3.7105,-3.7259,-3.7297,-3.741,-3.7558,-3.7577,-3.7577,-3.7577,-3.7577,-3.7577,-3.7577,-3.7649,-3.7721,-3.7792,-3.7985,-3.8036,-3.8122,-3.8189,-3.8322,-3.8382,-3.846,-3.8621,-3.8792,-3.895,-3.912,-3.9192,-3.9317,-3.9464,-3.9577,-3.962,-3.962,-3.962,-3.962,-3.962,-3.962,-3.962,-3.962,-3.962,-3.962,-3.9645,-3.9669,-3.9698,-3.9679,-3.9727,-3.9698,-3.9698,-3.9708,-3.9703,-3.9731,-3.9777,-3.9823,-3.9867,-3.9889,-3.9889,-3.9889,-3.9889,-3.987,-3.9848,-3.9848,-3.9886,-3.9886,-3.9823,-3.9823,-3.9867,-3.987,-3.9772,-3.9735,-3.9564,-3.9394,-3.961,-3.9787,-3.9694,-3.9619,-3.9583,-3.9394,-3.9052,-3.886,-3.8532,-3.7863,-3.7349,-3.6791,-3.623,-3.5772,-3.5393,-3.5449,-3.5534,-3.5572,-3.5608,-3.5631,-3.5654,-3.5673,-3.5662,-3.567,-3.5681,-3.5704,-3.5704,-3.5693,-3.0538,-3.026,-3.0968,-3.1368,-3.15,-3.1596,-3.1671,-3.1869,-3.2817,-3.3656,-3.4443,-3.5399,-3.6233,-3.6812,-3.6935,-3.697,-3.697,-3.697,-3.7143,-3.7259,-3.7297,-3.7447,-3.754,-3.7577,-3.7577,-3.7577,-3.7577,-3.7577,-3.7613,-3.7649,-3.7757,-3.7881,-3.8072,-3.814,-3.8174,-3.8207,-3.8307,-3.8368,-3.8478,-3.8652,-3.8803,-3.9073,-3.921,-3.9317,-3.9439,-3.9552,-3.962,-3.962,-3.962,-3.962,-3.962,-3.962,-3.962,-3.962,-3.962,-3.962,-3.962,-3.9645,-3.9674,-3.9703,-3.9754,-3.9777,-3.9727,-3.9727,-3.9708,-3.9731,-3.9758,-3.9804,-3.9845,-3.9867,-3.9889,-3.9889,-3.9889,-3.9889,-3.9889,-3.987,-3.987,-3.9889,-3.9867,-3.9867,-3.9867,-3.987,-3.9851,-3.9775,-3.9416,-3.9113,-3.8885,-3.8791,-3.889,-3.8776,-3.8702,-3.8627,-3.8364,-3.789,-3.7775,-3.7908,-3.7546,-3.6918,-3.6703,-3.622,-3.5729,-3.5315,-3.5379,-3.5468,-3.5553,-3.5601,-3.5643,-3.5673,-3.5662,-3.567,-3.567,-3.5659,-3.5681,-3.5662,-3.5662,-2.9888,-2.9984,-3.0695,-3.1157,-3.1351,-3.1542,-3.1671,-3.194,-3.2743,-3.3321,-3.3659,-3.5077,-3.5805,-3.6162,-3.6724,-3.69,-3.697,-3.7009,-3.7126,-3.722,-3.7297,-3.7447,-3.7558,-3.7577,-3.7577,-3.7577,-3.7577,-3.7613,-3.7613,-3.7685,-3.7828,-3.7967,-3.8106,-3.8192,-3.8192,-3.8192,-3.8274,-3.8336,-3.8446,-3.8634,-3.8862,-3.9101,-3.9237,-3.9362,-3.9508,-3.9577,-3.962,-3.962,-3.962,-3.962,-3.962,-3.962,-3.962,-3.962,-3.962,-3.962,-3.962,-3.9626,-3.9703,-3.9689,-3.9758,-3.9845,-3.98,-3.9777,-3.9781,-3.9781,-3.9781,-3.9826,-3.9867,-3.9889,-3.9889,-3.9889,-3.9889,-3.9889,-3.9889,-3.9889,-3.9889,-3.9889,-3.9867,-3.9889,-3.9889,-3.987,-3.9832,-3.9361,-3.8963,-3.8622,-3.8319,-3.8111,-3.7976,-3.7845,-3.7826,-3.7752,-3.7431,-3.6977,-3.7242,-3.7433,-3.6996,-3.654,-3.6272,-3.6001,-3.552,-3.5242,-3.5308,-3.5398,-3.5476,-3.5584,-3.5693,-3.5681,-3.5639,-3.5662,-3.5662,-3.5651,-3.5659,-3.5639,-3.562,-2.9059,-2.9337,-3.0118,-3.0825,-3.1389,-3.1596,-3.1746,-3.1886,-3.2394,-3.28,-3.3308,-3.4292,-3.5136,-3.5881,-3.6303,-3.6636,-3.697,-3.7027,-3.7105,-3.7259,-3.7297,-3.7447,-3.7558,-3.7577,-3.7577,-3.7577,-3.7577,-3.7577,-3.7613,-3.7739,-3.7863,-3.7933,-3.8072,-3.814,-3.8192,-3.8225,-3.8274,-3.8387,-3.8528,-3.8664,-3.8873,-3.9147,-3.9335,-3.9413,-3.9552,-3.9577,-3.962,-3.962,-3.962,-3.962,-3.962,-3.962,-3.962,-3.962,-3.962,-3.962,-3.962,-3.9626,-3.9679,-3.9708,-3.9758,-3.9845,-3.9867,-3.9867,-3.9826,-3.9804,-3.9826,-3.9867,-3.9889,-3.9889,-3.9889,-3.9889,-3.9889,-3.9889,-3.9889,-3.9889,-3.9889,-3.9889,-3.9889,-3.9889,-3.9889,-3.9889,-3.9608,-3.9039,-3.8452,-3.7997,-3.7371,-3.6803,-3.6765,-3.6784,-3.6879,-3.6917,-3.6538,-3.6159,-3.6481,-3.6652,-3.6236,-3.5856,-3.5647,-3.538,-3.5131,-3.516,-3.5242,-3.532,-3.5407,-3.5502,-3.5596,-3.5584,-3.5553,-3.5596,-3.5628,-3.5579,-3.5579,-3.5604,-3.5584,-2.8129,-2.8423,-2.946,-3.0577,-3.1411,-3.1688,-3.18,-3.18,-3.1944,-3.2312,-3.3012,-3.3331,-3.4244,-3.5159,-3.5618,-3.6162,-3.6496,-3.6689,-3.6946,-3.7279,-3.7259,-3.7372,-3.7503,-3.7577,-3.7577,-3.7577,-3.7577,-3.7577,-3.7613,-3.7685,-3.7792,-3.7899,-3.7967,-3.807,-3.8241,-3.8259,-3.8322,-3.8446,-3.8695,-3.8902,-3.9045,-3.9309,-3.9577,-3.9596,-3.962,-3.962,-3.962,-3.962,-3.962,-3.962,-3.962,-3.962,-3.962,-3.962,-3.962,-3.962,-3.962,-3.9645,-3.9674,-3.9703,-3.9712,-3.9781,-3.9867,-3.9845,-3.9804,-3.9826,-3.9848,-3.9867,-3.9889,-3.9889,-3.9889,-3.9889,-3.9889,-3.9889,-3.9889,-3.9889,-3.9889,-3.9889,-3.9889,-3.9889,-3.9889,-3.9851,-3.9665,-3.9096,-3.8111,-3.7485,-3.6613,-3.5836,-3.578,-3.5875,-3.6008,-3.6159,-3.5855,-3.5533,-3.5457,-3.5571,-3.5344,-3.5078,-3.5097,-3.5115,-3.5129,-3.5143,-3.5193,-3.5289,-3.5364,-3.5402,-3.5457,-3.5483,-3.5515,-3.5522,-3.5522,-3.5488,-3.5501,-3.5541,-3.5547,-2.749,-2.8333,-3.009,-3.1038,-3.1308,-3.1651,-3.18,-3.18,-3.1819,-3.1996,-3.2312,-3.2925,-3.3506,-3.4104,-3.4756,-3.539,-3.6022,-3.6285,-3.6556,-3.6949,-3.7164,-3.7317,-3.7411,-3.7485,-3.7503,-3.7577,-3.7577,-3.7613,-3.7613,-3.7685,-3.7757,-3.7881,-3.7967,-3.8104,-3.8303,-3.8354,-3.8433,-3.8554,-3.8826,-3.9017,-3.9101,-3.9237,-3.9439,-3.9552,-3.962,-3.962,-3.962,-3.962,-3.962,-3.962,-3.962,-3.962,-3.962,-3.962,-3.962,-3.962,-3.962,-3.9645,-3.9669,-3.9698,-3.9703,-3.9731,-3.9754,-3.9735,-3.9758,-3.9826,-3.9848,-3.987,-3.9889,-3.9889,-3.9889,-3.9889,-3.9889,-3.9889,-3.9889,-3.9889,-3.9889,-3.9889,-3.9889,-3.9889,-3.9889,-3.9757,-3.9608,-3.8944,-3.7921,-3.6917,-3.5855,-3.5173,-3.523,-3.5325,-3.5382,-3.5458,-3.5306,-3.504,-3.4927,-3.4945,-3.5001,-3.5039,-3.5096,-3.5094,-3.5091,-3.5108,-3.516,-3.5242,-3.532,-3.5345,-3.5402,-3.5515,-3.5534,-3.5495,-3.5482,-3.5488,-3.5474,-3.552,-3.5509,-2.6877,-2.8134,-3.0132,-3.1072,-3.1269,-3.1559,-3.1746,-3.18,-3.18,-3.1837,-3.191,-3.2472,-3.2946,-3.3334,-3.3967,-3.4828,-3.5583,-3.5811,-3.6415,-3.6932,-3.7023,-3.7279,-3.7374,-3.734,-3.754,-3.7594,-3.7577,-3.7613,-3.7613,-3.7649,-3.7739,-3.7881,-3.7967,-3.8119,-3.8382,-3.8446,-3.8541,-3.8725,-3.896,-3.9073,-3.9156,-3.9335,-3.9483,-3.9577,-3.962,-3.962,-3.962,-3.962,-3.962,-3.962,-3.962,-3.962,-3.962,-3.962,-3.962,-3.962,-3.962,-3.962,-3.9645,-3.9693,-3.9717,-3.9703,-3.9708,-3.9731,-3.9712,-3.9758,-3.9758,-3.9781,-3.9826,-3.9826,-3.9848,-3.9848,-3.987,-3.9889,-3.9889,-3.9889,-3.9889,-3.9889,-3.9889,-3.9889,-3.9889,-3.9851,-3.9608,-3.9096,-3.815,-3.7336,-3.6141,-3.5287,-3.5173,-3.5134,-3.5077,-3.4982,-3.4982,-3.4983,-3.5039,-3.5057,-3.5075,-3.5075,-3.5111,-3.5129,-3.5147,-3.511,-3.5127,-3.5229,-3.5293,-3.5289,-3.5364,-3.5468,-3.5476,-3.5435,-3.5455,-3.5501,-3.5488,-3.5493,-3.5488,-2.6678,-2.8062,-2.979,-3.0771,-3.1134,-3.1483,-3.1671,-3.1746,-3.1746,-3.1783,-3.1819,-3.2036,-3.2544,-3.3018,-3.3352,-3.4388,-3.5021,-3.5039,-3.5852,-3.6418,-3.667,-3.6569,-3.6769,-3.7128,-3.7344,-3.7523,-3.7577,-3.7577,-3.7613,-3.7631,-3.7703,-3.7899,-3.8002,-3.8153,-3.8382,-3.8541,-3.8664,-3.8844,-3.9017,-3.9101,-3.9256,-3.9432,-3.9502,-3.9552,-3.9577,-3.9577,-3.9596,-3.9596,-3.9596,-3.962,-3.962,-3.962,-3.962,-3.962,-3.962,-3.962,-3.962,-3.962,-3.962,-3.9645,-3.9669,-3.9674,-3.9703,-3.9708,-3.9708,-3.9708,-3.9689,-3.9712,-3.9758,-3.9781,-3.9804,-3.9826,-3.9848,-3.9889,-3.9889,-3.9889,-3.9889,-3.987,-3.9851,-3.9851,-3.9851,-3.9851,-3.957,-3.9077,-3.8416,-3.7659,-3.692,-3.6159,-3.5588,-3.5494,-3.5437,-3.5245,-3.5091,-3.511,-3.5111,-3.5129,-3.511,-3.5147,-3.5164,-3.5164,-3.5164,-3.5145,-3.5143,-3.5196,-3.5245,-3.5277,-3.5308,-3.5383,-3.5383,-3.5407,-3.5441,-3.5488,-3.5488,-3.5493,-3.5446,-2.772,-2.8653,-2.9492,-3.0182,-3.0788,-3.1308,-3.1576,-3.1617,-3.1671,-3.1709,-3.1819,-3.1893,-3.2123,-3.2388,-3.2406,-3.3159,-3.4144,-3.4231,-3.4512,-3.5041,-3.552,-3.5433,-3.5685,-3.6505,-3.6915,-3.7201,-3.738,-3.7541,-3.7435,-3.7524,-3.7721,-3.8002,-3.8002,-3.8252,-3.8652,-3.8773,-3.8833,-3.9036,-3.912,-3.9202,-3.9229,-3.9354,-3.9399,-3.9425,-3.9425,-3.9469,-3.9495,-3.952,-3.9571,-3.9596,-3.962,-3.962,-3.962,-3.962,-3.962,-3.962,-3.962,-3.962,-3.962,-3.962,-3.9645,-3.9645,-3.965,-3.965,-3.965,-3.965,-3.9631,-3.9631,-3.9679,-3.9731,-3.9754,-3.9804,-3.9826,-3.9867,-3.9867,-3.9889,-3.9889,-3.9794,-3.974,-3.974,-3.974,-3.974,-3.9665,-3.9172,-3.8681,-3.7982,-3.7374,-3.6597,-3.5798,-3.5778,-3.5757,-3.547,-3.5181,-3.5145,-3.5129,-3.5164,-3.5162,-3.5181,-3.5198,-3.5179,-3.5196,-3.5193,-3.5209,-3.5245,-3.5261,-3.5293,-3.5324,-3.5354,-3.5398,-3.5441,-3.5474,-3.5493,-3.5493,-3.5493,-3.546]}]]